<?xml version='1.0' encoding='UTF-8'?><gpx version="1.1" creator="JPX - https://github.com/jenetics/jpx" xmlns="http://www.topografix.com/GPX/1/1"><trk><trkseg><trkpt lat="39.12468317143237" lon="16.72995624963954"><ele>1219.0</ele><time>2026-04-11T12:53:38.002Z</time></trkpt><trkpt lat="39.12462177722128" lon="16.729931666552194"><ele>1219.0</ele><time>2026-04-11T12:53:57.002Z</time></trkpt><trkpt lat="39.12471572572631" lon="16.729858995257413"><ele>1219.0</ele><time>2026-04-11T12:54:08.001Z</time></trkpt><trkpt lat="39.1248276981673" lon="16.72964993746358"><ele>1219.0</ele><time>2026-04-11T12:54:10.001Z</time></trkpt><trkpt lat="39.1248789806953" lon="16.729505809756386"><ele>1216.6000000000001</ele><time>2026-04-11T12:54:11.001Z</time></trkpt><trkpt lat="39.12493042791524" lon="16.729379764379235"><ele>1214.2</ele><time>2026-04-11T12:54:12.001Z</time></trkpt><trkpt lat="39.12498213024116" lon="16.72928339418638"><ele>1211.8000000000002</ele><time>2026-04-11T12:54:13Z</time></trkpt><trkpt lat="39.12499334143674" lon="16.729148230080966"><ele>1209.4</ele><time>2026-04-11T12:54:14Z</time></trkpt><trkpt lat="39.124972307124345" lon="16.728995070875325"><ele>1207.0</ele><time>2026-04-11T12:54:15Z</time></trkpt><trkpt lat="39.12496334673519" lon="16.72885060877205"><ele>1207.0</ele><time>2026-04-11T12:54:16Z</time></trkpt><trkpt lat="39.12491637592396" lon="16.728719881508486"><ele>1207.0</ele><time>2026-04-11T12:54:17Z</time></trkpt><trkpt lat="39.12480169401694" lon="16.72862332271597"><ele>1207.0</ele><time>2026-04-11T12:54:18Z</time></trkpt><trkpt lat="39.1247268096545" lon="16.72848639369687"><ele>1207.0</ele><time>2026-04-11T12:54:19Z</time></trkpt><trkpt lat="39.12455465653996" lon="16.72824307739689"><ele>1209.3333333333333</ele><time>2026-04-11T12:54:20Z</time></trkpt><trkpt lat="39.124431384571544" lon="16.728027157482384"><ele>1211.6666666666667</ele><time>2026-04-11T12:54:21Z</time></trkpt><trkpt lat="39.12431949441395" lon="16.727855355000788"><ele>1214.0</ele><time>2026-04-11T12:54:22Z</time></trkpt><trkpt lat="39.12418454861106" lon="16.727685277128824"><ele>1212.6666666666667</ele><time>2026-04-11T12:54:23Z</time></trkpt><trkpt lat="39.12404446992955" lon="16.727530526133226"><ele>1211.3333333333333</ele><time>2026-04-11T12:54:24Z</time></trkpt><trkpt lat="39.123907895448006" lon="16.727392769983748"><ele>1210.0</ele><time>2026-04-11T12:54:25Z</time></trkpt><trkpt lat="39.12381049752155" lon="16.72729400811998"><ele>1210.0</ele><time>2026-04-11T12:54:26Z</time></trkpt><trkpt lat="39.1237029548843" lon="16.72717565266246"><ele>1210.0</ele><time>2026-04-11T12:54:27Z</time></trkpt><trkpt lat="39.12360659726392" lon="16.727052717364323"><ele>1210.0</ele><time>2026-04-11T12:54:28Z</time></trkpt><trkpt lat="39.12350510823463" lon="16.72691251277766"><ele>1210.0</ele><time>2026-04-11T12:54:29Z</time></trkpt><trkpt lat="39.12342805613393" lon="16.726778310734716"><ele>1208.0</ele><time>2026-04-11T12:54:30Z</time></trkpt><trkpt lat="39.123391407224986" lon="16.726648510660464"><ele>1206.0</ele><time>2026-04-11T12:54:31Z</time></trkpt><trkpt lat="39.123384107008846" lon="16.726540496138902"><ele>1204.0</ele><time>2026-04-11T12:54:32Z</time></trkpt><trkpt lat="39.1230510240071" lon="16.726562048002606"><ele>1197.6000000000001</ele><time>2026-04-11T12:54:33Z</time></trkpt><trkpt lat="39.12294043749168" lon="16.726489680880547"><ele>1191.2</ele><time>2026-04-11T12:54:34Z</time></trkpt><trkpt lat="39.1228756375668" lon="16.72643024222558"><ele>1184.8000000000002</ele><time>2026-04-11T12:54:34.999Z</time></trkpt><trkpt lat="39.122802294913726" lon="16.726348885329205"><ele>1178.4</ele><time>2026-04-11T12:54:35.999Z</time></trkpt><trkpt lat="39.12272340093214" lon="16.726284381739518"><ele>1172.0</ele><time>2026-04-11T12:54:36.999Z</time></trkpt><trkpt lat="39.122761109523246" lon="16.72608504460926"><ele>1176.0</ele><time>2026-04-11T12:54:38.999Z</time></trkpt><trkpt lat="39.12279706351627" lon="16.725995088551915"><ele>1180.0</ele><time>2026-04-11T12:54:39.999Z</time></trkpt><trkpt lat="39.12285688508306" lon="16.725884649357525"><ele>1184.0</ele><time>2026-04-11T12:54:41.999Z</time></trkpt><trkpt lat="39.12295968109687" lon="16.725806024135668"><ele>1188.0</ele><time>2026-04-11T12:54:42.999Z</time></trkpt><trkpt lat="39.12314121294872" lon="16.725719577022414"><ele>1202.5</ele><time>2026-04-11T12:54:43.999Z</time></trkpt><trkpt lat="39.12341253582889" lon="16.725535133578255"><ele>1217.0</ele><time>2026-04-11T12:54:44.999Z</time></trkpt><trkpt lat="39.12359079537988" lon="16.725515700569908"><ele>1217.0</ele><time>2026-04-11T12:54:45.999Z</time></trkpt><trkpt lat="39.123710576654695" lon="16.72547855211086"><ele>1217.0</ele><time>2026-04-11T12:54:46.999Z</time></trkpt><trkpt lat="39.12387189925445" lon="16.725396252479282"><ele>1217.0</ele><time>2026-04-11T12:54:47.999Z</time></trkpt><trkpt lat="39.12407685493255" lon="16.72546140017626"><ele>1219.6666666666667</ele><time>2026-04-11T12:54:49.999Z</time></trkpt><trkpt lat="39.12417815795065" lon="16.725433877903463"><ele>1222.3333333333333</ele><time>2026-04-11T12:54:50.999Z</time></trkpt><trkpt lat="39.12450169459946" lon="16.725319340050234"><ele>1225.0</ele><time>2026-04-11T12:54:51.999Z</time></trkpt><trkpt lat="39.124593352407025" lon="16.72536014847976"><ele>1225.0</ele><time>2026-04-11T12:54:52.999Z</time></trkpt><trkpt lat="39.12466432822318" lon="16.725303178186298"><ele>1225.0</ele><time>2026-04-11T12:54:53.999Z</time></trkpt><trkpt lat="39.124777567983806" lon="16.725231427932467"><ele>1225.0</ele><time>2026-04-11T12:54:54.999Z</time></trkpt><trkpt lat="39.12486039422215" lon="16.72517656847219"><ele>1225.0</ele><time>2026-04-11T12:54:55.999Z</time></trkpt><trkpt lat="39.12469740435603" lon="16.72468600297969"><ele>1230.6</ele><time>2026-04-11T12:54:58.999Z</time></trkpt><trkpt lat="39.12468064570439" lon="16.72478048990243"><ele>1236.2</ele><time>2026-04-11T12:55:04.999Z</time></trkpt><trkpt lat="39.124556921883276" lon="16.724838143118482"><ele>1241.8</ele><time>2026-04-11T12:55:06.999Z</time></trkpt><trkpt lat="39.124658236119494" lon="16.724820345161664"><ele>1247.4</ele><time>2026-04-11T12:55:13.999Z</time></trkpt><trkpt lat="39.12473919897818" lon="16.72480119849248"><ele>1253.0</ele><time>2026-04-11T12:55:20.037Z</time></trkpt><trkpt lat="39.12487532646977" lon="16.724884719374185"><ele>1253.2</ele><time>2026-04-11T12:55:26.04Z</time></trkpt><trkpt lat="39.124936290019846" lon="16.72480477933051"><ele>1253.4</ele><time>2026-04-11T12:55:33.038Z</time></trkpt><trkpt lat="39.12494470517994" lon="16.72471374630912"><ele>1253.6000000000001</ele><time>2026-04-11T12:55:34.037Z</time></trkpt><trkpt lat="39.12504026356726" lon="16.724614962239137"><ele>1253.8</ele><time>2026-04-11T12:55:37.035Z</time></trkpt><trkpt lat="39.12513798030264" lon="16.724592409287396"><ele>1254.0</ele><time>2026-04-11T12:55:40.034Z</time></trkpt><trkpt lat="39.125214159817325" lon="16.724557367466822"><ele>1254.0</ele><time>2026-04-11T12:55:41.033Z</time></trkpt><trkpt lat="39.125278974518835" lon="16.72450301855298"><ele>1254.0</ele><time>2026-04-11T12:55:44.035Z</time></trkpt><trkpt lat="39.12523331056992" lon="16.72457177632873"><ele>1254.0</ele><time>2026-04-11T12:55:48.028Z</time></trkpt><trkpt lat="39.12526253113292" lon="16.724493311537604"><ele>1254.0</ele><time>2026-04-11T12:55:53.023Z</time></trkpt><trkpt lat="39.12526773206556" lon="16.724406012944115"><ele>1254.0</ele><time>2026-04-11T12:55:55.022Z</time></trkpt><trkpt lat="39.12531549271286" lon="16.724311883805164"><ele>1254.0</ele><time>2026-04-11T12:55:56.024Z</time></trkpt><trkpt lat="39.125359422997775" lon="16.72424277936622"><ele>1254.0</ele><time>2026-04-11T12:55:59.024Z</time></trkpt><trkpt lat="39.12541970423583" lon="16.724174054448355"><ele>1257.8</ele><time>2026-04-11T12:56:01.022Z</time></trkpt><trkpt lat="39.12539158982626" lon="16.724094400590907"><ele>1261.6000000000001</ele><time>2026-04-11T12:56:03.022Z</time></trkpt><trkpt lat="39.12534175332226" lon="16.724000633577088"><ele>1265.4</ele><time>2026-04-11T12:56:04.999Z</time></trkpt><trkpt lat="39.125340870782026" lon="16.72385134845067"><ele>1269.2</ele><time>2026-04-11T12:56:06.998Z</time></trkpt><trkpt lat="39.12533310443288" lon="16.723687181381194"><ele>1273.0</ele><time>2026-04-11T12:56:08.998Z</time></trkpt><trkpt lat="39.12530699385179" lon="16.723591397601858"><ele>1274.3333333333333</ele><time>2026-04-11T12:56:09.998Z</time></trkpt><trkpt lat="39.12528877101929" lon="16.72349390711746"><ele>1275.6666666666665</ele><time>2026-04-11T12:56:10.998Z</time></trkpt><trkpt lat="39.125293356958274" lon="16.723405711027347"><ele>1277.0</ele><time>2026-04-11T12:56:11.998Z</time></trkpt><trkpt lat="39.12523731845151" lon="16.723339586277703"><ele>1278.3333333333333</ele><time>2026-04-11T12:56:13.998Z</time></trkpt><trkpt lat="39.12526694760513" lon="16.72326437224036"><ele>1279.6666666666667</ele><time>2026-04-11T12:56:14.999Z</time></trkpt><trkpt lat="39.12522274969699" lon="16.723152688876084"><ele>1281.0</ele><time>2026-04-11T12:56:18Z</time></trkpt><trkpt lat="39.12517586266272" lon="16.723077188316577"><ele>1281.0</ele><time>2026-04-11T12:56:20Z</time></trkpt><trkpt lat="39.12511085115895" lon="16.723033634194962"><ele>1281.0</ele><time>2026-04-11T12:56:21Z</time></trkpt><trkpt lat="39.125046261201256" lon="16.722969283756342"><ele>1281.0</ele><time>2026-04-11T12:56:22Z</time></trkpt><trkpt lat="39.12495404212276" lon="16.722935317053796"><ele>1281.0</ele><time>2026-04-11T12:56:23Z</time></trkpt><trkpt lat="39.12485068306913" lon="16.722881066993107"><ele>1281.0</ele><time>2026-04-11T12:56:24Z</time></trkpt><trkpt lat="39.124786629629305" lon="16.722823206721795"><ele>1281.0</ele><time>2026-04-11T12:56:25Z</time></trkpt><trkpt lat="39.12478516321638" lon="16.72265548524137"><ele>1278.0</ele><time>2026-04-11T12:56:27Z</time></trkpt><trkpt lat="39.12475115296764" lon="16.722567448876873"><ele>1275.0</ele><time>2026-04-11T12:56:28Z</time></trkpt><trkpt lat="39.12470543416549" lon="16.722479328123043"><ele>1272.0</ele><time>2026-04-11T12:56:29Z</time></trkpt><trkpt lat="39.12463103059152" lon="16.722315858598677"><ele>1269.0</ele><time>2026-04-11T12:56:30Z</time></trkpt><trkpt lat="39.12457439877426" lon="16.722151959273287"><ele>1266.0</ele><time>2026-04-11T12:56:31Z</time></trkpt><trkpt lat="39.124476473495285" lon="16.7219738834603"><ele>1270.5</ele><time>2026-04-11T12:56:32Z</time></trkpt><trkpt lat="39.12436577485328" lon="16.721813829563548"><ele>1275.0</ele><time>2026-04-11T12:56:33Z</time></trkpt><trkpt lat="39.124344723008875" lon="16.721639042644824"><ele>1279.5</ele><time>2026-04-11T12:56:34Z</time></trkpt><trkpt lat="39.12428440600083" lon="16.721509819525266"><ele>1284.0</ele><time>2026-04-11T12:56:35Z</time></trkpt><trkpt lat="39.124218206121725" lon="16.721417379384107"><ele>1284.0</ele><time>2026-04-11T12:56:36Z</time></trkpt><trkpt lat="39.124125146438125" lon="16.721306659790322"><ele>1284.0</ele><time>2026-04-11T12:56:37Z</time></trkpt><trkpt lat="39.12401207317918" lon="16.721207252528014"><ele>1284.0</ele><time>2026-04-11T12:56:38Z</time></trkpt><trkpt lat="39.12391780376683" lon="16.721120518085307"><ele>1284.0</ele><time>2026-04-11T12:56:39Z</time></trkpt><trkpt lat="39.12383732925369" lon="16.72103093933461"><ele>1275.8</ele><time>2026-04-11T12:56:40Z</time></trkpt><trkpt lat="39.1237786552595" lon="16.72090500254781"><ele>1267.6000000000001</ele><time>2026-04-11T12:56:41Z</time></trkpt><trkpt lat="39.12371982512131" lon="16.720756209265943"><ele>1259.4</ele><time>2026-04-11T12:56:42Z</time></trkpt><trkpt lat="39.12371518453317" lon="16.72061552710778"><ele>1251.2</ele><time>2026-04-11T12:56:43Z</time></trkpt><trkpt lat="39.12369748550935" lon="16.720502125828425"><ele>1243.0</ele><time>2026-04-11T12:56:44Z</time></trkpt><trkpt lat="39.12372664134046" lon="16.720359941243615"><ele>1246.0</ele><time>2026-04-11T12:56:45Z</time></trkpt><trkpt lat="39.123712206839016" lon="16.720213949881632"><ele>1249.0</ele><time>2026-04-11T12:56:46Z</time></trkpt><trkpt lat="39.12368350328724" lon="16.720078758330622"><ele>1252.0</ele><time>2026-04-11T12:56:47Z</time></trkpt><trkpt lat="39.123643468922545" lon="16.71993485300115"><ele>1255.0</ele><time>2026-04-11T12:56:48Z</time></trkpt><trkpt lat="39.12357084033497" lon="16.71982335470297"><ele>1255.0</ele><time>2026-04-11T12:56:49Z</time></trkpt><trkpt lat="39.123526494003386" lon="16.71966971431187"><ele>1255.0</ele><time>2026-04-11T12:56:50Z</time></trkpt><trkpt lat="39.12349200307388" lon="16.719513074289445"><ele>1255.0</ele><time>2026-04-11T12:56:51Z</time></trkpt><trkpt lat="39.123448234672935" lon="16.71935251628977"><ele>1255.0</ele><time>2026-04-11T12:56:52Z</time></trkpt><trkpt lat="39.12339711392229" lon="16.719209152295047"><ele>1259.6</ele><time>2026-04-11T12:56:53Z</time></trkpt><trkpt lat="39.12331783107454" lon="16.719114000960083"><ele>1264.2</ele><time>2026-04-11T12:56:54Z</time></trkpt><trkpt lat="39.123239832751906" lon="16.719010811260937"><ele>1268.8</ele><time>2026-04-11T12:56:55Z</time></trkpt><trkpt lat="39.123156070123294" lon="16.718912534828892"><ele>1273.4</ele><time>2026-04-11T12:56:56Z</time></trkpt><trkpt lat="39.12308425885914" lon="16.71880766642557"><ele>1278.0</ele><time>2026-04-11T12:56:57Z</time></trkpt><trkpt lat="39.12306765404179" lon="16.71869180032683"><ele>1273.4</ele><time>2026-04-11T12:56:58Z</time></trkpt><trkpt lat="39.12304882966433" lon="16.718590770035217"><ele>1268.8</ele><time>2026-04-11T12:56:59Z</time></trkpt><trkpt lat="39.12303272757461" lon="16.718466162844734"><ele>1264.2</ele><time>2026-04-11T12:57:00Z</time></trkpt><trkpt lat="39.123040976555245" lon="16.71830578704508"><ele>1259.6</ele><time>2026-04-11T12:57:01Z</time></trkpt><trkpt lat="39.1230261727136" lon="16.718122265427688"><ele>1255.0</ele><time>2026-04-11T12:57:02Z</time></trkpt><trkpt lat="39.12299399963853" lon="16.71796818331767"><ele>1255.0</ele><time>2026-04-11T12:57:03Z</time></trkpt><trkpt lat="39.12293642961148" lon="16.717841208805385"><ele>1255.0</ele><time>2026-04-11T12:57:04Z</time></trkpt><trkpt lat="39.12289604894276" lon="16.717726464409314"><ele>1255.0</ele><time>2026-04-11T12:57:05Z</time></trkpt><trkpt lat="39.12283841457345" lon="16.717632791623522"><ele>1255.0</ele><time>2026-04-11T12:57:06Z</time></trkpt><trkpt lat="39.122782219615985" lon="16.717555522594292"><ele>1255.0</ele><time>2026-04-11T12:57:07Z</time></trkpt><trkpt lat="39.12271967587348" lon="16.717500608540828"><ele>1258.4</ele><time>2026-04-11T12:57:08Z</time></trkpt><trkpt lat="39.122593750771955" lon="16.71747525889964"><ele>1261.8</ele><time>2026-04-11T12:57:10Z</time></trkpt><trkpt lat="39.12253309313335" lon="16.717503443373136"><ele>1265.2</ele><time>2026-04-11T12:57:11Z</time></trkpt><trkpt lat="39.12244466688896" lon="16.717565972305653"><ele>1268.6</ele><time>2026-04-11T12:57:13Z</time></trkpt><trkpt lat="39.1223650436136" lon="16.71762065165834"><ele>1272.0</ele><time>2026-04-11T12:57:14Z</time></trkpt><trkpt lat="39.12223054295168" lon="16.7176928939482"><ele>1272.0</ele><time>2026-04-11T12:57:15Z</time></trkpt><trkpt lat="39.12209608202427" lon="16.717697796516322"><ele>1272.0</ele><time>2026-04-11T12:57:16Z</time></trkpt><trkpt lat="39.12201248375205" lon="16.71767804328672"><ele>1272.0</ele><time>2026-04-11T12:57:17Z</time></trkpt><trkpt lat="39.121884066987114" lon="16.71760503650661"><ele>1272.0</ele><time>2026-04-11T12:57:18Z</time></trkpt><trkpt lat="39.121798223696864" lon="16.717528298905357"><ele>1272.0</ele><time>2026-04-11T12:57:19Z</time></trkpt><trkpt lat="39.12168438794204" lon="16.717452737093524"><ele>1272.0</ele><time>2026-04-11T12:57:20Z</time></trkpt><trkpt lat="39.121571927686354" lon="16.717382593159446"><ele>1272.0</ele><time>2026-04-11T12:57:21Z</time></trkpt><trkpt lat="39.12138845244219" lon="16.717272775522783"><ele>1269.0</ele><time>2026-04-11T12:57:22Z</time></trkpt><trkpt lat="39.121277517709494" lon="16.717221502842975"><ele>1266.0</ele><time>2026-04-11T12:57:23Z</time></trkpt><trkpt lat="39.121135161902394" lon="16.71719512047127"><ele>1263.0</ele><time>2026-04-11T12:57:24Z</time></trkpt><trkpt lat="39.12100901054135" lon="16.717159731193796"><ele>1260.0</ele><time>2026-04-11T12:57:25Z</time></trkpt><trkpt lat="39.120874124438835" lon="16.717118436650214"><ele>1260.0</ele><time>2026-04-11T12:57:26Z</time></trkpt><trkpt lat="39.120762744778894" lon="16.717102477361315"><ele>1260.0</ele><time>2026-04-11T12:57:27Z</time></trkpt><trkpt lat="39.12063235711416" lon="16.7170949811642"><ele>1260.0</ele><time>2026-04-11T12:57:28Z</time></trkpt><trkpt lat="39.120511100524055" lon="16.717082196343302"><ele>1260.0</ele><time>2026-04-11T12:57:29Z</time></trkpt><trkpt lat="39.12036698972424" lon="16.717080323820177"><ele>1265.25</ele><time>2026-04-11T12:57:30Z</time></trkpt><trkpt lat="39.12024559386181" lon="16.717072424524687"><ele>1270.5</ele><time>2026-04-11T12:57:31Z</time></trkpt><trkpt lat="39.12012554920537" lon="16.717028740722565"><ele>1275.75</ele><time>2026-04-11T12:57:32Z</time></trkpt><trkpt lat="39.12002312739538" lon="16.71699782631567"><ele>1281.0</ele><time>2026-04-11T12:57:33Z</time></trkpt><trkpt lat="39.11992643423238" lon="16.716900729072822"><ele>1273.25</ele><time>2026-04-11T12:57:34Z</time></trkpt><trkpt lat="39.11980456075696" lon="16.7168039612354"><ele>1265.5</ele><time>2026-04-11T12:57:35Z</time></trkpt><trkpt lat="39.119697622679325" lon="16.716721815128988"><ele>1257.75</ele><time>2026-04-11T12:57:36Z</time></trkpt><trkpt lat="39.119580098672365" lon="16.71663184106004"><ele>1250.0</ele><time>2026-04-11T12:57:37Z</time></trkpt><trkpt lat="39.11945979125234" lon="16.716537528204086"><ele>1250.0</ele><time>2026-04-11T12:57:38Z</time></trkpt><trkpt lat="39.11934737831677" lon="16.716445822507723"><ele>1250.0</ele><time>2026-04-11T12:57:39Z</time></trkpt><trkpt lat="39.119276406712956" lon="16.716382660843344"><ele>1250.0</ele><time>2026-04-11T12:57:40Z</time></trkpt><trkpt lat="39.11919356404379" lon="16.71630591435229"><ele>1250.0</ele><time>2026-04-11T12:57:41Z</time></trkpt><trkpt lat="39.11911124526369" lon="16.716228251787165"><ele>1250.0</ele><time>2026-04-11T12:57:42Z</time></trkpt><trkpt lat="39.11902276432062" lon="16.716141525522808"><ele>1249.25</ele><time>2026-04-11T12:57:43Z</time></trkpt><trkpt lat="39.11893979400998" lon="16.7160570806055"><ele>1248.5</ele><time>2026-04-11T12:57:43.999Z</time></trkpt><trkpt lat="39.11885030988169" lon="16.715962232831515"><ele>1247.75</ele><time>2026-04-11T12:57:44.999Z</time></trkpt><trkpt lat="39.118739976749005" lon="16.715847248430606"><ele>1247.0</ele><time>2026-04-11T12:57:45.999Z</time></trkpt><trkpt lat="39.118634402111255" lon="16.715755791336466"><ele>1247.0</ele><time>2026-04-11T12:57:46.999Z</time></trkpt><trkpt lat="39.11855511869882" lon="16.715670297230712"><ele>1247.0</ele><time>2026-04-11T12:57:47.999Z</time></trkpt><trkpt lat="39.11849876325678" lon="16.715588535024025"><ele>1247.0</ele><time>2026-04-11T12:57:48.999Z</time></trkpt><trkpt lat="39.11843452352731" lon="16.71551945053603"><ele>1247.0</ele><time>2026-04-11T12:57:49.999Z</time></trkpt><trkpt lat="39.118379937282604" lon="16.715457178431436"><ele>1247.0</ele><time>2026-04-11T12:57:50.999Z</time></trkpt><trkpt lat="39.11831530846136" lon="16.71539443350344"><ele>1247.0</ele><time>2026-04-11T12:57:51.999Z</time></trkpt><trkpt lat="39.118269302880364" lon="16.71525846288314"><ele>1249.0</ele><time>2026-04-11T12:57:53.999Z</time></trkpt><trkpt lat="39.118242176436965" lon="16.715135673683353"><ele>1251.0</ele><time>2026-04-11T12:57:54.999Z</time></trkpt><trkpt lat="39.11820353129345" lon="16.71501989809311"><ele>1253.0</ele><time>2026-04-11T12:57:55.999Z</time></trkpt><trkpt lat="39.118169764402424" lon="16.714918737072733"><ele>1255.0</ele><time>2026-04-11T12:57:56.999Z</time></trkpt><trkpt lat="39.11813812710675" lon="16.71482395602411"><ele>1257.0</ele><time>2026-04-11T12:57:57.999Z</time></trkpt><trkpt lat="39.11811555926131" lon="16.714732531624513"><ele>1259.0</ele><time>2026-04-11T12:57:58.999Z</time></trkpt><trkpt lat="39.11812017686353" lon="16.714631261865588"><ele>1257.8</ele><time>2026-04-11T12:57:59.999Z</time></trkpt><trkpt lat="39.11812082391622" lon="16.71447805540334"><ele>1256.6000000000001</ele><time>2026-04-11T12:58:00.999Z</time></trkpt><trkpt lat="39.11817028066937" lon="16.714368547428286"><ele>1255.4</ele><time>2026-04-11T12:58:01.999Z</time></trkpt><trkpt lat="39.118250381407854" lon="16.714277085264847"><ele>1254.2</ele><time>2026-04-11T12:58:02.999Z</time></trkpt><trkpt lat="39.118308630839" lon="16.714182506398036"><ele>1253.0</ele><time>2026-04-11T12:58:03.999Z</time></trkpt><trkpt lat="39.118342089297805" lon="16.714092898374485"><ele>1253.0</ele><time>2026-04-11T12:58:04.999Z</time></trkpt><trkpt lat="39.11839257484579" lon="16.713995335083546"><ele>1253.0</ele><time>2026-04-11T12:58:05.999Z</time></trkpt><trkpt lat="39.118389897912344" lon="16.71387858980727"><ele>1253.0</ele><time>2026-04-11T12:58:06.999Z</time></trkpt><trkpt lat="39.118405859637505" lon="16.71378277093373"><ele>1253.0</ele><time>2026-04-11T12:58:07.999Z</time></trkpt><trkpt lat="39.11843774551124" lon="16.71366931064352"><ele>1253.0</ele><time>2026-04-11T12:58:08.999Z</time></trkpt><trkpt lat="39.11845413796491" lon="16.713573445049917"><ele>1253.0</ele><time>2026-04-11T12:58:09.999Z</time></trkpt><trkpt lat="39.11848946916595" lon="16.713487184978845"><ele>1251.0</ele><time>2026-04-11T12:58:10.999Z</time></trkpt><trkpt lat="39.11861769825563" lon="16.71342379585241"><ele>1249.0</ele><time>2026-04-11T12:58:11.999Z</time></trkpt><trkpt lat="39.118698389099656" lon="16.71332156704893"><ele>1247.0</ele><time>2026-04-11T12:58:13.999Z</time></trkpt><trkpt lat="39.11872647998604" lon="16.713168600917353"><ele>1245.0</ele><time>2026-04-11T12:58:15.999Z</time></trkpt><trkpt lat="39.11876137170904" lon="16.7130512996762"><ele>1245.0</ele><time>2026-04-11T12:58:16.999Z</time></trkpt><trkpt lat="39.118729016351836" lon="16.712954034132018"><ele>1245.0</ele><time>2026-04-11T12:58:17.999Z</time></trkpt><trkpt lat="39.11855754883361" lon="16.712829747104262"><ele>1245.0</ele><time>2026-04-11T12:58:18.999Z</time></trkpt><trkpt lat="39.11846795356418" lon="16.712725976039657"><ele>1245.0</ele><time>2026-04-11T12:58:20Z</time></trkpt><trkpt lat="39.118392191385176" lon="16.712640860430657"><ele>1246.8</ele><time>2026-04-11T12:58:21Z</time></trkpt><trkpt lat="39.11830317098091" lon="16.712549655019604"><ele>1248.6</ele><time>2026-04-11T12:58:22Z</time></trkpt><trkpt lat="39.11824661930907" lon="16.71248489715273"><ele>1250.4</ele><time>2026-04-11T12:58:23Z</time></trkpt><trkpt lat="39.11815438658388" lon="16.712425257181696"><ele>1252.2</ele><time>2026-04-11T12:58:25Z</time></trkpt><trkpt lat="39.118034911251165" lon="16.712394286596137"><ele>1254.0</ele><time>2026-04-11T12:58:27Z</time></trkpt><trkpt lat="39.11793317936516" lon="16.712305332354575"><ele>1247.8</ele><time>2026-04-11T12:58:29Z</time></trkpt><trkpt lat="39.117914498759916" lon="16.71221909215132"><ele>1241.6000000000001</ele><time>2026-04-11T12:58:30Z</time></trkpt><trkpt lat="39.117910603163054" lon="16.71210354186189"><ele>1235.4</ele><time>2026-04-11T12:58:31Z</time></trkpt><trkpt lat="39.11787102894206" lon="16.71197896938819"><ele>1229.2</ele><time>2026-04-11T12:58:32Z</time></trkpt><trkpt lat="39.117870407842815" lon="16.71182223693607"><ele>1223.0</ele><time>2026-04-11T12:58:33Z</time></trkpt><trkpt lat="39.11787452756308" lon="16.71168149665222"><ele>1223.0</ele><time>2026-04-11T12:58:34Z</time></trkpt><trkpt lat="39.11786866107845" lon="16.711540420399352"><ele>1223.0</ele><time>2026-04-11T12:58:35Z</time></trkpt><trkpt lat="39.117831495987836" lon="16.711428470970667"><ele>1223.0</ele><time>2026-04-11T12:58:36Z</time></trkpt><trkpt lat="39.11780855387615" lon="16.71130810323856"><ele>1223.0</ele><time>2026-04-11T12:58:37Z</time></trkpt><trkpt lat="39.11778359828328" lon="16.71121217633345"><ele>1223.0</ele><time>2026-04-11T12:58:38Z</time></trkpt><trkpt lat="39.11772938431941" lon="16.711134337740784"><ele>1223.0</ele><time>2026-04-11T12:58:40Z</time></trkpt><trkpt lat="39.117653934248935" lon="16.71121517313654"><ele>1223.0</ele><time>2026-04-11T12:58:42Z</time></trkpt><trkpt lat="39.11759870388047" lon="16.711265518581907"><ele>1223.0</ele><time>2026-04-11T12:58:43Z</time></trkpt><trkpt lat="39.11754555881413" lon="16.711321772209626"><ele>1223.0</ele><time>2026-04-11T12:58:47Z</time></trkpt><trkpt lat="39.11750415117488" lon="16.7113845222673"><ele>1223.0</ele><time>2026-04-11T12:58:48Z</time></trkpt><trkpt lat="39.117481444178935" lon="16.71147116326459"><ele>1223.0</ele><time>2026-04-11T12:58:51Z</time></trkpt><trkpt lat="39.11744741389481" lon="16.71158763416832"><ele>1223.0</ele><time>2026-04-11T12:58:53Z</time></trkpt><trkpt lat="39.11745093687346" lon="16.711674605548957"><ele>1223.0</ele><time>2026-04-11T12:58:54Z</time></trkpt><trkpt lat="39.117356151538615" lon="16.711621255324324"><ele>1223.0</ele><time>2026-04-11T12:58:56Z</time></trkpt><trkpt lat="39.117296144003504" lon="16.71154038700391"><ele>1223.0</ele><time>2026-04-11T12:58:58Z</time></trkpt><trkpt lat="39.11727540240269" lon="16.71140959257136"><ele>1223.0</ele><time>2026-04-11T12:58:59Z</time></trkpt><trkpt lat="39.117223442450914" lon="16.7112679912411"><ele>1217.5</ele><time>2026-04-11T12:59:00Z</time></trkpt><trkpt lat="39.11716819475716" lon="16.71115039342745"><ele>1212.0</ele><time>2026-04-11T12:59:01Z</time></trkpt><trkpt lat="39.11714817395529" lon="16.711045243599855"><ele>1206.5</ele><time>2026-04-11T12:59:02Z</time></trkpt><trkpt lat="39.117166208529646" lon="16.71096696821147"><ele>1201.0</ele><time>2026-04-11T12:59:03Z</time></trkpt><trkpt lat="39.117155595246075" lon="16.71081155007979"><ele>1195.5</ele><time>2026-04-11T12:59:05Z</time></trkpt><trkpt lat="39.11716731729159" lon="16.710730936516736"><ele>1190.0</ele><time>2026-04-11T12:59:06Z</time></trkpt><trkpt lat="39.11720547322552" lon="16.710626557247643"><ele>1186.0</ele><time>2026-04-11T12:59:08Z</time></trkpt><trkpt lat="39.117269262246225" lon="16.71064368993281"><ele>1182.0</ele><time>2026-04-11T12:59:09Z</time></trkpt><trkpt lat="39.1173890326105" lon="16.710621667109304"><ele>1178.0</ele><time>2026-04-11T12:59:10Z</time></trkpt><trkpt lat="39.117552739589414" lon="16.710603965280182"><ele>1174.0</ele><time>2026-04-11T12:59:11Z</time></trkpt><trkpt lat="39.11765617271737" lon="16.71062028227701"><ele>1175.6000000000001</ele><time>2026-04-11T12:59:12Z</time></trkpt><trkpt lat="39.11774758922662" lon="16.710582392507078"><ele>1177.2</ele><time>2026-04-11T12:59:13Z</time></trkpt><trkpt lat="39.11784921622263" lon="16.71046741180375"><ele>1178.8000000000002</ele><time>2026-04-11T12:59:14Z</time></trkpt><trkpt lat="39.11790568320702" lon="16.710377693597223"><ele>1180.4</ele><time>2026-04-11T12:59:15Z</time></trkpt><trkpt lat="39.11786656693274" lon="16.71024620184796"><ele>1182.0</ele><time>2026-04-11T12:59:17Z</time></trkpt><trkpt lat="39.118050833036506" lon="16.71011687112391"><ele>1182.0</ele><time>2026-04-11T12:59:19Z</time></trkpt><trkpt lat="39.118111225885336" lon="16.71000241551528"><ele>1182.0</ele><time>2026-04-11T12:59:20Z</time></trkpt><trkpt lat="39.118119746136415" lon="16.709907711348922"><ele>1182.0</ele><time>2026-04-11T12:59:21Z</time></trkpt><trkpt lat="39.118123302987506" lon="16.709824868217673"><ele>1182.0</ele><time>2026-04-11T12:59:22Z</time></trkpt><trkpt lat="39.11816130589103" lon="16.70970108286591"><ele>1182.0</ele><time>2026-04-11T12:59:24Z</time></trkpt><trkpt lat="39.11818518004304" lon="16.709584150575704"><ele>1182.0</ele><time>2026-04-11T12:59:26Z</time></trkpt><trkpt lat="39.11811349780998" lon="16.70944140749029"><ele>1179.0</ele><time>2026-04-11T12:59:28Z</time></trkpt><trkpt lat="39.11805442470401" lon="16.709360796132326"><ele>1176.0</ele><time>2026-04-11T12:59:29Z</time></trkpt><trkpt lat="39.117930427176724" lon="16.709313245067236"><ele>1173.0</ele><time>2026-04-11T12:59:30Z</time></trkpt><trkpt lat="39.11786249746985" lon="16.70925605600861"><ele>1170.0</ele><time>2026-04-11T12:59:31Z</time></trkpt><trkpt lat="39.11779417070889" lon="16.70920173938819"><ele>1167.0</ele><time>2026-04-11T12:59:32Z</time></trkpt><trkpt lat="39.117727741604796" lon="16.709166014972727"><ele>1164.0</ele><time>2026-04-11T12:59:33Z</time></trkpt><trkpt lat="39.117669124512055" lon="16.709102754495927"><ele>1164.0</ele><time>2026-04-11T12:59:34Z</time></trkpt><trkpt lat="39.1176085959303" lon="16.709045209960944"><ele>1164.0</ele><time>2026-04-11T12:59:35Z</time></trkpt><trkpt lat="39.11758118235015" lon="16.708945389159137"><ele>1164.0</ele><time>2026-04-11T12:59:36Z</time></trkpt><trkpt lat="39.11757523411809" lon="16.708771009843236"><ele>1164.0</ele><time>2026-04-11T12:59:38Z</time></trkpt><trkpt lat="39.11759073449779" lon="16.70863175739205"><ele>1164.0</ele><time>2026-04-11T12:59:39Z</time></trkpt><trkpt lat="39.11761500338471" lon="16.708510399821762"><ele>1161.142857142857</ele><time>2026-04-11T12:59:40Z</time></trkpt><trkpt lat="39.117640043776156" lon="16.70840406022176"><ele>1158.2857142857142</ele><time>2026-04-11T12:59:41Z</time></trkpt><trkpt lat="39.11768260638488" lon="16.708303552734662"><ele>1155.4285714285713</ele><time>2026-04-11T12:59:42Z</time></trkpt><trkpt lat="39.11769755417417" lon="16.708215581933946"><ele>1152.5714285714284</ele><time>2026-04-11T12:59:43Z</time></trkpt><trkpt lat="39.11769367886056" lon="16.708132724768518"><ele>1149.7142857142858</ele><time>2026-04-11T12:59:44Z</time></trkpt><trkpt lat="39.11770938959518" lon="16.708047868460124"><ele>1146.8571428571427</ele><time>2026-04-11T12:59:45Z</time></trkpt><trkpt lat="39.11771657217983" lon="16.707962250464387"><ele>1144.0</ele><time>2026-04-11T12:59:46Z</time></trkpt><trkpt lat="39.117739666157334" lon="16.707878594117624"><ele>1144.0</ele><time>2026-04-11T12:59:47Z</time></trkpt><trkpt lat="39.1177819964157" lon="16.707799797994937"><ele>1144.0</ele><time>2026-04-11T12:59:48Z</time></trkpt><trkpt lat="39.11782248147676" lon="16.707714954541565"><ele>1144.0</ele><time>2026-04-11T12:59:49Z</time></trkpt><trkpt lat="39.117849873006634" lon="16.70760977023468"><ele>1144.0</ele><time>2026-04-11T12:59:50Z</time></trkpt><trkpt lat="39.117901348833314" lon="16.70753004970459"><ele>1144.0</ele><time>2026-04-11T12:59:51Z</time></trkpt><trkpt lat="39.117934548434555" lon="16.707456507306084"><ele>1144.0</ele><time>2026-04-11T12:59:52Z</time></trkpt><trkpt lat="39.117994306025956" lon="16.707387957393276"><ele>1141.8</ele><time>2026-04-11T12:59:53Z</time></trkpt><trkpt lat="39.11807502864583" lon="16.707275502159685"><ele>1139.6000000000001</ele><time>2026-04-11T12:59:55Z</time></trkpt><trkpt lat="39.11810889923949" lon="16.70719573726285"><ele>1137.4</ele><time>2026-04-11T12:59:56Z</time></trkpt><trkpt lat="39.11814484868204" lon="16.70712189608378"><ele>1135.2</ele><time>2026-04-11T12:59:57Z</time></trkpt><trkpt lat="39.11815873478317" lon="16.7070219648085"><ele>1133.0</ele><time>2026-04-11T12:59:58Z</time></trkpt><trkpt lat="39.11818632058358" lon="16.706871090505324"><ele>1138.3333333333335</ele><time>2026-04-11T13:00:00Z</time></trkpt><trkpt lat="39.118188920400826" lon="16.706727876438624"><ele>1143.6666666666667</ele><time>2026-04-11T13:00:02Z</time></trkpt><trkpt lat="39.1181905856435" lon="16.706630006374972"><ele>1149.0</ele><time>2026-04-11T13:00:03Z</time></trkpt><trkpt lat="39.11810141910978" lon="16.70662151109768"><ele>1154.3333333333333</ele><time>2026-04-11T13:00:06Z</time></trkpt><trkpt lat="39.11806838351849" lon="16.70671737398533"><ele>1159.6666666666665</ele><time>2026-04-11T13:00:08.999Z</time></trkpt><trkpt lat="39.118044376303956" lon="16.706808017023185"><ele>1165.0</ele><time>2026-04-11T13:00:09.999Z</time></trkpt><trkpt lat="39.11801550911565" lon="16.70688355347182"><ele>1157.0</ele><time>2026-04-11T13:00:11.999Z</time></trkpt><trkpt lat="39.117952138338026" lon="16.70701658863391"><ele>1149.0</ele><time>2026-04-11T13:00:13.999Z</time></trkpt><trkpt lat="39.11783074405864" lon="16.707070411198366"><ele>1141.0</ele><time>2026-04-11T13:00:15.999Z</time></trkpt><trkpt lat="39.117710973553926" lon="16.707009805172703"><ele>1133.0</ele><time>2026-04-11T13:00:17.999Z</time></trkpt><trkpt lat="39.11760250790016" lon="16.70700857220842"><ele>1133.0</ele><time>2026-04-11T13:00:19.999Z</time></trkpt><trkpt lat="39.11752189800757" lon="16.70702324093107"><ele>1133.0</ele><time>2026-04-11T13:00:22.999Z</time></trkpt><trkpt lat="39.117446263019026" lon="16.707006541244674"><ele>1133.0</ele><time>2026-04-11T13:00:38Z</time></trkpt><trkpt lat="39.117367368187324" lon="16.70695046737572"><ele>1133.0</ele><time>2026-04-11T13:00:40Z</time></trkpt><trkpt lat="39.11729281269509" lon="16.706833606484224"><ele>1133.0</ele><time>2026-04-11T13:00:42Z</time></trkpt><trkpt lat="39.11716838386525" lon="16.706764808697763"><ele>1133.8333333333335</ele><time>2026-04-11T13:00:44Z</time></trkpt><trkpt lat="39.11707388521994" lon="16.706728906273835"><ele>1134.6666666666667</ele><time>2026-04-11T13:00:45Z</time></trkpt><trkpt lat="39.1170055259371" lon="16.70675366044098"><ele>1135.5</ele><time>2026-04-11T13:00:46Z</time></trkpt><trkpt lat="39.116935130468335" lon="16.70677451110527"><ele>1136.3333333333333</ele><time>2026-04-11T13:00:47Z</time></trkpt><trkpt lat="39.11688046304079" lon="16.706832079666942"><ele>1137.1666666666665</ele><time>2026-04-11T13:00:48Z</time></trkpt><trkpt lat="39.116825424800865" lon="16.706872876984878"><ele>1138.0</ele><time>2026-04-11T13:00:49Z</time></trkpt><trkpt lat="39.116721760440754" lon="16.70695467104196"><ele>1133.25</ele><time>2026-04-11T13:00:51Z</time></trkpt><trkpt lat="39.116628665511556" lon="16.70695007828014"><ele>1128.5</ele><time>2026-04-11T13:00:52Z</time></trkpt><trkpt lat="39.116516639298325" lon="16.70691044591988"><ele>1123.75</ele><time>2026-04-11T13:00:53Z</time></trkpt><trkpt lat="39.116424196558" lon="16.706868250403176"><ele>1119.0</ele><time>2026-04-11T13:00:54Z</time></trkpt><trkpt lat="39.11627275885128" lon="16.706889952164584"><ele>1119.0</ele><time>2026-04-11T13:00:56Z</time></trkpt><trkpt lat="39.116246357380206" lon="16.706972265327035"><ele>1119.0</ele><time>2026-04-11T13:00:58Z</time></trkpt><trkpt lat="39.116133233808426" lon="16.706938017481157"><ele>1119.0</ele><time>2026-04-11T13:01:00Z</time></trkpt><trkpt lat="39.11626898006215" lon="16.7065615075546"><ele>1119.0</ele><time>2026-04-11T13:01:03Z</time></trkpt><trkpt lat="39.11626953559265" lon="16.706356619823605"><ele>1119.0</ele><time>2026-04-11T13:01:04Z</time></trkpt><trkpt lat="39.116356673734764" lon="16.70613369277151"><ele>1119.0</ele><time>2026-04-11T13:01:05Z</time></trkpt><trkpt lat="39.11643110689056" lon="16.70594027225142"><ele>1120.0</ele><time>2026-04-11T13:01:06Z</time></trkpt><trkpt lat="39.11647966918389" lon="16.7058016903232"><ele>1121.0</ele><time>2026-04-11T13:01:07Z</time></trkpt><trkpt lat="39.1164571592081" lon="16.70548224440879"><ele>1122.0</ele><time>2026-04-11T13:01:08Z</time></trkpt><trkpt lat="39.11652990835306" lon="16.705255982318906"><ele>1126.4</ele><time>2026-04-11T13:01:09Z</time></trkpt><trkpt lat="39.1165715959198" lon="16.70512153042931"><ele>1130.8000000000002</ele><time>2026-04-11T13:01:10Z</time></trkpt><trkpt lat="39.11660368851146" lon="16.704992626560315"><ele>1135.2</ele><time>2026-04-11T13:01:11Z</time></trkpt><trkpt lat="39.11663691696692" lon="16.704888702021464"><ele>1139.6000000000001</ele><time>2026-04-11T13:01:12Z</time></trkpt><trkpt lat="39.11666025476925" lon="16.704789404468197"><ele>1144.0</ele><time>2026-04-11T13:01:13Z</time></trkpt><trkpt lat="39.11668904325059" lon="16.70467777931132"><ele>1144.0</ele><time>2026-04-11T13:01:14Z</time></trkpt><trkpt lat="39.11671506478992" lon="16.704546644510888"><ele>1144.0</ele><time>2026-04-11T13:01:16Z</time></trkpt><trkpt lat="39.116744892940396" lon="16.704456229289505"><ele>1144.0</ele><time>2026-04-11T13:01:18Z</time></trkpt><trkpt lat="39.11677657604262" lon="16.704375550909152"><ele>1144.0</ele><time>2026-04-11T13:01:21Z</time></trkpt><trkpt lat="39.116702961069464" lon="16.704466530434722"><ele>1144.0</ele><time>2026-04-11T13:01:29Z</time></trkpt><trkpt lat="39.116673291359696" lon="16.704548929848972"><ele>1144.0</ele><time>2026-04-11T13:01:32Z</time></trkpt><trkpt lat="39.11661526384408" lon="16.70463848761388"><ele>1135.0</ele><time>2026-04-11T13:01:35Z</time></trkpt><trkpt lat="39.11653798079599" lon="16.704812761881428"><ele>1126.0</ele><time>2026-04-11T13:01:39Z</time></trkpt><trkpt lat="39.11641188094422" lon="16.705042662534726"><ele>1117.0</ele><time>2026-04-11T13:01:40Z</time></trkpt><trkpt lat="39.1163492984169" lon="16.705185315608716"><ele>1118.0</ele><time>2026-04-11T13:01:41Z</time></trkpt><trkpt lat="39.116273506678866" lon="16.70533218013094"><ele>1119.0</ele><time>2026-04-11T13:01:42Z</time></trkpt><trkpt lat="39.11619765740017" lon="16.705433464560144"><ele>1120.0</ele><time>2026-04-11T13:01:43Z</time></trkpt><trkpt lat="39.11614032500726" lon="16.70551779275944"><ele>1121.0</ele><time>2026-04-11T13:01:44Z</time></trkpt><trkpt lat="39.116098086998434" lon="16.70562261802089"><ele>1122.0</ele><time>2026-04-11T13:01:45Z</time></trkpt><trkpt lat="39.11610564324828" lon="16.705742351029407"><ele>1122.0</ele><time>2026-04-11T13:01:46Z</time></trkpt><trkpt lat="39.11613296855843" lon="16.705909066253987"><ele>1122.0</ele><time>2026-04-11T13:01:48Z</time></trkpt><trkpt lat="39.11619883951588" lon="16.705981596941164"><ele>1122.0</ele><time>2026-04-11T13:01:49Z</time></trkpt><trkpt lat="39.1162451939134" lon="16.70605344676228"><ele>1122.0</ele><time>2026-04-11T13:01:50Z</time></trkpt><trkpt lat="39.11630489376072" lon="16.70616018388907"><ele>1122.0</ele><time>2026-04-11T13:01:51Z</time></trkpt><trkpt lat="39.11640352146452" lon="16.706271819586306"><ele>1121.4</ele><time>2026-04-11T13:01:52Z</time></trkpt><trkpt lat="39.11648055129482" lon="16.70633788912338"><ele>1120.8000000000002</ele><time>2026-04-11T13:01:53Z</time></trkpt><trkpt lat="39.116549795021385" lon="16.70642591932048"><ele>1120.2</ele><time>2026-04-11T13:01:54Z</time></trkpt><trkpt lat="39.1166582671423" lon="16.70648423980542"><ele>1119.6000000000001</ele><time>2026-04-11T13:01:55Z</time></trkpt><trkpt lat="39.116746279155215" lon="16.706466660315343"><ele>1119.0</ele><time>2026-04-11T13:01:56Z</time></trkpt><trkpt lat="39.11681441406525" lon="16.70645652981531"><ele>1122.1666666666667</ele><time>2026-04-11T13:01:57Z</time></trkpt><trkpt lat="39.11689516073589" lon="16.70642936995018"><ele>1125.3333333333333</ele><time>2026-04-11T13:01:58Z</time></trkpt><trkpt lat="39.11699646298689" lon="16.706428190716416"><ele>1128.5</ele><time>2026-04-11T13:01:59Z</time></trkpt><trkpt lat="39.117082097122896" lon="16.706433572221275"><ele>1131.6666666666665</ele><time>2026-04-11T13:02:00Z</time></trkpt><trkpt lat="39.11716010364238" lon="16.706466093614157"><ele>1134.8333333333333</ele><time>2026-04-11T13:02:01Z</time></trkpt><trkpt lat="39.11722401819163" lon="16.706528611753388"><ele>1138.0</ele><time>2026-04-11T13:02:02Z</time></trkpt><trkpt lat="39.11728534677135" lon="16.706636462666562"><ele>1138.0</ele><time>2026-04-11T13:02:03Z</time></trkpt><trkpt lat="39.11730824354568" lon="16.706735587635606"><ele>1138.0</ele><time>2026-04-11T13:02:04Z</time></trkpt><trkpt lat="39.11734657830179" lon="16.70682663428239"><ele>1138.0</ele><time>2026-04-11T13:02:05Z</time></trkpt><trkpt lat="39.11738571907017" lon="16.706897268712908"><ele>1138.0</ele><time>2026-04-11T13:02:06Z</time></trkpt><trkpt lat="39.1174325335443" lon="16.706966622879733"><ele>1138.0</ele><time>2026-04-11T13:02:07Z</time></trkpt><trkpt lat="39.11749532144254" lon="16.707034342998465"><ele>1138.0</ele><time>2026-04-11T13:02:08Z</time></trkpt><trkpt lat="39.11756000717357" lon="16.70708728577879"><ele>1137.0</ele><time>2026-04-11T13:02:09Z</time></trkpt><trkpt lat="39.1176339781201" lon="16.707129431172984"><ele>1136.0</ele><time>2026-04-11T13:02:10Z</time></trkpt><trkpt lat="39.11771091198696" lon="16.70715579697142"><ele>1135.0</ele><time>2026-04-11T13:02:11Z</time></trkpt><trkpt lat="39.117780829385524" lon="16.707181884203912"><ele>1134.0</ele><time>2026-04-11T13:02:12Z</time></trkpt><trkpt lat="39.117877632373144" lon="16.707175573481482"><ele>1133.0</ele><time>2026-04-11T13:02:14Z</time></trkpt><trkpt lat="39.117969357440366" lon="16.707072030195196"><ele>1133.0</ele><time>2026-04-11T13:02:16Z</time></trkpt><trkpt lat="39.11802043001224" lon="16.70699547954879"><ele>1133.0</ele><time>2026-04-11T13:02:17Z</time></trkpt><trkpt lat="39.118059623635915" lon="16.706918998571005"><ele>1133.0</ele><time>2026-04-11T13:02:18Z</time></trkpt><trkpt lat="39.11812580631045" lon="16.70682041502952"><ele>1133.0</ele><time>2026-04-11T13:02:20Z</time></trkpt><trkpt lat="39.118184364071396" lon="16.706725400954852"><ele>1133.0</ele><time>2026-04-11T13:02:21.999Z</time></trkpt><trkpt lat="39.1182337593491" lon="16.706909393528004"><ele>1133.0</ele><time>2026-04-11T13:02:24.999Z</time></trkpt><trkpt lat="39.11824187537177" lon="16.70701552386745"><ele>1133.0</ele><time>2026-04-11T13:02:25.999Z</time></trkpt><trkpt lat="39.11820014400063" lon="16.707110563170183"><ele>1133.0</ele><time>2026-04-11T13:02:26.999Z</time></trkpt><trkpt lat="39.1181557802424" lon="16.70721514105838"><ele>1133.0</ele><time>2026-04-11T13:02:27.999Z</time></trkpt><trkpt lat="39.11806830045441" lon="16.70733386516631"><ele>1133.0</ele><time>2026-04-11T13:02:28.999Z</time></trkpt><trkpt lat="39.11806540328583" lon="16.70743309068161"><ele>1133.0</ele><time>2026-04-11T13:02:29.999Z</time></trkpt><trkpt lat="39.11801118894794" lon="16.707574743030577"><ele>1133.0</ele><time>2026-04-11T13:02:32Z</time></trkpt><trkpt lat="39.11799772152864" lon="16.70767403285696"><ele>1133.0</ele><time>2026-04-11T13:02:33Z</time></trkpt><trkpt lat="39.11789653319414" lon="16.707761472040726"><ele>1133.0</ele><time>2026-04-11T13:02:35Z</time></trkpt><trkpt lat="39.11787028819263" lon="16.7078567846922"><ele>1133.0</ele><time>2026-04-11T13:02:36Z</time></trkpt><trkpt lat="39.117813917683264" lon="16.707924479525538"><ele>1135.2</ele><time>2026-04-11T13:02:37Z</time></trkpt><trkpt lat="39.11776825493891" lon="16.708025921252162"><ele>1137.4</ele><time>2026-04-11T13:02:38Z</time></trkpt><trkpt lat="39.117726026285034" lon="16.708149557974842"><ele>1139.6000000000001</ele><time>2026-04-11T13:02:39Z</time></trkpt><trkpt lat="39.11769659617834" lon="16.708250781441052"><ele>1141.8</ele><time>2026-04-11T13:02:40Z</time></trkpt><trkpt lat="39.1177111093886" lon="16.70838516363221"><ele>1144.0</ele><time>2026-04-11T13:02:41Z</time></trkpt><trkpt lat="39.117690284299144" lon="16.708492511272766"><ele>1147.3333333333333</ele><time>2026-04-11T13:02:42Z</time></trkpt><trkpt lat="39.11767341980082" lon="16.70859987850472"><ele>1150.6666666666665</ele><time>2026-04-11T13:02:43Z</time></trkpt><trkpt lat="39.11766309825433" lon="16.708698945626796"><ele>1154.0</ele><time>2026-04-11T13:02:44Z</time></trkpt><trkpt lat="39.11765549660818" lon="16.708796015891938"><ele>1157.3333333333333</ele><time>2026-04-11T13:02:45Z</time></trkpt><trkpt lat="39.11766371738774" lon="16.708900612885653"><ele>1160.6666666666667</ele><time>2026-04-11T13:02:46Z</time></trkpt><trkpt lat="39.11765868655748" lon="16.708991318464342"><ele>1164.0</ele><time>2026-04-11T13:02:47Z</time></trkpt><trkpt lat="39.11767911849835" lon="16.709084153932487"><ele>1164.0</ele><time>2026-04-11T13:02:48Z</time></trkpt><trkpt lat="39.11771244948357" lon="16.709157462430028"><ele>1164.0</ele><time>2026-04-11T13:02:49Z</time></trkpt><trkpt lat="39.1177632175746" lon="16.70921159303671"><ele>1164.0</ele><time>2026-04-11T13:02:50Z</time></trkpt><trkpt lat="39.1178162249453" lon="16.709267834040237"><ele>1164.0</ele><time>2026-04-11T13:02:51Z</time></trkpt><trkpt lat="39.11788130789941" lon="16.70932449655944"><ele>1164.0</ele><time>2026-04-11T13:02:52Z</time></trkpt><trkpt lat="39.11795393674647" lon="16.709371481982792"><ele>1164.0</ele><time>2026-04-11T13:02:53Z</time></trkpt><trkpt lat="39.11803087157874" lon="16.70940696562226"><ele>1164.0</ele><time>2026-04-11T13:02:54Z</time></trkpt><trkpt lat="39.11808135198839" lon="16.70946165775996"><ele>1167.6000000000001</ele><time>2026-04-11T13:02:55Z</time></trkpt><trkpt lat="39.11808407812453" lon="16.709560311313783"><ele>1171.2</ele><time>2026-04-11T13:02:56Z</time></trkpt><trkpt lat="39.11807630071763" lon="16.70967168151175"><ele>1174.8000000000002</ele><time>2026-04-11T13:02:58Z</time></trkpt><trkpt lat="39.117984871134105" lon="16.709785578686077"><ele>1178.4</ele><time>2026-04-11T13:03:00Z</time></trkpt><trkpt lat="39.11790470731222" lon="16.709867685187348"><ele>1182.0</ele><time>2026-04-11T13:03:01Z</time></trkpt><trkpt lat="39.11785847076618" lon="16.709949922287407"><ele>1182.0</ele><time>2026-04-11T13:03:02Z</time></trkpt><trkpt lat="39.11780167561079" lon="16.71001366568483"><ele>1182.0</ele><time>2026-04-11T13:03:03Z</time></trkpt><trkpt lat="39.11776144984523" lon="16.710169952241316"><ele>1182.0</ele><time>2026-04-11T13:03:05Z</time></trkpt><trkpt lat="39.11780112992448" lon="16.71027329133649"><ele>1182.0</ele><time>2026-04-11T13:03:06Z</time></trkpt><trkpt lat="39.11782519903603" lon="16.710393228952388"><ele>1182.0</ele><time>2026-04-11T13:03:07Z</time></trkpt><trkpt lat="39.11782065558526" lon="16.7104948604766"><ele>1186.0</ele><time>2026-04-11T13:03:08Z</time></trkpt><trkpt lat="39.117797630476346" lon="16.71058559646652"><ele>1190.0</ele><time>2026-04-11T13:03:09Z</time></trkpt><trkpt lat="39.1177752559772" lon="16.710664558294678"><ele>1194.0</ele><time>2026-04-11T13:03:10Z</time></trkpt><trkpt lat="39.11772416043822" lon="16.710762928856088"><ele>1198.0</ele><time>2026-04-11T13:03:12Z</time></trkpt><trkpt lat="39.11769368068436" lon="16.710848750911964"><ele>1202.0</ele><time>2026-04-11T13:03:13Z</time></trkpt><trkpt lat="39.11764352280845" lon="16.710966289549596"><ele>1206.0</ele><time>2026-04-11T13:03:15Z</time></trkpt><trkpt lat="39.11760474437389" lon="16.711058207374506"><ele>1206.0</ele><time>2026-04-11T13:03:17Z</time></trkpt><trkpt lat="39.11749470691931" lon="16.711052305136874"><ele>1206.0</ele><time>2026-04-11T13:03:18Z</time></trkpt><trkpt lat="39.117407193430765" lon="16.711039557365904"><ele>1206.0</ele><time>2026-04-11T13:03:19Z</time></trkpt><trkpt lat="39.117399446442725" lon="16.711135506386125"><ele>1206.0</ele><time>2026-04-11T13:03:22Z</time></trkpt><trkpt lat="39.11740486544641" lon="16.71122693378673"><ele>1206.0</ele><time>2026-04-11T13:03:23Z</time></trkpt><trkpt lat="39.117400106803906" lon="16.711384261182374"><ele>1202.8</ele><time>2026-04-11T13:03:25Z</time></trkpt><trkpt lat="39.11739611495043" lon="16.711532990120684"><ele>1199.6</ele><time>2026-04-11T13:03:27Z</time></trkpt><trkpt lat="39.11738988787859" lon="16.711627409551202"><ele>1196.4</ele><time>2026-04-11T13:03:28Z</time></trkpt><trkpt lat="39.11747272177856" lon="16.711754673343165"><ele>1193.2</ele><time>2026-04-11T13:03:30Z</time></trkpt><trkpt lat="39.11754108508067" lon="16.711798339591706"><ele>1190.0</ele><time>2026-04-11T13:03:31Z</time></trkpt><trkpt lat="39.11763031556412" lon="16.711853315593174"><ele>1196.2</ele><time>2026-04-11T13:03:32Z</time></trkpt><trkpt lat="39.117731238769544" lon="16.711878885960946"><ele>1202.4</ele><time>2026-04-11T13:03:33Z</time></trkpt><trkpt lat="39.11787567274959" lon="16.711920595414195"><ele>1208.6</ele><time>2026-04-11T13:03:34Z</time></trkpt><trkpt lat="39.11795661779107" lon="16.712018133622298"><ele>1214.8</ele><time>2026-04-11T13:03:35Z</time></trkpt><trkpt lat="39.118009001222816" lon="16.712082803492752"><ele>1221.0</ele><time>2026-04-11T13:03:36Z</time></trkpt><trkpt lat="39.118114385488425" lon="16.712240793805478"><ele>1221.0</ele><time>2026-04-11T13:03:38Z</time></trkpt><trkpt lat="39.11821457997992" lon="16.712404165960038"><ele>1221.0</ele><time>2026-04-11T13:03:39Z</time></trkpt><trkpt lat="39.118235864894835" lon="16.71250174905464"><ele>1221.0</ele><time>2026-04-11T13:03:40Z</time></trkpt><trkpt lat="39.11818589621085" lon="16.712373203066587"><ele>1221.0</ele><time>2026-04-11T13:03:42Z</time></trkpt><trkpt lat="39.1182332329401" lon="16.712296053812654"><ele>1221.0</ele><time>2026-04-11T13:03:43Z</time></trkpt><trkpt lat="39.11823151145076" lon="16.712180208480607"><ele>1225.0</ele><time>2026-04-11T13:03:45Z</time></trkpt><trkpt lat="39.118297825174885" lon="16.712202895859676"><ele>1229.0</ele><time>2026-04-11T13:03:46Z</time></trkpt><trkpt lat="39.11833205844804" lon="16.71237749960235"><ele>1233.0</ele><time>2026-04-11T13:03:49Z</time></trkpt><trkpt lat="39.11834993851748" lon="16.71247040160151"><ele>1237.0</ele><time>2026-04-11T13:03:50Z</time></trkpt><trkpt lat="39.118386712386844" lon="16.712552406246402"><ele>1241.0</ele><time>2026-04-11T13:03:51Z</time></trkpt><trkpt lat="39.11838131928432" lon="16.71265064396675"><ele>1245.0</ele><time>2026-04-11T13:03:52Z</time></trkpt><trkpt lat="39.11840075131538" lon="16.712744937075993"><ele>1245.0</ele><time>2026-04-11T13:03:53Z</time></trkpt><trkpt lat="39.11842841852328" lon="16.712880271121833"><ele>1245.0</ele><time>2026-04-11T13:03:54Z</time></trkpt><trkpt lat="39.118438655502544" lon="16.71299580807724"><ele>1245.0</ele><time>2026-04-11T13:03:55Z</time></trkpt><trkpt lat="39.118528718931984" lon="16.713150475050888"><ele>1245.0</ele><time>2026-04-11T13:03:57Z</time></trkpt><trkpt lat="39.11855379954873" lon="16.713251167789142"><ele>1245.0</ele><time>2026-04-11T13:03:58Z</time></trkpt><trkpt lat="39.118587686295236" lon="16.713354627759355"><ele>1245.0</ele><time>2026-04-11T13:03:59Z</time></trkpt><trkpt lat="39.118610120032535" lon="16.713473122369653"><ele>1245.0</ele><time>2026-04-11T13:04:00Z</time></trkpt><trkpt lat="39.11865469942236" lon="16.713557452872823"><ele>1245.0</ele><time>2026-04-11T13:04:01Z</time></trkpt><trkpt lat="39.11865080459174" lon="16.71367004021549"><ele>1245.0</ele><time>2026-04-11T13:04:02Z</time></trkpt><trkpt lat="39.1186685997077" lon="16.713792314328845"><ele>1245.0</ele><time>2026-04-11T13:04:04Z</time></trkpt><trkpt lat="39.11864332500391" lon="16.713891724596845"><ele>1245.0</ele><time>2026-04-11T13:04:06Z</time></trkpt><trkpt lat="39.11864758897989" lon="16.714005285661194"><ele>1246.6</ele><time>2026-04-11T13:04:07Z</time></trkpt><trkpt lat="39.118579158569794" lon="16.714095541354645"><ele>1248.2</ele><time>2026-04-11T13:04:08Z</time></trkpt><trkpt lat="39.11852318156396" lon="16.71416686156641"><ele>1249.8</ele><time>2026-04-11T13:04:08.999Z</time></trkpt><trkpt lat="39.118431571067475" lon="16.71427335092513"><ele>1251.4</ele><time>2026-04-11T13:04:09.999Z</time></trkpt><trkpt lat="39.11835646799172" lon="16.71434103627582"><ele>1253.0</ele><time>2026-04-11T13:04:10.999Z</time></trkpt><trkpt lat="39.11814899247737" lon="16.714466973020865"><ele>1245.25</ele><time>2026-04-11T13:04:11.999Z</time></trkpt><trkpt lat="39.118007443882185" lon="16.71452416857306"><ele>1237.5</ele><time>2026-04-11T13:04:12.999Z</time></trkpt><trkpt lat="39.11789518413543" lon="16.714622792837535"><ele>1229.75</ele><time>2026-04-11T13:04:13.999Z</time></trkpt><trkpt lat="39.11784568977722" lon="16.71471352615166"><ele>1222.0</ele><time>2026-04-11T13:04:14.999Z</time></trkpt><trkpt lat="39.11781066610744" lon="16.71482218257277"><ele>1222.0</ele><time>2026-04-11T13:04:15.999Z</time></trkpt><trkpt lat="39.11776540418859" lon="16.71491503942301"><ele>1222.0</ele><time>2026-04-11T13:04:16.999Z</time></trkpt><trkpt lat="39.11775381537419" lon="16.71500096088472"><ele>1222.0</ele><time>2026-04-11T13:04:17.999Z</time></trkpt><trkpt lat="39.11777487081989" lon="16.715155433707668"><ele>1222.0</ele><time>2026-04-11T13:04:18.999Z</time></trkpt><trkpt lat="39.1178626711025" lon="16.715236284997495"><ele>1222.0</ele><time>2026-04-11T13:04:19.999Z</time></trkpt><trkpt lat="39.117928420990985" lon="16.715402437611736"><ele>1222.25</ele><time>2026-04-11T13:04:20.999Z</time></trkpt><trkpt lat="39.118054974282764" lon="16.715525566847074"><ele>1222.5</ele><time>2026-04-11T13:04:21.999Z</time></trkpt><trkpt lat="39.11815380486779" lon="16.71555715096329"><ele>1222.75</ele><time>2026-04-11T13:04:22.999Z</time></trkpt><trkpt lat="39.11826289235133" lon="16.71558415058199"><ele>1223.0</ele><time>2026-04-11T13:04:23.999Z</time></trkpt><trkpt lat="39.11845168502121" lon="16.715590628263875"><ele>1229.0</ele><time>2026-04-11T13:04:24.999Z</time></trkpt><trkpt lat="39.11854334962842" lon="16.71571564671866"><ele>1235.0</ele><time>2026-04-11T13:04:25.999Z</time></trkpt><trkpt lat="39.118657755588856" lon="16.715825976684602"><ele>1241.0</ele><time>2026-04-11T13:04:26.999Z</time></trkpt><trkpt lat="39.118764401703196" lon="16.71592578531881"><ele>1247.0</ele><time>2026-04-11T13:04:27.999Z</time></trkpt><trkpt lat="39.11884642449102" lon="16.71601409763669"><ele>1247.75</ele><time>2026-04-11T13:04:28.999Z</time></trkpt><trkpt lat="39.118921657307936" lon="16.716093201176466"><ele>1248.5</ele><time>2026-04-11T13:04:29.999Z</time></trkpt><trkpt lat="39.11901917544235" lon="16.716191827173866"><ele>1249.25</ele><time>2026-04-11T13:04:30.999Z</time></trkpt><trkpt lat="39.11916737805739" lon="16.716334351844225"><ele>1250.0</ele><time>2026-04-11T13:04:31.999Z</time></trkpt><trkpt lat="39.11931718526718" lon="16.716471776015176"><ele>1250.0</ele><time>2026-04-11T13:04:32.999Z</time></trkpt><trkpt lat="39.11941930236142" lon="16.716555896814633"><ele>1250.0</ele><time>2026-04-11T13:04:33.999Z</time></trkpt><trkpt lat="39.1195383247076" lon="16.716634506718975"><ele>1250.0</ele><time>2026-04-11T13:04:34.999Z</time></trkpt><trkpt lat="39.1196667919336" lon="16.71674326024087"><ele>1250.0</ele><time>2026-04-11T13:04:35.999Z</time></trkpt><trkpt lat="39.119774551294" lon="16.71682247325178"><ele>1247.0</ele><time>2026-04-11T13:04:36.999Z</time></trkpt><trkpt lat="39.11989827789425" lon="16.716928885799017"><ele>1244.0</ele><time>2026-04-11T13:04:38Z</time></trkpt><trkpt lat="39.119994227629654" lon="16.717015916220674"><ele>1241.0</ele><time>2026-04-11T13:04:39Z</time></trkpt><trkpt lat="39.12009537667942" lon="16.717066237467794"><ele>1238.0</ele><time>2026-04-11T13:04:40Z</time></trkpt><trkpt lat="39.120187036044875" lon="16.717096066914788"><ele>1238.0</ele><time>2026-04-11T13:04:41Z</time></trkpt><trkpt lat="39.1203162983061" lon="16.717113034450776"><ele>1238.0</ele><time>2026-04-11T13:04:42Z</time></trkpt><trkpt lat="39.12043869673102" lon="16.717121629391055"><ele>1238.0</ele><time>2026-04-11T13:04:43Z</time></trkpt><trkpt lat="39.12056660169235" lon="16.717117212994044"><ele>1238.0</ele><time>2026-04-11T13:04:44Z</time></trkpt><trkpt lat="39.120704938577575" lon="16.71713360225279"><ele>1242.4</ele><time>2026-04-11T13:04:45Z</time></trkpt><trkpt lat="39.1208200852804" lon="16.717151884074312"><ele>1246.8</ele><time>2026-04-11T13:04:46Z</time></trkpt><trkpt lat="39.120907106333874" lon="16.717159903659244"><ele>1251.2</ele><time>2026-04-11T13:04:47Z</time></trkpt><trkpt lat="39.12100347837798" lon="16.717183518519985"><ele>1255.6</ele><time>2026-04-11T13:04:48Z</time></trkpt><trkpt lat="39.12112993056083" lon="16.71722640989355"><ele>1260.0</ele><time>2026-04-11T13:04:49Z</time></trkpt><trkpt lat="39.121251817514015" lon="16.717259974865147"><ele>1260.0</ele><time>2026-04-11T13:04:50Z</time></trkpt><trkpt lat="39.12133636493837" lon="16.717288866357173"><ele>1260.0</ele><time>2026-04-11T13:04:51Z</time></trkpt><trkpt lat="39.121412373965256" lon="16.71733154744686"><ele>1260.0</ele><time>2026-04-11T13:04:52Z</time></trkpt><trkpt lat="39.12153328023465" lon="16.717406046863495"><ele>1260.0</ele><time>2026-04-11T13:04:53Z</time></trkpt><trkpt lat="39.12166819574771" lon="16.71748119548991"><ele>1263.0</ele><time>2026-04-11T13:04:54Z</time></trkpt><trkpt lat="39.12178063841324" lon="16.717556090833543"><ele>1266.0</ele><time>2026-04-11T13:04:55Z</time></trkpt><trkpt lat="39.12186200474633" lon="16.717627102122744"><ele>1269.0</ele><time>2026-04-11T13:04:56Z</time></trkpt><trkpt lat="39.12198041851715" lon="16.717703381557516"><ele>1272.0</ele><time>2026-04-11T13:04:57Z</time></trkpt><trkpt lat="39.1220857252947" lon="16.717752249721894"><ele>1272.0</ele><time>2026-04-11T13:04:58Z</time></trkpt><trkpt lat="39.12218025508187" lon="16.717745581298264"><ele>1272.0</ele><time>2026-04-11T13:04:59Z</time></trkpt><trkpt lat="39.12227818066881" lon="16.717729152358526"><ele>1272.0</ele><time>2026-04-11T13:05:00Z</time></trkpt><trkpt lat="39.122355097790994" lon="16.71767358151742"><ele>1272.0</ele><time>2026-04-11T13:05:01Z</time></trkpt><trkpt lat="39.122438184919275" lon="16.717615840734652"><ele>1272.0</ele><time>2026-04-11T13:05:02Z</time></trkpt><trkpt lat="39.122545071720786" lon="16.71756471533543"><ele>1275.2</ele><time>2026-04-11T13:05:02.999Z</time></trkpt><trkpt lat="39.122697663338016" lon="16.717547113373026"><ele>1278.4</ele><time>2026-04-11T13:05:03.999Z</time></trkpt><trkpt lat="39.12280029574127" lon="16.717592382928014"><ele>1281.6000000000001</ele><time>2026-04-11T13:05:04.999Z</time></trkpt><trkpt lat="39.12286795444045" lon="16.717657204294444"><ele>1284.8000000000002</ele><time>2026-04-11T13:05:06.999Z</time></trkpt><trkpt lat="39.122888848381834" lon="16.717783648829343"><ele>1288.0</ele><time>2026-04-11T13:05:08.999Z</time></trkpt><trkpt lat="39.12293123116183" lon="16.71787450353953"><ele>1277.0</ele><time>2026-04-11T13:05:09.999Z</time></trkpt><trkpt lat="39.12299443392993" lon="16.71813793715857"><ele>1266.0</ele><time>2026-04-11T13:05:10.999Z</time></trkpt><trkpt lat="39.12300645476158" lon="16.718302712503043"><ele>1255.0</ele><time>2026-04-11T13:05:11.999Z</time></trkpt><trkpt lat="39.12300503475455" lon="16.718504720367385"><ele>1250.4</ele><time>2026-04-11T13:05:12.999Z</time></trkpt><trkpt lat="39.12302313527017" lon="16.718649016198704"><ele>1245.8</ele><time>2026-04-11T13:05:13.999Z</time></trkpt><trkpt lat="39.12304838612509" lon="16.718756313611376"><ele>1241.2</ele><time>2026-04-11T13:05:14.999Z</time></trkpt><trkpt lat="39.12308578124588" lon="16.71887636252861"><ele>1236.6</ele><time>2026-04-11T13:05:15.999Z</time></trkpt><trkpt lat="39.123163237012335" lon="16.718990655695503"><ele>1232.0</ele><time>2026-04-11T13:05:16.999Z</time></trkpt><trkpt lat="39.12325902413188" lon="16.719097782312208"><ele>1237.75</ele><time>2026-04-11T13:05:17.999Z</time></trkpt><trkpt lat="39.1233585066862" lon="16.719239323477588"><ele>1243.5</ele><time>2026-04-11T13:05:18.999Z</time></trkpt><trkpt lat="39.123416771610074" lon="16.719377864754062"><ele>1249.25</ele><time>2026-04-11T13:05:19.999Z</time></trkpt><trkpt lat="39.12346680021018" lon="16.719505787817553"><ele>1255.0</ele><time>2026-04-11T13:05:20.999Z</time></trkpt><trkpt lat="39.12350163194821" lon="16.719658459970027"><ele>1255.0</ele><time>2026-04-11T13:05:21.999Z</time></trkpt><trkpt lat="39.12353047011269" lon="16.719797882649303"><ele>1255.0</ele><time>2026-04-11T13:05:22.999Z</time></trkpt><trkpt lat="39.123576852192976" lon="16.719934172207143"><ele>1255.0</ele><time>2026-04-11T13:05:23.999Z</time></trkpt><trkpt lat="39.12364792227354" lon="16.720071547416914"><ele>1255.0</ele><time>2026-04-11T13:05:24.999Z</time></trkpt><trkpt lat="39.123678297557056" lon="16.720224313959992"><ele>1252.0</ele><time>2026-04-11T13:05:25.999Z</time></trkpt><trkpt lat="39.12369644354351" lon="16.72042735615112"><ele>1249.0</ele><time>2026-04-11T13:05:26.999Z</time></trkpt><trkpt lat="39.12369870789954" lon="16.72054959521208"><ele>1246.0</ele><time>2026-04-11T13:05:27.999Z</time></trkpt><trkpt lat="39.12370512017302" lon="16.720688023593205"><ele>1243.0</ele><time>2026-04-11T13:05:28.999Z</time></trkpt><trkpt lat="39.12371504224636" lon="16.720805498961536"><ele>1243.0</ele><time>2026-04-11T13:05:29.999Z</time></trkpt><trkpt lat="39.123732899571124" lon="16.720923666451014"><ele>1243.0</ele><time>2026-04-11T13:05:30.999Z</time></trkpt><trkpt lat="39.12376420704286" lon="16.72105059517735"><ele>1243.0</ele><time>2026-04-11T13:05:31.999Z</time></trkpt><trkpt lat="39.12380583932929" lon="16.721188229835924"><ele>1243.0</ele><time>2026-04-11T13:05:32.999Z</time></trkpt><trkpt lat="39.123851192463526" lon="16.72127310567258"><ele>1243.0</ele><time>2026-04-11T13:05:33.999Z</time></trkpt><trkpt lat="39.12393608997426" lon="16.721351048776786"><ele>1239.75</ele><time>2026-04-11T13:05:34.999Z</time></trkpt><trkpt lat="39.12402955128373" lon="16.72147618748118"><ele>1236.5</ele><time>2026-04-11T13:05:35.999Z</time></trkpt><trkpt lat="39.12409004223752" lon="16.721584271230036"><ele>1233.25</ele><time>2026-04-11T13:05:36.999Z</time></trkpt><trkpt lat="39.12414812154093" lon="16.721726575680588"><ele>1230.0</ele><time>2026-04-11T13:05:37.999Z</time></trkpt><trkpt lat="39.124227938255466" lon="16.721877870249077"><ele>1237.2</ele><time>2026-04-11T13:05:38.999Z</time></trkpt><trkpt lat="39.12428094652051" lon="16.722024367476337"><ele>1244.4</ele><time>2026-04-11T13:05:39.999Z</time></trkpt><trkpt lat="39.124347913051686" lon="16.722136689736338"><ele>1251.6</ele><time>2026-04-11T13:05:40.999Z</time></trkpt><trkpt lat="39.12439915885728" lon="16.722249021544684"><ele>1258.8</ele><time>2026-04-11T13:05:41.999Z</time></trkpt><trkpt lat="39.12443719729177" lon="16.722318996455794"><ele>1266.0</ele><time>2026-04-11T13:05:42.999Z</time></trkpt><trkpt lat="39.12447496246171" lon="16.722403365649313"><ele>1266.0</ele><time>2026-04-11T13:05:43.999Z</time></trkpt><trkpt lat="39.124530258822425" lon="16.722446848711076"><ele>1266.0</ele><time>2026-04-11T13:05:44.999Z</time></trkpt><trkpt lat="39.12460154106426" lon="16.722453272832325"><ele>1266.0</ele><time>2026-04-11T13:05:45.999Z</time></trkpt><trkpt lat="39.12466455591862" lon="16.722436042162535"><ele>1266.0</ele><time>2026-04-11T13:05:46.999Z</time></trkpt><trkpt lat="39.12470992142996" lon="16.72237408676705"><ele>1266.0</ele><time>2026-04-11T13:05:47.999Z</time></trkpt><trkpt lat="39.124749667909974" lon="16.722274988688614"><ele>1266.0</ele><time>2026-04-11T13:05:49.999Z</time></trkpt><trkpt lat="39.124751007982" lon="16.72218969561466"><ele>1266.0</ele><time>2026-04-11T13:06:35.999Z</time></trkpt><trkpt lat="39.1248185225111" lon="16.722067362297764"><ele>1266.0</ele><time>2026-04-11T13:06:37.999Z</time></trkpt><trkpt lat="39.12484563930034" lon="16.721986376086583"><ele>1266.0</ele><time>2026-04-11T13:06:38.999Z</time></trkpt><trkpt lat="39.12488469965518" lon="16.721901681951913"><ele>1266.0</ele><time>2026-04-11T13:06:39.999Z</time></trkpt><trkpt lat="39.12489980290154" lon="16.721810898480985"><ele>1266.0</ele><time>2026-04-11T13:06:40.999Z</time></trkpt><trkpt lat="39.12494461625339" lon="16.721715019898433"><ele>1266.0</ele><time>2026-04-11T13:06:41.999Z</time></trkpt><trkpt lat="39.12500353380084" lon="16.721624163412784"><ele>1266.0</ele><time>2026-04-11T13:06:42.999Z</time></trkpt><trkpt lat="39.12509592525609" lon="16.721597396007816"><ele>1273.5</ele><time>2026-04-11T13:06:44Z</time></trkpt><trkpt lat="39.125225892356525" lon="16.721662889827027"><ele>1281.0</ele><time>2026-04-11T13:06:45Z</time></trkpt><trkpt lat="39.12532920432067" lon="16.721687887157458"><ele>1288.5</ele><time>2026-04-11T13:06:46Z</time></trkpt><trkpt lat="39.125435847512776" lon="16.72171481599738"><ele>1296.0</ele><time>2026-04-11T13:06:47Z</time></trkpt><trkpt lat="39.12553975905369" lon="16.72162796900897"><ele>1296.0</ele><time>2026-04-11T13:06:48Z</time></trkpt><trkpt lat="39.1256077468891" lon="16.721606086956502"><ele>1296.0</ele><time>2026-04-11T13:06:49Z</time></trkpt><trkpt lat="39.12570428046175" lon="16.72157173520882"><ele>1296.0</ele><time>2026-04-11T13:06:50Z</time></trkpt><trkpt lat="39.12578753171003" lon="16.721470948500247"><ele>1296.0</ele><time>2026-04-11T13:06:51Z</time></trkpt><trkpt lat="39.125862465838985" lon="16.721370170775174"><ele>1296.0</ele><time>2026-04-11T13:06:52Z</time></trkpt><trkpt lat="39.125958309882876" lon="16.721315211205237"><ele>1294.5</ele><time>2026-04-11T13:06:53Z</time></trkpt><trkpt lat="39.126029084011684" lon="16.721214424437083"><ele>1293.0</ele><time>2026-04-11T13:06:54Z</time></trkpt><trkpt lat="39.12606726734364" lon="16.721107581286095"><ele>1291.5</ele><time>2026-04-11T13:06:55Z</time></trkpt><trkpt lat="39.12609501364355" lon="16.720900928751696"><ele>1290.0</ele><time>2026-04-11T13:06:56Z</time></trkpt><trkpt lat="39.12619268647533" lon="16.720792552602212"><ele>1293.75</ele><time>2026-04-11T13:06:57Z</time></trkpt><trkpt lat="39.126282341185004" lon="16.72067904630602"><ele>1297.5</ele><time>2026-04-11T13:06:58Z</time></trkpt><trkpt lat="39.12637461562763" lon="16.720561692136293"><ele>1301.25</ele><time>2026-04-11T13:06:59Z</time></trkpt><trkpt lat="39.12647390463266" lon="16.720426310595137"><ele>1305.0</ele><time>2026-04-11T13:07:00Z</time></trkpt><trkpt lat="39.12655693816816" lon="16.720305445202367"><ele>1304.5</ele><time>2026-04-11T13:07:01Z</time></trkpt><trkpt lat="39.12660561769228" lon="16.72021569063933"><ele>1304.0</ele><time>2026-04-11T13:07:02Z</time></trkpt><trkpt lat="39.1266504253508" lon="16.720125246631554"><ele>1303.5</ele><time>2026-04-11T13:07:03Z</time></trkpt><trkpt lat="39.126697557903654" lon="16.720027054611673"><ele>1303.0</ele><time>2026-04-11T13:07:04Z</time></trkpt><trkpt lat="39.12673969683352" lon="16.71993780377947"><ele>1302.5</ele><time>2026-04-11T13:07:06Z</time></trkpt><trkpt lat="39.12676266097486" lon="16.71985593949123"><ele>1302.0</ele><time>2026-04-11T13:07:09Z</time></trkpt><trkpt lat="39.12682838611002" lon="16.719794081788695"><ele>1302.0</ele><time>2026-04-11T13:07:10Z</time></trkpt><trkpt lat="39.12693053601374" lon="16.71970885541255"><ele>1302.0</ele><time>2026-04-11T13:07:13Z</time></trkpt><trkpt lat="39.12698895723054" lon="16.71965086638403"><ele>1302.0</ele><time>2026-04-11T13:07:15Z</time></trkpt><trkpt lat="39.12689471557331" lon="16.71934745880992"><ele>1302.0</ele><time>2026-04-11T13:07:17Z</time></trkpt><trkpt lat="39.12685150684043" lon="16.719285858061834"><ele>1302.0</ele><time>2026-04-11T13:07:21.999Z</time></trkpt><trkpt lat="39.1268874425681" lon="16.719201625142464"><ele>1302.0</ele><time>2026-04-11T13:07:22.999Z</time></trkpt><trkpt lat="39.12705369043838" lon="16.71919549961894"><ele>1302.0</ele><time>2026-04-11T13:07:25.999Z</time></trkpt><trkpt lat="39.127077171549224" lon="16.71929034328288"><ele>1302.0</ele><time>2026-04-11T13:07:29.999Z</time></trkpt><trkpt lat="39.12701830859552" lon="16.71935356368763"><ele>1302.0</ele><time>2026-04-11T13:07:40.999Z</time></trkpt><trkpt lat="39.12700321178802" lon="16.71943279840523"><ele>1302.0</ele><time>2026-04-11T13:07:47.999Z</time></trkpt><trkpt lat="39.12704344574006" lon="16.719513760278563"><ele>1302.0</ele><time>2026-04-11T13:13:10Z</time></trkpt><trkpt lat="39.12704318893321" lon="16.71937499739208"><ele>1302.0</ele><time>2026-04-11T13:13:35Z</time></trkpt><trkpt lat="39.1269689488307" lon="16.719439051146498"><ele>1302.0</ele><time>2026-04-11T13:13:55Z</time></trkpt><trkpt lat="39.12690702662694" lon="16.71951783899647"><ele>1302.0</ele><time>2026-04-11T13:14:00Z</time></trkpt><trkpt lat="39.126853327433" lon="16.719653903774514"><ele>1302.0</ele><time>2026-04-11T13:14:02Z</time></trkpt><trkpt lat="39.12679833085189" lon="16.71975436189122"><ele>1302.0</ele><time>2026-04-11T13:14:04Z</time></trkpt><trkpt lat="39.12676187361928" lon="16.7198555432851"><ele>1302.0</ele><time>2026-04-11T13:14:06Z</time></trkpt><trkpt lat="39.12679221380802" lon="16.719928104154928"><ele>1302.0</ele><time>2026-04-11T13:14:10Z</time></trkpt><trkpt lat="39.126792852128965" lon="16.71981226327693"><ele>1302.0</ele><time>2026-04-11T13:14:21.999Z</time></trkpt><trkpt lat="39.12678300062016" lon="16.719674780496998"><ele>1302.0</ele><time>2026-04-11T13:14:23.999Z</time></trkpt><trkpt lat="39.126815449172106" lon="16.71957907573855"><ele>1302.0</ele><time>2026-04-11T13:14:25.999Z</time></trkpt><trkpt lat="39.126845957611955" lon="16.719501987190313"><ele>1302.0</ele><time>2026-04-11T13:14:29.999Z</time></trkpt><trkpt lat="39.12690103755853" lon="16.719460915391668"><ele>1302.0</ele><time>2026-04-11T13:14:31.999Z</time></trkpt><trkpt lat="39.12700980608831" lon="16.719373889547857"><ele>1302.0</ele><time>2026-04-11T13:14:33.999Z</time></trkpt><trkpt lat="39.12711995590143" lon="16.719326076300046"><ele>1302.0</ele><time>2026-04-11T13:14:36.999Z</time></trkpt><trkpt lat="39.12718896145675" lon="16.719244325412387"><ele>1303.6666666666667</ele><time>2026-04-11T13:14:37.999Z</time></trkpt><trkpt lat="39.127236345868454" lon="16.7191086568292"><ele>1305.3333333333333</ele><time>2026-04-11T13:14:38.999Z</time></trkpt><trkpt lat="39.12725531768413" lon="16.71902667774926"><ele>1307.0</ele><time>2026-04-11T13:14:39.999Z</time></trkpt><trkpt lat="39.12731829439809" lon="16.718986277187316"><ele>1308.6666666666665</ele><time>2026-04-11T13:14:42.999Z</time></trkpt><trkpt lat="39.12738248966961" lon="16.719046660306688"><ele>1310.3333333333333</ele><time>2026-04-11T13:14:54.999Z</time></trkpt><trkpt lat="39.12742287640571" lon="16.71897135491183"><ele>1312.0</ele><time>2026-04-11T13:19:40Z</time></trkpt><trkpt lat="39.12746309406157" lon="16.71890516455501"><ele>1312.0</ele><time>2026-04-11T13:19:44Z</time></trkpt><trkpt lat="39.127492916940845" lon="16.718819554313146"><ele>1312.0</ele><time>2026-04-11T13:19:45Z</time></trkpt><trkpt lat="39.12756686093501" lon="16.718617635656056"><ele>1312.0</ele><time>2026-04-11T13:19:47Z</time></trkpt><trkpt lat="39.127606992781494" lon="16.71847404194432"><ele>1312.0</ele><time>2026-04-11T13:19:48Z</time></trkpt><trkpt lat="39.12765941920207" lon="16.718351674810332"><ele>1315.3999999999999</ele><time>2026-04-11T13:19:49Z</time></trkpt><trkpt lat="39.12770882305911" lon="16.71825484405929"><ele>1318.8</ele><time>2026-04-11T13:19:50Z</time></trkpt><trkpt lat="39.127738630652864" lon="16.718116359094154"><ele>1322.2</ele><time>2026-04-11T13:19:51Z</time></trkpt><trkpt lat="39.12775123131537" lon="16.718032886157506"><ele>1325.6</ele><time>2026-04-11T13:19:52Z</time></trkpt><trkpt lat="39.12777481799395" lon="16.71784387051843"><ele>1329.0</ele><time>2026-04-11T13:19:54Z</time></trkpt><trkpt lat="39.12775874277735" lon="16.717695899191416"><ele>1331.0</ele><time>2026-04-11T13:19:55Z</time></trkpt><trkpt lat="39.12774286064076" lon="16.71756424910115"><ele>1333.0</ele><time>2026-04-11T13:19:56Z</time></trkpt><trkpt lat="39.12777570665598" lon="16.71746654451549"><ele>1335.0</ele><time>2026-04-11T13:19:58Z</time></trkpt><trkpt lat="39.12776536034314" lon="16.71734964456083"><ele>1337.0</ele><time>2026-04-11T13:19:59Z</time></trkpt><trkpt lat="39.12776298671823" lon="16.717161050864647"><ele>1339.0</ele><time>2026-04-11T13:20:01Z</time></trkpt><trkpt lat="39.12771133409797" lon="16.71708747365571"><ele>1339.0</ele><time>2026-04-11T13:20:02Z</time></trkpt><trkpt lat="39.12763147092871" lon="16.717015222330083"><ele>1339.0</ele><time>2026-04-11T13:20:04Z</time></trkpt><trkpt lat="39.12758810638749" lon="16.716933952845295"><ele>1339.0</ele><time>2026-04-11T13:20:06Z</time></trkpt><trkpt lat="39.12754045776288" lon="16.716865898850656"><ele>1339.0</ele><time>2026-04-11T13:20:08Z</time></trkpt><trkpt lat="39.12747147324665" lon="16.716743182022963"><ele>1339.0</ele><time>2026-04-11T13:20:10Z</time></trkpt><trkpt lat="39.127435166977406" lon="16.716661529539113"><ele>1339.0</ele><time>2026-04-11T13:20:12Z</time></trkpt><trkpt lat="39.12740254143416" lon="16.716553257780596"><ele>1344.3333333333333</ele><time>2026-04-11T13:20:14Z</time></trkpt><trkpt lat="39.12736174856697" lon="16.716416936511276"><ele>1349.6666666666665</ele><time>2026-04-11T13:20:16Z</time></trkpt><trkpt lat="39.12729570749615" lon="16.716362524302568"><ele>1355.0</ele><time>2026-04-11T13:20:17Z</time></trkpt><trkpt lat="39.12728090312026" lon="16.716252150994677"><ele>1360.3333333333333</ele><time>2026-04-11T13:20:20Z</time></trkpt><trkpt lat="39.127274945678906" lon="16.71615562419969"><ele>1365.6666666666667</ele><time>2026-04-11T13:20:23Z</time></trkpt><trkpt lat="39.127182483928905" lon="16.716138675027896"><ele>1371.0</ele><time>2026-04-11T13:20:26Z</time></trkpt><trkpt lat="39.127114336899844" lon="16.716099958197248"><ele>1371.3333333333333</ele><time>2026-04-11T13:20:28Z</time></trkpt><trkpt lat="39.12705368543224" lon="16.716043849749237"><ele>1371.6666666666667</ele><time>2026-04-11T13:20:30Z</time></trkpt><trkpt lat="39.127038048485005" lon="16.71595816842888"><ele>1372.0</ele><time>2026-04-11T13:20:32Z</time></trkpt><trkpt lat="39.12699105928171" lon="16.71589295373454"><ele>1372.3333333333335</ele><time>2026-04-11T13:20:39Z</time></trkpt><trkpt lat="39.1269455248915" lon="16.715789780863144"><ele>1372.6666666666667</ele><time>2026-04-11T13:20:42Z</time></trkpt><trkpt lat="39.12689213231496" lon="16.715697725675252"><ele>1373.0</ele><time>2026-04-11T13:20:44Z</time></trkpt><trkpt lat="39.12698503824045" lon="16.715587165102686"><ele>1373.0</ele><time>2026-04-11T13:20:46Z</time></trkpt><trkpt lat="39.12702891225835" lon="16.71551952346852"><ele>1373.0</ele><time>2026-04-11T13:20:48Z</time></trkpt><trkpt lat="39.127056387037484" lon="16.715370637696356"><ele>1373.0</ele><time>2026-04-11T13:20:51Z</time></trkpt><trkpt lat="39.12701235981528" lon="16.715258811784235"><ele>1373.0</ele><time>2026-04-11T13:20:54Z</time></trkpt><trkpt lat="39.12695532517302" lon="16.715174255626877"><ele>1373.0</ele><time>2026-04-11T13:20:55Z</time></trkpt><trkpt lat="39.126870746673575" lon="16.715126184573535"><ele>1375.3333333333335</ele><time>2026-04-11T13:20:56Z</time></trkpt><trkpt lat="39.126803192781374" lon="16.715015629352735"><ele>1377.6666666666667</ele><time>2026-04-11T13:20:58Z</time></trkpt><trkpt lat="39.12672805370859" lon="16.714987636014005"><ele>1380.0</ele><time>2026-04-11T13:21:01Z</time></trkpt><trkpt lat="39.126663407458764" lon="16.714947801420415"><ele>1382.3333333333333</ele><time>2026-04-11T13:21:03Z</time></trkpt><trkpt lat="39.12665005975965" lon="16.714830627016777"><ele>1384.6666666666665</ele><time>2026-04-11T13:21:08Z</time></trkpt><trkpt lat="39.1266365846439" lon="16.714728573983223"><ele>1387.0</ele><time>2026-04-11T13:21:11Z</time></trkpt><trkpt lat="39.12657005735622" lon="16.714641108478276"><ele>1387.8</ele><time>2026-04-11T13:21:13Z</time></trkpt><trkpt lat="39.12649263933074" lon="16.71458464435377"><ele>1388.6</ele><time>2026-04-11T13:21:16Z</time></trkpt><trkpt lat="39.126487049266665" lon="16.71450173433033"><ele>1389.3999999999999</ele><time>2026-04-11T13:21:17.999Z</time></trkpt><trkpt lat="39.12640958078789" lon="16.71453320607825"><ele>1390.1999999999998</ele><time>2026-04-11T13:21:23Z</time></trkpt><trkpt lat="39.1262410895369" lon="16.714471670022117"><ele>1391.0</ele><time>2026-04-11T13:21:25Z</time></trkpt><trkpt lat="39.126126546197206" lon="16.714476825362123"><ele>1391.0</ele><time>2026-04-11T13:21:26Z</time></trkpt><trkpt lat="39.1260613466163" lon="16.714509924991518"><ele>1391.0</ele><time>2026-04-11T13:21:28Z</time></trkpt><trkpt lat="39.125992105836175" lon="16.714519625353383"><ele>1391.0</ele><time>2026-04-11T13:21:29Z</time></trkpt><trkpt lat="39.12592756685277" lon="16.71456817261673"><ele>1391.0</ele><time>2026-04-11T13:21:31Z</time></trkpt><trkpt lat="39.12591730568341" lon="16.714459930312472"><ele>1391.0</ele><time>2026-04-11T13:21:38Z</time></trkpt><trkpt lat="39.1261154745278" lon="16.714391444885777"><ele>1393.4</ele><time>2026-04-11T13:21:45Z</time></trkpt><trkpt lat="39.12620297037968" lon="16.714326190716296"><ele>1395.8</ele><time>2026-04-11T13:21:47Z</time></trkpt><trkpt lat="39.12625156309242" lon="16.714225012465704"><ele>1398.2</ele><time>2026-04-11T13:21:49Z</time></trkpt><trkpt lat="39.12628570066788" lon="16.714057745022895"><ele>1400.6000000000001</ele><time>2026-04-11T13:21:50Z</time></trkpt><trkpt lat="39.12628889740513" lon="16.71394074483687"><ele>1403.0</ele><time>2026-04-11T13:21:51Z</time></trkpt><trkpt lat="39.12620556492576" lon="16.71377462026873"><ele>1403.0</ele><time>2026-04-11T13:21:53Z</time></trkpt><trkpt lat="39.12614397166958" lon="16.713721720690028"><ele>1403.0</ele><time>2026-04-11T13:21:54Z</time></trkpt><trkpt lat="39.12611589838473" lon="16.71360893322027"><ele>1403.0</ele><time>2026-04-11T13:21:55Z</time></trkpt><trkpt lat="39.126091172278414" lon="16.713449744693516"><ele>1403.0</ele><time>2026-04-11T13:21:56Z</time></trkpt><trkpt lat="39.12605438932965" lon="16.713334835650837"><ele>1403.0</ele><time>2026-04-11T13:21:57Z</time></trkpt><trkpt lat="39.12603025728351" lon="16.71321264129121"><ele>1406.0</ele><time>2026-04-11T13:21:58Z</time></trkpt><trkpt lat="39.12597793365416" lon="16.713084545929355"><ele>1409.0</ele><time>2026-04-11T13:21:59Z</time></trkpt><trkpt lat="39.1259103645648" lon="16.712966234979792"><ele>1412.0</ele><time>2026-04-11T13:22:00Z</time></trkpt><trkpt lat="39.12586925971561" lon="16.712860013724416"><ele>1415.0</ele><time>2026-04-11T13:22:01Z</time></trkpt><trkpt lat="39.1258080993206" lon="16.71279263435852"><ele>1418.0</ele><time>2026-04-11T13:22:03Z</time></trkpt><trkpt lat="39.12577400571986" lon="16.71264365396264"><ele>1421.0</ele><time>2026-04-11T13:22:05Z</time></trkpt><trkpt lat="39.125876121547904" lon="16.712613439799455"><ele>1424.0</ele><time>2026-04-11T13:22:08Z</time></trkpt><trkpt lat="39.12587484935415" lon="16.71248515145327"><ele>1427.0</ele><time>2026-04-11T13:22:11Z</time></trkpt><trkpt lat="39.12583061727122" lon="16.71236235790582"><ele>1430.0</ele><time>2026-04-11T13:22:13Z</time></trkpt><trkpt lat="39.125873909552055" lon="16.71227469414776"><ele>1433.0</ele><time>2026-04-11T13:22:14Z</time></trkpt><trkpt lat="39.12596051393078" lon="16.7122496013413"><ele>1433.0</ele><time>2026-04-11T13:22:15Z</time></trkpt><trkpt lat="39.125999412613425" lon="16.7121359588715"><ele>1433.0</ele><time>2026-04-11T13:22:17Z</time></trkpt><trkpt lat="39.12607756100185" lon="16.711980728052513"><ele>1433.0</ele><time>2026-04-11T13:22:19Z</time></trkpt><trkpt lat="39.12611594310718" lon="16.711865577821577"><ele>1433.0</ele><time>2026-04-11T13:22:20Z</time></trkpt><trkpt lat="39.126161851037416" lon="16.711771208432694"><ele>1433.0</ele><time>2026-04-11T13:22:21Z</time></trkpt><trkpt lat="39.126174549456145" lon="16.711609662439987"><ele>1435.8000000000002</ele><time>2026-04-11T13:22:22Z</time></trkpt><trkpt lat="39.12618360263207" lon="16.71141761863593"><ele>1438.6</ele><time>2026-04-11T13:22:23Z</time></trkpt><trkpt lat="39.12620476566458" lon="16.71128277303914"><ele>1441.4</ele><time>2026-04-11T13:22:24Z</time></trkpt><trkpt lat="39.12624102267552" lon="16.711149397318053"><ele>1444.1999999999998</ele><time>2026-04-11T13:22:25Z</time></trkpt><trkpt lat="39.126263892084786" lon="16.711069400590954"><ele>1447.0</ele><time>2026-04-11T13:22:25.999Z</time></trkpt><trkpt lat="39.12627571773149" lon="16.710975491197743"><ele>1448.6</ele><time>2026-04-11T13:22:26.999Z</time></trkpt><trkpt lat="39.1262933342391" lon="16.710862171058977"><ele>1450.1999999999998</ele><time>2026-04-11T13:22:27.999Z</time></trkpt><trkpt lat="39.12629578039889" lon="16.71071206181805"><ele>1451.8</ele><time>2026-04-11T13:22:28.999Z</time></trkpt><trkpt lat="39.12628985315873" lon="16.71055767918084"><ele>1453.4</ele><time>2026-04-11T13:22:29.999Z</time></trkpt><trkpt lat="39.12630044203195" lon="16.710417391994383"><ele>1455.0</ele><time>2026-04-11T13:22:30.999Z</time></trkpt><trkpt lat="39.12631989763326" lon="16.71028241135331"><ele>1456.75</ele><time>2026-04-11T13:22:31.999Z</time></trkpt><trkpt lat="39.12632283293107" lon="16.71013773463955"><ele>1458.5</ele><time>2026-04-11T13:22:32.999Z</time></trkpt><trkpt lat="39.12633034898671" lon="16.70997912209627"><ele>1460.25</ele><time>2026-04-11T13:22:33.999Z</time></trkpt><trkpt lat="39.12629551445784" lon="16.709772815339104"><ele>1462.0</ele><time>2026-04-11T13:22:34.999Z</time></trkpt><trkpt lat="39.12625454339823" lon="16.709570595337"><ele>1462.0</ele><time>2026-04-11T13:22:35.999Z</time></trkpt><trkpt lat="39.126280316361296" lon="16.70949111715336"><ele>1462.0</ele><time>2026-04-11T13:22:36.999Z</time></trkpt><trkpt lat="39.12632800491106" lon="16.70940896489812"><ele>1462.0</ele><time>2026-04-11T13:22:37.999Z</time></trkpt><trkpt lat="39.12638973380603" lon="16.70934696480037"><ele>1462.0</ele><time>2026-04-11T13:22:38.999Z</time></trkpt><trkpt lat="39.12644120452353" lon="16.709257810893508"><ele>1462.0</ele><time>2026-04-11T13:22:39.999Z</time></trkpt><trkpt lat="39.12649053190536" lon="16.709186924794274"><ele>1462.0</ele><time>2026-04-11T13:22:40.999Z</time></trkpt><trkpt lat="39.12653128514964" lon="16.709105278945003"><ele>1460.8</ele><time>2026-04-11T13:22:41.999Z</time></trkpt><trkpt lat="39.12661091124664" lon="16.708969087561254"><ele>1459.6</ele><time>2026-04-11T13:22:43.999Z</time></trkpt><trkpt lat="39.12667561643488" lon="16.708877309316094"><ele>1458.3999999999999</ele><time>2026-04-11T13:22:45.999Z</time></trkpt><trkpt lat="39.12677033228476" lon="16.708789067000005"><ele>1457.1999999999998</ele><time>2026-04-11T13:22:47.999Z</time></trkpt><trkpt lat="39.1268303256781" lon="16.708757920134452"><ele>1456.0</ele><time>2026-04-11T13:22:48.999Z</time></trkpt><trkpt lat="39.126948430384516" lon="16.708688981159437"><ele>1456.0</ele><time>2026-04-11T13:22:50.999Z</time></trkpt><trkpt lat="39.12703518980046" lon="16.708634431946948"><ele>1456.0</ele><time>2026-04-11T13:22:51.999Z</time></trkpt><trkpt lat="39.12711719786664" lon="16.708583526457137"><ele>1456.0</ele><time>2026-04-11T13:22:52.999Z</time></trkpt><trkpt lat="39.127191988598554" lon="16.708459290756977"><ele>1456.0</ele><time>2026-04-11T13:22:54.999Z</time></trkpt><trkpt lat="39.12723024661052" lon="16.70838750471631"><ele>1456.0</ele><time>2026-04-11T13:22:55.999Z</time></trkpt><trkpt lat="39.12733248694508" lon="16.70829849770431"><ele>1457.5</ele><time>2026-04-11T13:22:57.999Z</time></trkpt><trkpt lat="39.12741222983883" lon="16.708279560218948"><ele>1459.0</ele><time>2026-04-11T13:22:58.999Z</time></trkpt><trkpt lat="39.12749609380031" lon="16.708273794510568"><ele>1460.5</ele><time>2026-04-11T13:22:59.999Z</time></trkpt><trkpt lat="39.127575910264" lon="16.708331394015527"><ele>1462.0</ele><time>2026-04-11T13:23:00.999Z</time></trkpt><trkpt lat="39.127633298418644" lon="16.70826069788348"><ele>1463.5</ele><time>2026-04-11T13:23:01.999Z</time></trkpt><trkpt lat="39.12766067447378" lon="16.708146434796788"><ele>1465.0</ele><time>2026-04-11T13:23:02.999Z</time></trkpt><trkpt lat="39.127674448320775" lon="16.708038837150024"><ele>1465.0</ele><time>2026-04-11T13:23:03.999Z</time></trkpt><trkpt lat="39.127707596476704" lon="16.7079173810906"><ele>1465.0</ele><time>2026-04-11T13:23:04.999Z</time></trkpt><trkpt lat="39.12773324901727" lon="16.70778823180245"><ele>1465.0</ele><time>2026-04-11T13:23:05.999Z</time></trkpt><trkpt lat="39.12776910069528" lon="16.707640400027802"><ele>1465.0</ele><time>2026-04-11T13:23:06.999Z</time></trkpt><trkpt lat="39.1278032698546" lon="16.70755749643115"><ele>1465.0</ele><time>2026-04-11T13:23:07.999Z</time></trkpt><trkpt lat="39.12787160948108" lon="16.70747490843832"><ele>1464.25</ele><time>2026-04-11T13:23:08.999Z</time></trkpt><trkpt lat="39.12793788455404" lon="16.707390274087327"><ele>1463.5</ele><time>2026-04-11T13:23:09.999Z</time></trkpt><trkpt lat="39.12799061154905" lon="16.707300388463377"><ele>1462.75</ele><time>2026-04-11T13:23:10.999Z</time></trkpt><trkpt lat="39.12811434282533" lon="16.707219676296916"><ele>1462.0</ele><time>2026-04-11T13:23:11.999Z</time></trkpt><trkpt lat="39.128248606522355" lon="16.70712676790344"><ele>1462.0</ele><time>2026-04-11T13:23:12.999Z</time></trkpt><trkpt lat="39.12837378171378" lon="16.707074627085625"><ele>1462.0</ele><time>2026-04-11T13:23:13.999Z</time></trkpt><trkpt lat="39.12848199025355" lon="16.70701042751711"><ele>1462.0</ele><time>2026-04-11T13:23:14.999Z</time></trkpt><trkpt lat="39.128547752215496" lon="16.70696120164479"><ele>1462.0</ele><time>2026-04-11T13:23:15.999Z</time></trkpt><trkpt lat="39.12858127662681" lon="16.706850586998016"><ele>1462.0</ele><time>2026-04-11T13:23:18.999Z</time></trkpt><trkpt lat="39.12861229781705" lon="16.706761748310146"><ele>1463.1999999999998</ele><time>2026-04-11T13:23:19.999Z</time></trkpt><trkpt lat="39.12865234866836" lon="16.70658527163052"><ele>1464.4</ele><time>2026-04-11T13:23:20.999Z</time></trkpt><trkpt lat="39.12868403588811" lon="16.706447658147784"><ele>1465.6</ele><time>2026-04-11T13:23:21.999Z</time></trkpt><trkpt lat="39.12869606981403" lon="16.706356978733115"><ele>1466.8000000000002</ele><time>2026-04-11T13:23:22.999Z</time></trkpt><trkpt lat="39.128746620114015" lon="16.706223274444262"><ele>1468.0</ele><time>2026-04-11T13:23:24.999Z</time></trkpt><trkpt lat="39.12880711596753" lon="16.70610367973306"><ele>1467.8000000000002</ele><time>2026-04-11T13:23:26.999Z</time></trkpt><trkpt lat="39.12887425184636" lon="16.70603803115534"><ele>1467.6</ele><time>2026-04-11T13:23:29Z</time></trkpt><trkpt lat="39.12895369534589" lon="16.706021187380735"><ele>1467.4</ele><time>2026-04-11T13:23:31Z</time></trkpt><trkpt lat="39.129053934126176" lon="16.706031231494475"><ele>1467.1999999999998</ele><time>2026-04-11T13:23:33Z</time></trkpt><trkpt lat="39.129122591905144" lon="16.705945551885435"><ele>1467.0</ele><time>2026-04-11T13:23:35Z</time></trkpt><trkpt lat="39.12915162708539" lon="16.70583583680088"><ele>1467.0</ele><time>2026-04-11T13:23:36Z</time></trkpt><trkpt lat="39.12913711582261" lon="16.70570388436245"><ele>1467.0</ele><time>2026-04-11T13:23:37Z</time></trkpt><trkpt lat="39.12923663097852" lon="16.705561787794462"><ele>1467.0</ele><time>2026-04-11T13:23:39Z</time></trkpt><trkpt lat="39.12932120314914" lon="16.705475971076204"><ele>1467.0</ele><time>2026-04-11T13:23:40Z</time></trkpt><trkpt lat="39.12938454362885" lon="16.70538317322373"><ele>1467.0</ele><time>2026-04-11T13:23:41Z</time></trkpt><trkpt lat="39.12943165973653" lon="16.705321933925653"><ele>1467.0</ele><time>2026-04-11T13:23:42Z</time></trkpt><trkpt lat="39.129444359913116" lon="16.705225858312946"><ele>1467.0</ele><time>2026-04-11T13:23:43Z</time></trkpt><trkpt lat="39.129409674923274" lon="16.705130953272235"><ele>1467.0</ele><time>2026-04-11T13:23:44Z</time></trkpt><trkpt lat="39.129357075003206" lon="16.70502424319727"><ele>1467.0</ele><time>2026-04-11T13:23:45Z</time></trkpt><trkpt lat="39.1292863769884" lon="16.70488312410667"><ele>1467.75</ele><time>2026-04-11T13:23:46Z</time></trkpt><trkpt lat="39.12923796375932" lon="16.704731828486686"><ele>1468.5</ele><time>2026-04-11T13:23:47Z</time></trkpt><trkpt lat="39.12916974732121" lon="16.70460663921688"><ele>1469.25</ele><time>2026-04-11T13:23:48Z</time></trkpt><trkpt lat="39.12904792658923" lon="16.704517885080083"><ele>1470.0</ele><time>2026-04-11T13:23:49Z</time></trkpt><trkpt lat="39.12893123171428" lon="16.704562007784933"><ele>1470.0</ele><time>2026-04-11T13:23:49.999Z</time></trkpt><trkpt lat="39.12877917342541" lon="16.70454630722108"><ele>1470.0</ele><time>2026-04-11T13:23:50.999Z</time></trkpt><trkpt lat="39.12860683320518" lon="16.704501535158123"><ele>1470.0</ele><time>2026-04-11T13:23:51.999Z</time></trkpt><trkpt lat="39.128502926541884" lon="16.704460965481196"><ele>1470.0</ele><time>2026-04-11T13:23:52.999Z</time></trkpt><trkpt lat="39.12837339037027" lon="16.704409565526856"><ele>1471.0</ele><time>2026-04-11T13:23:53.999Z</time></trkpt><trkpt lat="39.128328492991116" lon="16.70430254657601"><ele>1472.0</ele><time>2026-04-11T13:23:54.999Z</time></trkpt><trkpt lat="39.128192686205985" lon="16.70419026822663"><ele>1473.0</ele><time>2026-04-11T13:23:55.999Z</time></trkpt><trkpt lat="39.12800273936253" lon="16.704115214198364"><ele>1473.0</ele><time>2026-04-11T13:23:56.999Z</time></trkpt><trkpt lat="39.127880462878174" lon="16.703974421385812"><ele>1473.0</ele><time>2026-04-11T13:23:57.999Z</time></trkpt><trkpt lat="39.12784422978845" lon="16.70375723084876"><ele>1473.0</ele><time>2026-04-11T13:23:58.999Z</time></trkpt><trkpt lat="39.12777201890465" lon="16.703598722075057"><ele>1473.8000000000002</ele><time>2026-04-11T13:23:59.999Z</time></trkpt><trkpt lat="39.12769927437686" lon="16.70345021990519"><ele>1474.6</ele><time>2026-04-11T13:24:00.999Z</time></trkpt><trkpt lat="39.12766060552366" lon="16.703326995818962"><ele>1475.4</ele><time>2026-04-11T13:24:01.999Z</time></trkpt><trkpt lat="39.12773298855521" lon="16.703253446683597"><ele>1476.1999999999998</ele><time>2026-04-11T13:24:02.999Z</time></trkpt><trkpt lat="39.12782934622675" lon="16.70321279750266"><ele>1477.0</ele><time>2026-04-11T13:24:03.999Z</time></trkpt><trkpt lat="39.12791967227611" lon="16.703147642043305"><ele>1477.0</ele><time>2026-04-11T13:24:04.999Z</time></trkpt><trkpt lat="39.12798551424754" lon="16.703024936784267"><ele>1477.0</ele><time>2026-04-11T13:24:05.999Z</time></trkpt><trkpt lat="39.128227025984756" lon="16.7029399182462"><ele>1477.0</ele><time>2026-04-11T13:24:06.999Z</time></trkpt><trkpt lat="39.1282891653073" lon="16.70279797893411"><ele>1484.75</ele><time>2026-04-11T13:24:07.999Z</time></trkpt><trkpt lat="39.12835419583648" lon="16.702701386970645"><ele>1492.5</ele><time>2026-04-11T13:24:08.999Z</time></trkpt><trkpt lat="39.12843428041113" lon="16.702599969055896"><ele>1500.25</ele><time>2026-04-11T13:24:09.999Z</time></trkpt><trkpt lat="39.128563649099874" lon="16.70251940603383"><ele>1508.0</ele><time>2026-04-11T13:24:10.999Z</time></trkpt><trkpt lat="39.12865683055966" lon="16.70243553855611"><ele>1508.0</ele><time>2026-04-11T13:24:11.999Z</time></trkpt><trkpt lat="39.12874541882033" lon="16.702397043248975"><ele>1508.0</ele><time>2026-04-11T13:24:12.999Z</time></trkpt><trkpt lat="39.128811471854775" lon="16.702344221317876"><ele>1508.0</ele><time>2026-04-11T13:24:13.999Z</time></trkpt><trkpt lat="39.12902370200248" lon="16.702340165222143"><ele>1508.0</ele><time>2026-04-11T13:24:15.999Z</time></trkpt><trkpt lat="39.12911908388906" lon="16.702293278963186"><ele>1509.75</ele><time>2026-04-11T13:24:16.999Z</time></trkpt><trkpt lat="39.12920472536793" lon="16.702249261442304"><ele>1511.5</ele><time>2026-04-11T13:24:17.999Z</time></trkpt><trkpt lat="39.12930367966215" lon="16.70218984031387"><ele>1513.25</ele><time>2026-04-11T13:24:18.999Z</time></trkpt><trkpt lat="39.1293935400744" lon="16.702108384690767"><ele>1515.0</ele><time>2026-04-11T13:24:20.071Z</time></trkpt><trkpt lat="39.12942828436699" lon="16.702302095211415"><ele>1515.0</ele><time>2026-04-11T13:24:21.04Z</time></trkpt><trkpt lat="39.129473680669776" lon="16.70238866195767"><ele>1515.0</ele><time>2026-04-11T13:24:22.038Z</time></trkpt><trkpt lat="39.12914538783746" lon="16.701461482750137"><ele>1510.5</ele><time>2026-04-11T13:24:35.038Z</time></trkpt><trkpt lat="39.1289951836347" lon="16.700999112875355"><ele>1506.0</ele><time>2026-04-11T13:24:36.038Z</time></trkpt><trkpt lat="39.12881075125679" lon="16.70051411160665"><ele>1506.0</ele><time>2026-04-11T13:24:37.038Z</time></trkpt><trkpt lat="39.12877040591256" lon="16.700382864971974"><ele>1506.0</ele><time>2026-04-11T13:24:38.036Z</time></trkpt><trkpt lat="39.12873278287608" lon="16.70030320978478"><ele>1506.0</ele><time>2026-04-11T13:24:39.034Z</time></trkpt><trkpt lat="39.12862992778667" lon="16.700187502798325"><ele>1506.0</ele><time>2026-04-11T13:24:40.999Z</time></trkpt><trkpt lat="39.128538519251016" lon="16.700185190153228"><ele>1506.0</ele><time>2026-04-11T13:24:41.999Z</time></trkpt><trkpt lat="39.12841221816948" lon="16.700123336716896"><ele>1508.6666666666667</ele><time>2026-04-11T13:24:42.999Z</time></trkpt><trkpt lat="39.12820542312815" lon="16.69994268487201"><ele>1511.3333333333335</ele><time>2026-04-11T13:24:43.999Z</time></trkpt><trkpt lat="39.12809037380955" lon="16.699809676176223"><ele>1514.0</ele><time>2026-04-11T13:24:44.999Z</time></trkpt><trkpt lat="39.12800818125805" lon="16.699758563326984"><ele>1514.0</ele><time>2026-04-11T13:24:45.999Z</time></trkpt><trkpt lat="39.127922601094994" lon="16.699699541331345"><ele>1514.0</ele><time>2026-04-11T13:24:46.999Z</time></trkpt><trkpt lat="39.12782752077407" lon="16.699657835165294"><ele>1514.0</ele><time>2026-04-11T13:24:47.999Z</time></trkpt><trkpt lat="39.127759289772186" lon="16.69963416913914"><ele>1514.0</ele><time>2026-04-11T13:24:48.999Z</time></trkpt><trkpt lat="39.127671728861465" lon="16.69955807560003"><ele>1514.0</ele><time>2026-04-11T13:24:49.999Z</time></trkpt><trkpt lat="39.12759153742739" lon="16.699522119233688"><ele>1516.4</ele><time>2026-04-11T13:24:50.999Z</time></trkpt><trkpt lat="39.12753983248421" lon="16.69941679001167"><ele>1518.8000000000002</ele><time>2026-04-11T13:24:51.999Z</time></trkpt><trkpt lat="39.12743824699682" lon="16.69937595168851"><ele>1521.1999999999998</ele><time>2026-04-11T13:24:53.999Z</time></trkpt><trkpt lat="39.12737571737164" lon="16.699313177866408"><ele>1523.6</ele><time>2026-04-11T13:24:54.999Z</time></trkpt><trkpt lat="39.127380301733645" lon="16.699172692711908"><ele>1526.0</ele><time>2026-04-11T13:24:56.999Z</time></trkpt><trkpt lat="39.12746059527444" lon="16.698981749417083"><ele>1526.0</ele><time>2026-04-11T13:24:58.999Z</time></trkpt><trkpt lat="39.12754716684707" lon="16.698884075751945"><ele>1526.0</ele><time>2026-04-11T13:24:59.999Z</time></trkpt><trkpt lat="39.12760854330734" lon="16.698902332725574"><ele>1526.0</ele><time>2026-04-11T13:25:02.999Z</time></trkpt><trkpt lat="39.127750023550746" lon="16.698847395272026"><ele>1526.0</ele><time>2026-04-11T13:25:04.999Z</time></trkpt><trkpt lat="39.12781593682175" lon="16.698847805127773"><ele>1526.0</ele><time>2026-04-11T13:25:05.999Z</time></trkpt><trkpt lat="39.127930515026634" lon="16.69877064176982"><ele>1526.0</ele><time>2026-04-11T13:25:06.999Z</time></trkpt><trkpt lat="39.12800764999315" lon="16.698742651539128"><ele>1526.0</ele><time>2026-04-11T13:25:07.999Z</time></trkpt><trkpt lat="39.12808193374902" lon="16.698727361355246"><ele>1526.0</ele><time>2026-04-11T13:25:10.999Z</time></trkpt><trkpt lat="39.12812830244756" lon="16.69865364069676"><ele>1526.0</ele><time>2026-04-11T13:25:11.999Z</time></trkpt><trkpt lat="39.12823508069907" lon="16.698699124592064"><ele>1526.0</ele><time>2026-04-11T13:25:14.999Z</time></trkpt><trkpt lat="39.12829819240486" lon="16.698662409397176"><ele>1526.0</ele><time>2026-04-11T13:25:15.999Z</time></trkpt><trkpt lat="39.12841785025678" lon="16.69863753774701"><ele>1527.1999999999998</ele><time>2026-04-11T13:25:17.999Z</time></trkpt><trkpt lat="39.12848699432781" lon="16.69866260241111"><ele>1528.3999999999999</ele><time>2026-04-11T13:25:21.999Z</time></trkpt><trkpt lat="39.128601020489235" lon="16.698579068761124"><ele>1529.6</ele><time>2026-04-11T13:25:23.999Z</time></trkpt><trkpt lat="39.12867071914893" lon="16.698508234653932"><ele>1530.8</ele><time>2026-04-11T13:25:24.999Z</time></trkpt><trkpt lat="39.12877203580773" lon="16.698420168784274"><ele>1532.0</ele><time>2026-04-11T13:25:25.999Z</time></trkpt><trkpt lat="39.12885083737299" lon="16.698394498362113"><ele>1533.25</ele><time>2026-04-11T13:25:26.999Z</time></trkpt><trkpt lat="39.12895986169838" lon="16.698247732243615"><ele>1534.5</ele><time>2026-04-11T13:25:27.999Z</time></trkpt><trkpt lat="39.12905097630572" lon="16.6981791777874"><ele>1535.75</ele><time>2026-04-11T13:25:28.999Z</time></trkpt><trkpt lat="39.12911982290513" lon="16.698121615515298"><ele>1537.0</ele><time>2026-04-11T13:25:29.999Z</time></trkpt><trkpt lat="39.12918905029052" lon="16.69799384115108"><ele>1538.6666666666667</ele><time>2026-04-11T13:25:31.999Z</time></trkpt><trkpt lat="39.12925575700972" lon="16.697916280804087"><ele>1540.3333333333335</ele><time>2026-04-11T13:25:33.999Z</time></trkpt><trkpt lat="39.129302646515306" lon="16.697810717428837"><ele>1542.0</ele><time>2026-04-11T13:25:36Z</time></trkpt><trkpt lat="39.129369393850375" lon="16.69773633002222"><ele>1543.6666666666665</ele><time>2026-04-11T13:25:37Z</time></trkpt><trkpt lat="39.129450086681736" lon="16.697779539999058"><ele>1545.3333333333333</ele><time>2026-04-11T13:25:44Z</time></trkpt><trkpt lat="39.12947249351202" lon="16.697871436077897"><ele>1547.0</ele><time>2026-04-11T13:25:47Z</time></trkpt><trkpt lat="39.12952366319058" lon="16.6979189201357"><ele>1546.9999999999998</ele><time>2026-04-11T13:25:49Z</time></trkpt><trkpt lat="39.1295952238428" lon="16.697988819959892"><ele>1547.0</ele><time>2026-04-11T13:25:52Z</time></trkpt><trkpt lat="39.1296636561887" lon="16.69797841111679"><ele>1547.0</ele><time>2026-04-11T13:25:54Z</time></trkpt><trkpt lat="39.1297258504363" lon="16.6978826657613"><ele>1547.0</ele><time>2026-04-11T13:25:57Z</time></trkpt><trkpt lat="39.129798182181446" lon="16.69790039791467"><ele>1546.9999999999998</ele><time>2026-04-11T13:26:00Z</time></trkpt><trkpt lat="39.1298268940015" lon="16.697979247122777"><ele>1547.0</ele><time>2026-04-11T13:26:02Z</time></trkpt><trkpt lat="39.12987635216343" lon="16.698030553606422"><ele>1548.2857142857142</ele><time>2026-04-11T13:26:04Z</time></trkpt><trkpt lat="39.12995480382434" lon="16.698067353359107"><ele>1549.5714285714284</ele><time>2026-04-11T13:26:06Z</time></trkpt><trkpt lat="39.13001954845649" lon="16.698052724712536"><ele>1550.857142857143</ele><time>2026-04-11T13:26:09Z</time></trkpt><trkpt lat="39.1300774951739" lon="16.698094502925144"><ele>1552.142857142857</ele><time>2026-04-11T13:26:14.999Z</time></trkpt><trkpt lat="39.13014255294097" lon="16.698080369952496"><ele>1553.4285714285713</ele><time>2026-04-11T13:26:17.999Z</time></trkpt><trkpt lat="39.13016913658996" lon="16.697999672220913"><ele>1554.7142857142858</ele><time>2026-04-11T13:26:19.999Z</time></trkpt><trkpt lat="39.13022562818946" lon="16.697957520816473"><ele>1556.0</ele><time>2026-04-11T13:26:27.999Z</time></trkpt><trkpt lat="39.130245761101236" lon="16.697875680269007"><ele>1555.9999999999998</ele><time>2026-04-11T13:26:43.999Z</time></trkpt><trkpt lat="39.130248198915424" lon="16.69778207375612"><ele>1556.0</ele><time>2026-04-11T13:27:26.999Z</time></trkpt><trkpt lat="39.13028141923033" lon="16.697700679478675"><ele>1556.0</ele><time>2026-04-11T13:27:55Z</time></trkpt><trkpt lat="39.13039699485938" lon="16.697728811597184"><ele>1556.0</ele><time>2026-04-11T13:27:59Z</time></trkpt><trkpt lat="39.13043540242906" lon="16.697801017577603"><ele>1555.9999999999998</ele><time>2026-04-11T13:28:07Z</time></trkpt><trkpt lat="39.1305020590864" lon="16.697821349017303"><ele>1556.0</ele><time>2026-04-11T13:28:09Z</time></trkpt><trkpt lat="39.13043960955422" lon="16.69778761623357"><ele>1555.9999999999998</ele><time>2026-04-11T13:28:13Z</time></trkpt><trkpt lat="39.13044617662188" lon="16.69790347221177"><ele>1556.0</ele><time>2026-04-11T13:28:21Z</time></trkpt><trkpt lat="39.13043079833205" lon="16.697814731783065"><ele>1556.0</ele><time>2026-04-11T13:28:23Z</time></trkpt><trkpt lat="39.13038183604436" lon="16.697682265544916"><ele>1556.0</ele><time>2026-04-11T13:28:24Z</time></trkpt><trkpt lat="39.130318608878454" lon="16.697658689309062"><ele>1555.9999999999998</ele><time>2026-04-11T13:28:25Z</time></trkpt><trkpt lat="39.130382583999165" lon="16.697628547526993"><ele>1556.0</ele><time>2026-04-11T13:28:28.999Z</time></trkpt><trkpt lat="39.13041175134902" lon="16.69770089691576"><ele>1555.9999999999998</ele><time>2026-04-11T13:28:29.999Z</time></trkpt><trkpt lat="39.130377013856226" lon="16.69779595969707"><ele>1556.0</ele><time>2026-04-11T13:28:32.999Z</time></trkpt><trkpt lat="39.130376665725485" lon="16.697687316698794"><ele>1556.0</ele><time>2026-04-11T13:28:50.999Z</time></trkpt><trkpt lat="39.13045401875529" lon="16.69771012076566"><ele>1556.0</ele><time>2026-04-11T13:29:08.999Z</time></trkpt><trkpt lat="39.13051617118101" lon="16.69765105695775"><ele>1555.9999999999998</ele><time>2026-04-11T13:29:12.999Z</time></trkpt><trkpt lat="39.1305517780704" lon="16.697552304425543"><ele>1556.0</ele><time>2026-04-11T13:29:15.999Z</time></trkpt><trkpt lat="39.1305737290644" lon="16.697462981967163"><ele>1557.0</ele><time>2026-04-11T13:29:17.999Z</time></trkpt><trkpt lat="39.13063589014647" lon="16.69739407103531"><ele>1558.0</ele><time>2026-04-11T13:29:21.999Z</time></trkpt><trkpt lat="39.13065259211362" lon="16.697478165063124"><ele>1559.0</ele><time>2026-04-11T13:29:28.999Z</time></trkpt><trkpt lat="39.13070529057043" lon="16.69741982434488"><ele>1560.0</ele><time>2026-04-11T13:29:31.999Z</time></trkpt><trkpt lat="39.13077696721917" lon="16.69743064030481"><ele>1561.0</ele><time>2026-04-11T13:29:34.999Z</time></trkpt><trkpt lat="39.130791388821265" lon="16.697335956907295"><ele>1562.0</ele><time>2026-04-11T13:29:39.999Z</time></trkpt><trkpt lat="39.13079101271265" lon="16.697243599187743"><ele>1563.0</ele><time>2026-04-11T13:29:41.999Z</time></trkpt><trkpt lat="39.13083698728849" lon="16.697173601920706"><ele>1565.6666666666667</ele><time>2026-04-11T13:29:44.999Z</time></trkpt><trkpt lat="39.13092709400281" lon="16.697161839209564"><ele>1568.3333333333335</ele><time>2026-04-11T13:29:47Z</time></trkpt><trkpt lat="39.13100354514119" lon="16.69716447075839"><ele>1571.0</ele><time>2026-04-11T13:29:54Z</time></trkpt><trkpt lat="39.13106748061647" lon="16.69713637737878"><ele>1573.6666666666667</ele><time>2026-04-11T13:29:57Z</time></trkpt><trkpt lat="39.13113678241349" lon="16.6971328739534"><ele>1576.3333333333335</ele><time>2026-04-11T13:29:59Z</time></trkpt><trkpt lat="39.13121147977991" lon="16.697100814575386"><ele>1579.0</ele><time>2026-04-11T13:30:03Z</time></trkpt><trkpt lat="39.1312755272271" lon="16.697051396583497"><ele>1579.0000000000002</ele><time>2026-04-11T13:30:08Z</time></trkpt><trkpt lat="39.13117993469917" lon="16.697102806102993"><ele>1579.0</ele><time>2026-04-11T13:31:13.999Z</time></trkpt><trkpt lat="39.131252092354806" lon="16.69711778790169"><ele>1579.0</ele><time>2026-04-11T13:32:57Z</time></trkpt><trkpt lat="39.13132585553325" lon="16.697177431134005"><ele>1579.0</ele><time>2026-04-11T13:33:33.999Z</time></trkpt><trkpt lat="39.13136440048028" lon="16.697241741925087"><ele>1579.0000000000002</ele><time>2026-04-11T13:33:42.999Z</time></trkpt><trkpt lat="39.131375902640094" lon="16.697334299228757"><ele>1579.0</ele><time>2026-04-11T13:33:55.999Z</time></trkpt><trkpt lat="39.13136692366756" lon="16.697422484205784"><ele>1579.0000000000002</ele><time>2026-04-11T13:34:08Z</time></trkpt><trkpt lat="39.131408417578356" lon="16.697505212127144"><ele>1579.0</ele><time>2026-04-11T13:34:34Z</time></trkpt><trkpt lat="39.13140911683311" lon="16.69742177384254"><ele>1579.0</ele><time>2026-04-11T13:51:53Z</time></trkpt><trkpt lat="39.13140153273647" lon="16.697336452195177"><ele>1579.0</ele><time>2026-04-11T13:52:09.999Z</time></trkpt><trkpt lat="39.13137331855473" lon="16.697261498355417"><ele>1579.0</ele><time>2026-04-11T13:52:21.999Z</time></trkpt><trkpt lat="39.13133734438919" lon="16.697194131904613"><ele>1579.0000000000002</ele><time>2026-04-11T13:52:32.999Z</time></trkpt><trkpt lat="39.13126240352171" lon="16.697139940690146"><ele>1579.0</ele><time>2026-04-11T13:54:59Z</time></trkpt><trkpt lat="39.13121319182934" lon="16.69708397975614"><ele>1579.0000000000002</ele><time>2026-04-11T13:58:48Z</time></trkpt><trkpt lat="39.13121879008113" lon="16.697174493695954"><ele>1579.0</ele><time>2026-04-11T13:59:15Z</time></trkpt><trkpt lat="39.13119486220919" lon="16.697250423958252"><ele>1579.0</ele><time>2026-04-11T13:59:21Z</time></trkpt><trkpt lat="39.131177300856585" lon="16.697343020775552"><ele>1579.0</ele><time>2026-04-11T13:59:24Z</time></trkpt><trkpt lat="39.1311308151073" lon="16.69742357620099"><ele>1579.0</ele><time>2026-04-11T13:59:28Z</time></trkpt><trkpt lat="39.13106798105905" lon="16.697416579942438"><ele>1579.0000000000002</ele><time>2026-04-11T13:59:31Z</time></trkpt><trkpt lat="39.131014005945936" lon="16.69748384759682"><ele>1579.0</ele><time>2026-04-11T13:59:33Z</time></trkpt><trkpt lat="39.130969433291796" lon="16.697548148474137"><ele>1579.0000000000002</ele><time>2026-04-11T13:59:34.999Z</time></trkpt><trkpt lat="39.13091251914706" lon="16.697608791807028"><ele>1579.0</ele><time>2026-04-11T13:59:37.999Z</time></trkpt><trkpt lat="39.13084904534379" lon="16.69762965771067"><ele>1579.0</ele><time>2026-04-11T13:59:40.999Z</time></trkpt><trkpt lat="39.13076793605844" lon="16.697681988424012"><ele>1579.0</ele><time>2026-04-11T13:59:43.999Z</time></trkpt><trkpt lat="39.13068339260994" lon="16.697744941609997"><ele>1579.0000000000002</ele><time>2026-04-11T13:59:46.999Z</time></trkpt><trkpt lat="39.130609986512326" lon="16.69778244777653"><ele>1579.0</ele><time>2026-04-11T13:59:50.999Z</time></trkpt><trkpt lat="39.130536405332926" lon="16.697787041171395"><ele>1575.1666666666667</ele><time>2026-04-11T13:59:53.999Z</time></trkpt><trkpt lat="39.13045240213254" lon="16.697833887287413"><ele>1571.3333333333335</ele><time>2026-04-11T13:59:56.999Z</time></trkpt><trkpt lat="39.13038380432667" lon="16.697841941618222"><ele>1567.5</ele><time>2026-04-11T13:59:58.999Z</time></trkpt><trkpt lat="39.13028804313991" lon="16.697869341998484"><ele>1563.6666666666665</ele><time>2026-04-11T14:00:01.999Z</time></trkpt><trkpt lat="39.13021669970552" lon="16.697883221052887"><ele>1559.8333333333333</ele><time>2026-04-11T14:00:03.999Z</time></trkpt><trkpt lat="39.1301609674093" lon="16.697932243202086"><ele>1556.0</ele><time>2026-04-11T14:00:07.999Z</time></trkpt><trkpt lat="39.13009605483137" lon="16.697982693836778"><ele>1555.9999999999998</ele><time>2026-04-11T14:00:11.999Z</time></trkpt><trkpt lat="39.130014495859655" lon="16.69800511478618"><ele>1556.0</ele><time>2026-04-11T14:00:14.999Z</time></trkpt><trkpt lat="39.12994159604949" lon="16.698010577894184"><ele>1556.0</ele><time>2026-04-11T14:00:18.999Z</time></trkpt><trkpt lat="39.129876368049075" lon="16.697978931341662"><ele>1556.0</ele><time>2026-04-11T14:00:22.999Z</time></trkpt><trkpt lat="39.12978215745524" lon="16.697971880530133"><ele>1555.9999999999998</ele><time>2026-04-11T14:00:26.999Z</time></trkpt><trkpt lat="39.12968103525709" lon="16.697995916964324"><ele>1556.0</ele><time>2026-04-11T14:00:30.999Z</time></trkpt><trkpt lat="39.12956986697105" lon="16.698018865246503"><ele>1554.1999999999998</ele><time>2026-04-11T14:00:32.999Z</time></trkpt><trkpt lat="39.12943866444055" lon="16.698058525391566"><ele>1552.3999999999999</ele><time>2026-04-11T14:00:34.999Z</time></trkpt><trkpt lat="39.129367661578115" lon="16.698102682001863"><ele>1550.6</ele><time>2026-04-11T14:00:35.999Z</time></trkpt><trkpt lat="39.12931134494439" lon="16.698147834417075"><ele>1548.8</ele><time>2026-04-11T14:00:36.999Z</time></trkpt><trkpt lat="39.12922813143666" lon="16.698206694492534"><ele>1547.0</ele><time>2026-04-11T14:00:38.999Z</time></trkpt><trkpt lat="39.12914485228344" lon="16.698293834033123"><ele>1545.0</ele><time>2026-04-11T14:00:40.999Z</time></trkpt><trkpt lat="39.12902561542943" lon="16.69838222169042"><ele>1543.0</ele><time>2026-04-11T14:00:42.999Z</time></trkpt><trkpt lat="39.12895073818012" lon="16.698412151986254"><ele>1541.0</ele><time>2026-04-11T14:00:43.999Z</time></trkpt><trkpt lat="39.12887902476964" lon="16.69836038291773"><ele>1539.0</ele><time>2026-04-11T14:00:44.999Z</time></trkpt><trkpt lat="39.128845282449305" lon="16.698493519599545"><ele>1537.0</ele><time>2026-04-11T14:00:46.999Z</time></trkpt><trkpt lat="39.128814849800634" lon="16.698580219057913"><ele>1536.0</ele><time>2026-04-11T14:00:47.999Z</time></trkpt><trkpt lat="39.12876619636727" lon="16.69865090038079"><ele>1535.0</ele><time>2026-04-11T14:00:48.999Z</time></trkpt><trkpt lat="39.12870108576106" lon="16.69870280881121"><ele>1534.0</ele><time>2026-04-11T14:00:49.999Z</time></trkpt><trkpt lat="39.128531400932616" lon="16.69877691180515"><ele>1533.0</ele><time>2026-04-11T14:00:50.999Z</time></trkpt><trkpt lat="39.12845554672324" lon="16.698774004219917"><ele>1532.0</ele><time>2026-04-11T14:00:51.999Z</time></trkpt><trkpt lat="39.12833812253318" lon="16.698779862863685"><ele>1532.0</ele><time>2026-04-11T14:00:52.999Z</time></trkpt><trkpt lat="39.12827505648852" lon="16.698898295417788"><ele>1532.0</ele><time>2026-04-11T14:00:53.999Z</time></trkpt><trkpt lat="39.128175544181055" lon="16.69886806077585"><ele>1532.0</ele><time>2026-04-11T14:00:54.999Z</time></trkpt><trkpt lat="39.12811876136615" lon="16.6988183413364"><ele>1532.0</ele><time>2026-04-11T14:00:55.999Z</time></trkpt><trkpt lat="39.12805584495589" lon="16.69880151517725"><ele>1532.0</ele><time>2026-04-11T14:00:58.999Z</time></trkpt><trkpt lat="39.12795645297429" lon="16.698853037636127"><ele>1531.0</ele><time>2026-04-11T14:01:00.999Z</time></trkpt><trkpt lat="39.127880562169544" lon="16.698885182509734"><ele>1530.0</ele><time>2026-04-11T14:01:02.999Z</time></trkpt><trkpt lat="39.127808719842214" lon="16.69892976819041"><ele>1529.0</ele><time>2026-04-11T14:01:03.999Z</time></trkpt><trkpt lat="39.127735936679606" lon="16.698960771234585"><ele>1528.0</ele><time>2026-04-11T14:01:04.999Z</time></trkpt><trkpt lat="39.12767410579875" lon="16.699024750173947"><ele>1527.0</ele><time>2026-04-11T14:01:06.999Z</time></trkpt><trkpt lat="39.12763794356556" lon="16.699094931088037"><ele>1526.0</ele><time>2026-04-11T14:01:08.999Z</time></trkpt><trkpt lat="39.12757927225377" lon="16.69918710179243"><ele>1526.0</ele><time>2026-04-11T14:01:11.999Z</time></trkpt><trkpt lat="39.12763102651564" lon="16.699286399939737"><ele>1526.0</ele><time>2026-04-11T14:01:15Z</time></trkpt><trkpt lat="39.127675202446326" lon="16.699356228530718"><ele>1526.0</ele><time>2026-04-11T14:01:16Z</time></trkpt><trkpt lat="39.12770665610953" lon="16.699527506079978"><ele>1526.0</ele><time>2026-04-11T14:01:17Z</time></trkpt><trkpt lat="39.127753330948856" lon="16.699626591537676"><ele>1526.0</ele><time>2026-04-11T14:01:18Z</time></trkpt><trkpt lat="39.1277983490933" lon="16.699705287059654"><ele>1523.6</ele><time>2026-04-11T14:01:19Z</time></trkpt><trkpt lat="39.12783233234313" lon="16.699782457219207"><ele>1521.1999999999998</ele><time>2026-04-11T14:01:21Z</time></trkpt><trkpt lat="39.12789041156629" lon="16.699837143138065"><ele>1518.8000000000002</ele><time>2026-04-11T14:01:22Z</time></trkpt><trkpt lat="39.128017765609684" lon="16.699905543102187"><ele>1516.4</ele><time>2026-04-11T14:01:24Z</time></trkpt><trkpt lat="39.12808319231452" lon="16.700032440740717"><ele>1514.0</ele><time>2026-04-11T14:01:26Z</time></trkpt><trkpt lat="39.12818628785429" lon="16.700126601469957"><ele>1515.1666666666667</ele><time>2026-04-11T14:01:28Z</time></trkpt><trkpt lat="39.128248091880316" lon="16.700172938518808"><ele>1516.3333333333335</ele><time>2026-04-11T14:01:29Z</time></trkpt><trkpt lat="39.1283102918488" lon="16.700212555084164"><ele>1517.5</ele><time>2026-04-11T14:01:30Z</time></trkpt><trkpt lat="39.12837699094176" lon="16.70025812444707"><ele>1518.6666666666667</ele><time>2026-04-11T14:01:31Z</time></trkpt><trkpt lat="39.1284536689615" lon="16.700261877607023"><ele>1519.8333333333333</ele><time>2026-04-11T14:01:32Z</time></trkpt><trkpt lat="39.12855611377898" lon="16.700269714130265"><ele>1521.0</ele><time>2026-04-11T14:01:34Z</time></trkpt><trkpt lat="39.128632984889684" lon="16.700316551377767"><ele>1518.5</ele><time>2026-04-11T14:01:35Z</time></trkpt><trkpt lat="39.12869404486392" lon="16.700427724973498"><ele>1516.0</ele><time>2026-04-11T14:01:38Z</time></trkpt><trkpt lat="39.12866817836054" lon="16.700511629720083"><ele>1513.5</ele><time>2026-04-11T14:01:41Z</time></trkpt><trkpt lat="39.12864922372363" lon="16.70060746188543"><ele>1511.0</ele><time>2026-04-11T14:01:43.999Z</time></trkpt><trkpt lat="39.12863747975399" lon="16.700704754860485"><ele>1508.5</ele><time>2026-04-11T14:01:46.999Z</time></trkpt><trkpt lat="39.12862338312162" lon="16.700790676700393"><ele>1506.0</ele><time>2026-04-11T14:01:49.999Z</time></trkpt><trkpt lat="39.12855767732576" lon="16.700847438177053"><ele>1506.0</ele><time>2026-04-11T14:01:52.999Z</time></trkpt><trkpt lat="39.12854834560343" lon="16.700948878369456"><ele>1506.0</ele><time>2026-04-11T14:01:55.999Z</time></trkpt><trkpt lat="39.12851455416227" lon="16.701043313549306"><ele>1506.0</ele><time>2026-04-11T14:01:58.999Z</time></trkpt><trkpt lat="39.12852084034187" lon="16.70112664464065"><ele>1506.0</ele><time>2026-04-11T14:02:00.999Z</time></trkpt><trkpt lat="39.12847636921856" lon="16.70121008154779"><ele>1506.0</ele><time>2026-04-11T14:02:03.999Z</time></trkpt><trkpt lat="39.12841160703775" lon="16.70128791705256"><ele>1506.0</ele><time>2026-04-11T14:02:05.999Z</time></trkpt><trkpt lat="39.12838028463436" lon="16.70137538921598"><ele>1506.0</ele><time>2026-04-11T14:02:06.999Z</time></trkpt><trkpt lat="39.12836746603978" lon="16.70146839526457"><ele>1506.0</ele><time>2026-04-11T14:02:07.999Z</time></trkpt><trkpt lat="39.12834069803511" lon="16.70155958091837"><ele>1506.0</ele><time>2026-04-11T14:02:10.999Z</time></trkpt><trkpt lat="39.12830642341334" lon="16.701628010298098"><ele>1506.0</ele><time>2026-04-11T14:02:12.999Z</time></trkpt><trkpt lat="39.12829987952742" lon="16.701766461663098"><ele>1506.0</ele><time>2026-04-11T14:02:14.999Z</time></trkpt><trkpt lat="39.128292275922476" lon="16.70190065137121"><ele>1506.0</ele><time>2026-04-11T14:02:17.999Z</time></trkpt><trkpt lat="39.12834159850586" lon="16.702001377338224"><ele>1506.4</ele><time>2026-04-11T14:02:19.999Z</time></trkpt><trkpt lat="39.128308727498705" lon="16.702092416438273"><ele>1506.8</ele><time>2026-04-11T14:02:20.999Z</time></trkpt><trkpt lat="39.12830092729098" lon="16.702205718349063"><ele>1507.2</ele><time>2026-04-11T14:02:21.999Z</time></trkpt><trkpt lat="39.12833807358925" lon="16.702310736126964"><ele>1507.6000000000001</ele><time>2026-04-11T14:02:22.999Z</time></trkpt><trkpt lat="39.12833222848644" lon="16.702429772407413"><ele>1508.0</ele><time>2026-04-11T14:02:23.999Z</time></trkpt><trkpt lat="39.128326011207534" lon="16.702591746006743"><ele>1508.0</ele><time>2026-04-11T14:02:25.999Z</time></trkpt><trkpt lat="39.12833853366714" lon="16.702686166277733"><ele>1508.0</ele><time>2026-04-11T14:02:26.999Z</time></trkpt><trkpt lat="39.128319937427" lon="16.702785118855477"><ele>1508.0</ele><time>2026-04-11T14:02:27.999Z</time></trkpt><trkpt lat="39.128272801762606" lon="16.70290001209391"><ele>1508.0</ele><time>2026-04-11T14:02:28.999Z</time></trkpt><trkpt lat="39.128246498649446" lon="16.703007204815773"><ele>1508.0</ele><time>2026-04-11T14:02:29.999Z</time></trkpt><trkpt lat="39.1282009837163" lon="16.70313449875707"><ele>1501.8000000000002</ele><time>2026-04-11T14:02:30.999Z</time></trkpt><trkpt lat="39.1281779826099" lon="16.703211156870985"><ele>1495.6</ele><time>2026-04-11T14:02:31.999Z</time></trkpt><trkpt lat="39.128139559625595" lon="16.703388411809723"><ele>1489.4</ele><time>2026-04-11T14:02:33.999Z</time></trkpt><trkpt lat="39.12809308033351" lon="16.703499152611666"><ele>1483.1999999999998</ele><time>2026-04-11T14:02:34.999Z</time></trkpt><trkpt lat="39.12807903049618" lon="16.70362914724259"><ele>1477.0</ele><time>2026-04-11T14:02:35.999Z</time></trkpt><trkpt lat="39.12808391596884" lon="16.703728013317967"><ele>1476.3333333333333</ele><time>2026-04-11T14:02:36.999Z</time></trkpt><trkpt lat="39.12805989493441" lon="16.703838603115347"><ele>1475.6666666666665</ele><time>2026-04-11T14:02:37.999Z</time></trkpt><trkpt lat="39.12808483573005" lon="16.703951740974716"><ele>1475.0</ele><time>2026-04-11T14:02:38.999Z</time></trkpt><trkpt lat="39.12812205078432" lon="16.70402641130708"><ele>1474.3333333333333</ele><time>2026-04-11T14:02:39.999Z</time></trkpt><trkpt lat="39.12818580024563" lon="16.704096385701426"><ele>1473.6666666666667</ele><time>2026-04-11T14:02:40.999Z</time></trkpt><trkpt lat="39.12822123565986" lon="16.70418287400595"><ele>1473.0</ele><time>2026-04-11T14:02:41.999Z</time></trkpt><trkpt lat="39.128260579572796" lon="16.704256206787836"><ele>1472.4</ele><time>2026-04-11T14:02:42.999Z</time></trkpt><trkpt lat="39.12829662411298" lon="16.70432883921474"><ele>1471.8000000000002</ele><time>2026-04-11T14:02:43.999Z</time></trkpt><trkpt lat="39.12835857044003" lon="16.704465685427042"><ele>1471.2</ele><time>2026-04-11T14:02:45.999Z</time></trkpt><trkpt lat="39.12842177561051" lon="16.704592047370358"><ele>1470.6</ele><time>2026-04-11T14:02:47.999Z</time></trkpt><trkpt lat="39.12847513677915" lon="16.704639759141095"><ele>1470.0</ele><time>2026-04-11T14:02:48.999Z</time></trkpt><trkpt lat="39.12856133339947" lon="16.70466958323289"><ele>1470.0</ele><time>2026-04-11T14:02:49.999Z</time></trkpt><trkpt lat="39.12864109388961" lon="16.70468922941698"><ele>1470.0</ele><time>2026-04-11T14:02:50.999Z</time></trkpt><trkpt lat="39.12871398548189" lon="16.704695771790814"><ele>1470.0</ele><time>2026-04-11T14:02:51.999Z</time></trkpt><trkpt lat="39.12879074000789" lon="16.704675323082043"><ele>1470.0</ele><time>2026-04-11T14:02:52.999Z</time></trkpt><trkpt lat="39.12885686128755" lon="16.704661630296698"><ele>1470.0</ele><time>2026-04-11T14:02:53.999Z</time></trkpt><trkpt lat="39.12892061125296" lon="16.70471274672822"><ele>1470.0</ele><time>2026-04-11T14:02:54.999Z</time></trkpt><trkpt lat="39.129030349800615" lon="16.704788995252393"><ele>1470.1666666666667</ele><time>2026-04-11T14:02:56.999Z</time></trkpt><trkpt lat="39.12910888796531" lon="16.70479704291486"><ele>1470.3333333333333</ele><time>2026-04-11T14:02:57.999Z</time></trkpt><trkpt lat="39.12917723597764" lon="16.70482641609315"><ele>1470.5</ele><time>2026-04-11T14:02:58.999Z</time></trkpt><trkpt lat="39.12923208640469" lon="16.70487655858837"><ele>1470.6666666666665</ele><time>2026-04-11T14:02:59.999Z</time></trkpt><trkpt lat="39.129330955365425" lon="16.704958894846737"><ele>1470.8333333333333</ele><time>2026-04-11T14:03:01.999Z</time></trkpt><trkpt lat="39.12941562141579" lon="16.705029990711974"><ele>1471.0</ele><time>2026-04-11T14:03:03.999Z</time></trkpt><trkpt lat="39.12942769385226" lon="16.705162785980335"><ele>1470.3333333333333</ele><time>2026-04-11T14:03:05.999Z</time></trkpt><trkpt lat="39.129384703059074" lon="16.70526238056366"><ele>1469.6666666666665</ele><time>2026-04-11T14:03:06.999Z</time></trkpt><trkpt lat="39.12932878489093" lon="16.705348230509873"><ele>1469.0</ele><time>2026-04-11T14:03:07.999Z</time></trkpt><trkpt lat="39.129256822932625" lon="16.705407861587585"><ele>1468.3333333333333</ele><time>2026-04-11T14:03:08.999Z</time></trkpt><trkpt lat="39.12919482774886" lon="16.705448106728088"><ele>1467.6666666666667</ele><time>2026-04-11T14:03:09.999Z</time></trkpt><trkpt lat="39.12914196463084" lon="16.705510300501413"><ele>1467.0</ele><time>2026-04-11T14:03:10.999Z</time></trkpt><trkpt lat="39.129099080281414" lon="16.705587486711405"><ele>1467.0</ele><time>2026-04-11T14:03:11.999Z</time></trkpt><trkpt lat="39.129097851983715" lon="16.705700982279087"><ele>1467.0</ele><time>2026-04-11T14:03:12.999Z</time></trkpt><trkpt lat="39.1291112497371" lon="16.705785998667388"><ele>1467.0</ele><time>2026-04-11T14:03:13.999Z</time></trkpt><trkpt lat="39.129105350397225" lon="16.705908314582818"><ele>1467.0</ele><time>2026-04-11T14:03:15.999Z</time></trkpt><trkpt lat="39.12905048302889" lon="16.705952246049304"><ele>1467.0</ele><time>2026-04-11T14:03:17.999Z</time></trkpt><trkpt lat="39.12896410922078" lon="16.705874896761788"><ele>1467.0</ele><time>2026-04-11T14:03:19.999Z</time></trkpt><trkpt lat="39.128920638789644" lon="16.705813864044394"><ele>1467.5</ele><time>2026-04-11T14:03:21Z</time></trkpt><trkpt lat="39.12885907274099" lon="16.705706916756768"><ele>1468.0</ele><time>2026-04-11T14:03:23Z</time></trkpt><trkpt lat="39.12879910350237" lon="16.70564233748017"><ele>1468.5</ele><time>2026-04-11T14:03:25Z</time></trkpt><trkpt lat="39.12873631095536" lon="16.705582646545505"><ele>1469.0</ele><time>2026-04-11T14:03:28Z</time></trkpt><trkpt lat="39.12868090317278" lon="16.705539704588922"><ele>1469.5</ele><time>2026-04-11T14:03:30Z</time></trkpt><trkpt lat="39.128619178082026" lon="16.705481656654065"><ele>1470.0</ele><time>2026-04-11T14:03:34Z</time></trkpt><trkpt lat="39.12855865430322" lon="16.705508997269664"><ele>1470.0</ele><time>2026-04-11T14:03:49Z</time></trkpt><trkpt lat="39.12858569861284" lon="16.70558570552138"><ele>1470.0</ele><time>2026-04-11T14:03:51Z</time></trkpt><trkpt lat="39.12867440282934" lon="16.705640456977793"><ele>1470.0</ele><time>2026-04-11T14:03:53Z</time></trkpt><trkpt lat="39.12874085440678" lon="16.70568153657861"><ele>1470.0</ele><time>2026-04-11T14:03:54Z</time></trkpt><trkpt lat="39.12879916960819" lon="16.705732968052967"><ele>1470.0</ele><time>2026-04-11T14:03:55Z</time></trkpt><trkpt lat="39.12891064019718" lon="16.705805597159994"><ele>1470.0</ele><time>2026-04-11T14:03:57Z</time></trkpt><trkpt lat="39.1289840236394" lon="16.705872258688157"><ele>1470.0</ele><time>2026-04-11T14:03:58Z</time></trkpt><trkpt lat="39.129044478101285" lon="16.705922562409597"><ele>1470.0</ele><time>2026-04-11T14:03:59Z</time></trkpt><trkpt lat="39.12910729381388" lon="16.705977277129517"><ele>1470.0</ele><time>2026-04-11T14:04:00Z</time></trkpt><trkpt lat="39.12919272685984" lon="16.7060914107043"><ele>1470.0</ele><time>2026-04-11T14:04:02Z</time></trkpt><trkpt lat="39.12926179467609" lon="16.706211631238236"><ele>1470.0</ele><time>2026-04-11T14:04:04Z</time></trkpt><trkpt lat="39.12928350166891" lon="16.706302542028006"><ele>1468.6</ele><time>2026-04-11T14:04:06Z</time></trkpt><trkpt lat="39.12930734434783" lon="16.706410774283846"><ele>1467.2</ele><time>2026-04-11T14:04:07Z</time></trkpt><trkpt lat="39.129320192279835" lon="16.70649951100465"><ele>1465.8000000000002</ele><time>2026-04-11T14:04:07.999Z</time></trkpt><trkpt lat="39.12933217361346" lon="16.706668816322587"><ele>1464.4</ele><time>2026-04-11T14:04:09.999Z</time></trkpt><trkpt lat="39.129309183605045" lon="16.706776254304376"><ele>1463.0</ele><time>2026-04-11T14:04:10.999Z</time></trkpt><trkpt lat="39.12924855142573" lon="16.70694766460658"><ele>1461.5</ele><time>2026-04-11T14:04:12.999Z</time></trkpt><trkpt lat="39.129252460641496" lon="16.707089107475394"><ele>1460.0</ele><time>2026-04-11T14:04:14.999Z</time></trkpt><trkpt lat="39.12928709541285" lon="16.70716758141404"><ele>1458.5</ele><time>2026-04-11T14:04:15.999Z</time></trkpt><trkpt lat="39.12934903077326" lon="16.707224621650543"><ele>1457.0</ele><time>2026-04-11T14:04:16.999Z</time></trkpt><trkpt lat="39.12942853669521" lon="16.707279627363103"><ele>1455.5</ele><time>2026-04-11T14:04:17.999Z</time></trkpt><trkpt lat="39.129494397711454" lon="16.707267916166657"><ele>1454.0</ele><time>2026-04-11T14:04:18.999Z</time></trkpt><trkpt lat="39.12962368380455" lon="16.707280846962423"><ele>1454.0</ele><time>2026-04-11T14:04:20.999Z</time></trkpt><trkpt lat="39.12975847262383" lon="16.70720840681416"><ele>1454.0</ele><time>2026-04-11T14:04:21.999Z</time></trkpt><trkpt lat="39.12986800118413" lon="16.70716218082844"><ele>1454.0</ele><time>2026-04-11T14:04:22.999Z</time></trkpt><trkpt lat="39.13002419138269" lon="16.707182089217596"><ele>1454.0</ele><time>2026-04-11T14:04:23.999Z</time></trkpt><trkpt lat="39.13018187668874" lon="16.70716836387118"><ele>1451.5</ele><time>2026-04-11T14:04:25.999Z</time></trkpt><trkpt lat="39.1303421098841" lon="16.707167516573726"><ele>1449.0</ele><time>2026-04-11T14:04:26.999Z</time></trkpt><trkpt lat="39.130461431403276" lon="16.707146286466752"><ele>1446.5</ele><time>2026-04-11T14:04:27.999Z</time></trkpt><trkpt lat="39.13058381459271" lon="16.7071120148134"><ele>1444.0</ele><time>2026-04-11T14:04:28.999Z</time></trkpt><trkpt lat="39.13071729355923" lon="16.707086837262008"><ele>1441.0</ele><time>2026-04-11T14:04:29.999Z</time></trkpt><trkpt lat="39.130858024705205" lon="16.706973180676528"><ele>1438.0</ele><time>2026-04-11T14:04:30.999Z</time></trkpt><trkpt lat="39.13098340267966" lon="16.7068882899164"><ele>1435.0</ele><time>2026-04-11T14:04:31.999Z</time></trkpt><trkpt lat="39.13111502709645" lon="16.706664589271146"><ele>1435.0</ele><time>2026-04-11T14:04:32.999Z</time></trkpt><trkpt lat="39.131265036342235" lon="16.706494331384704"><ele>1435.0</ele><time>2026-04-11T14:04:33.999Z</time></trkpt><trkpt lat="39.131424912255014" lon="16.70637734770487"><ele>1435.0</ele><time>2026-04-11T14:04:34.999Z</time></trkpt><trkpt lat="39.131474637107985" lon="16.706170459747746"><ele>1440.0</ele><time>2026-04-11T14:04:35.999Z</time></trkpt><trkpt lat="39.13156865360942" lon="16.706002117679688"><ele>1445.0</ele><time>2026-04-11T14:04:36.999Z</time></trkpt><trkpt lat="39.1321043714766" lon="16.70518292089246"><ele>1447.2</ele><time>2026-04-11T14:05:05.026Z</time></trkpt><trkpt lat="39.13222945642379" lon="16.705027611856227"><ele>1449.4</ele><time>2026-04-11T14:05:06.025Z</time></trkpt><trkpt lat="39.13224690327391" lon="16.704919481894322"><ele>1451.6</ele><time>2026-04-11T14:05:08.026Z</time></trkpt><trkpt lat="39.1322557271276" lon="16.704836908029183"><ele>1453.8</ele><time>2026-04-11T14:05:09.026Z</time></trkpt><trkpt lat="39.1322785480461" lon="16.704759653386212"><ele>1456.0</ele><time>2026-04-11T14:05:12.023Z</time></trkpt><trkpt lat="39.13226020578374" lon="16.704658166425315"><ele>1456.0</ele><time>2026-04-11T14:05:13.022Z</time></trkpt><trkpt lat="39.13223238135322" lon="16.70446513091067"><ele>1456.0</ele><time>2026-04-11T14:05:14.021Z</time></trkpt><trkpt lat="39.13226695932935" lon="16.704390962193436"><ele>1456.0</ele><time>2026-04-11T14:05:18.02Z</time></trkpt><trkpt lat="39.1323609400919" lon="16.70442764606584"><ele>1456.0</ele><time>2026-04-11T14:05:20.02Z</time></trkpt><trkpt lat="39.13242901652291" lon="16.7043145422252"><ele>1456.0</ele><time>2026-04-11T14:05:25.022Z</time></trkpt><trkpt lat="39.13240451989769" lon="16.704186966232392"><ele>1456.0</ele><time>2026-04-11T14:05:26.023Z</time></trkpt><trkpt lat="39.132399893139294" lon="16.70410264878753"><ele>1456.0</ele><time>2026-04-11T14:05:28.023Z</time></trkpt><trkpt lat="39.1323641672939" lon="16.704024097316132"><ele>1456.0</ele><time>2026-04-11T14:05:32.019Z</time></trkpt><trkpt lat="39.13234003509902" lon="16.704100759425398"><ele>1456.0</ele><time>2026-04-11T14:05:38.999Z</time></trkpt><trkpt lat="39.132268594981205" lon="16.704205829559072"><ele>1456.0</ele><time>2026-04-11T14:05:40.999Z</time></trkpt><trkpt lat="39.13219074387693" lon="16.704346851892"><ele>1456.0</ele><time>2026-04-11T14:05:43Z</time></trkpt><trkpt lat="39.13213195290721" lon="16.704423617098904"><ele>1456.0</ele><time>2026-04-11T14:05:45Z</time></trkpt><trkpt lat="39.13207531695173" lon="16.704489480428858"><ele>1456.0</ele><time>2026-04-11T14:05:47Z</time></trkpt><trkpt lat="39.132037666980224" lon="16.70456765571837"><ele>1456.0</ele><time>2026-04-11T14:05:50Z</time></trkpt><trkpt lat="39.13200109152691" lon="16.704656303405155"><ele>1456.0</ele><time>2026-04-11T14:05:53Z</time></trkpt><trkpt lat="39.13198430317804" lon="16.704766694033708"><ele>1456.0</ele><time>2026-04-11T14:05:56Z</time></trkpt><trkpt lat="39.13197614099903" lon="16.70486029749777"><ele>1456.0</ele><time>2026-04-11T14:05:59Z</time></trkpt><trkpt lat="39.13195067225621" lon="16.70495319255692"><ele>1456.0</ele><time>2026-04-11T14:06:02Z</time></trkpt><trkpt lat="39.131910210683216" lon="16.705070362554327"><ele>1456.0</ele><time>2026-04-11T14:06:04Z</time></trkpt><trkpt lat="39.13186688641855" lon="16.705203780828736"><ele>1456.0</ele><time>2026-04-11T14:06:06Z</time></trkpt><trkpt lat="39.131861404814934" lon="16.70529532862348"><ele>1456.0</ele><time>2026-04-11T14:06:07Z</time></trkpt><trkpt lat="39.13179470087998" lon="16.70536666380505"><ele>1456.0</ele><time>2026-04-11T14:06:08Z</time></trkpt><trkpt lat="39.131740346116416" lon="16.705411787614338"><ele>1456.0</ele><time>2026-04-11T14:06:09Z</time></trkpt><trkpt lat="39.13171118150717" lon="16.70549453735887"><ele>1453.8</ele><time>2026-04-11T14:06:10Z</time></trkpt><trkpt lat="39.13172422185507" lon="16.705613468288853"><ele>1451.6</ele><time>2026-04-11T14:06:11Z</time></trkpt><trkpt lat="39.13173607396812" lon="16.70573561344049"><ele>1449.4</ele><time>2026-04-11T14:06:13Z</time></trkpt><trkpt lat="39.131725661646584" lon="16.705823793276878"><ele>1447.2</ele><time>2026-04-11T14:06:14Z</time></trkpt><trkpt lat="39.13171478524182" lon="16.70599319267681"><ele>1445.0</ele><time>2026-04-11T14:06:16Z</time></trkpt><trkpt lat="39.131803461179565" lon="16.706100460485143"><ele>1443.2</ele><time>2026-04-11T14:06:18Z</time></trkpt><trkpt lat="39.13187884929191" lon="16.706196766391294"><ele>1441.4</ele><time>2026-04-11T14:06:19Z</time></trkpt><trkpt lat="39.13192576166352" lon="16.706267891194223"><ele>1439.6</ele><time>2026-04-11T14:06:20Z</time></trkpt><trkpt lat="39.13202962546312" lon="16.706350020451968"><ele>1437.8</ele><time>2026-04-11T14:06:22Z</time></trkpt><trkpt lat="39.132093945392334" lon="16.706395407598247"><ele>1436.0</ele><time>2026-04-11T14:06:23Z</time></trkpt><trkpt lat="39.13215938937778" lon="16.706446122603147"><ele>1436.0</ele><time>2026-04-11T14:06:24Z</time></trkpt><trkpt lat="39.132239407399695" lon="16.706470603327457"><ele>1436.0</ele><time>2026-04-11T14:06:25Z</time></trkpt><trkpt lat="39.13231994158098" lon="16.70654414321239"><ele>1436.0</ele><time>2026-04-11T14:06:26Z</time></trkpt><trkpt lat="39.132414457213706" lon="16.70662730506814"><ele>1436.0</ele><time>2026-04-11T14:06:27Z</time></trkpt><trkpt lat="39.13251122237063" lon="16.706686474923117"><ele>1436.0</ele><time>2026-04-11T14:06:28Z</time></trkpt><trkpt lat="39.1326210061559" lon="16.7067301438856"><ele>1438.3333333333335</ele><time>2026-04-11T14:06:29Z</time></trkpt><trkpt lat="39.13270874695472" lon="16.706734647913372"><ele>1440.6666666666667</ele><time>2026-04-11T14:06:30Z</time></trkpt><trkpt lat="39.13278905471778" lon="16.706730601265978"><ele>1443.0</ele><time>2026-04-11T14:06:31Z</time></trkpt><trkpt lat="39.13287377034954" lon="16.70671178776379"><ele>1445.3333333333333</ele><time>2026-04-11T14:06:32Z</time></trkpt><trkpt lat="39.132939761276376" lon="16.706725161682133"><ele>1447.6666666666665</ele><time>2026-04-11T14:06:33Z</time></trkpt><trkpt lat="39.13303008090362" lon="16.706706221224373"><ele>1450.0</ele><time>2026-04-11T14:06:34Z</time></trkpt><trkpt lat="39.13312991161347" lon="16.706674520512326"><ele>1449.4</ele><time>2026-04-11T14:06:35Z</time></trkpt><trkpt lat="39.13322559364224" lon="16.706631257603625"><ele>1448.8</ele><time>2026-04-11T14:06:36Z</time></trkpt><trkpt lat="39.13331745303805" lon="16.706572238029164"><ele>1448.1999999999998</ele><time>2026-04-11T14:06:37Z</time></trkpt><trkpt lat="39.13338273128576" lon="16.70651645672069"><ele>1447.6</ele><time>2026-04-11T14:06:38Z</time></trkpt><trkpt lat="39.13346354626133" lon="16.70645342312564"><ele>1447.0</ele><time>2026-04-11T14:06:39Z</time></trkpt><trkpt lat="39.13353613526013" lon="16.706436360626096"><ele>1447.0</ele><time>2026-04-11T14:06:39.999Z</time></trkpt><trkpt lat="39.133609805372416" lon="16.706422900938353"><ele>1447.0</ele><time>2026-04-11T14:06:41.999Z</time></trkpt><trkpt lat="39.133687621414474" lon="16.7063711628406"><ele>1447.0</ele><time>2026-04-11T14:06:43.999Z</time></trkpt><trkpt lat="39.13378482907907" lon="16.706331366431666"><ele>1447.0</ele><time>2026-04-11T14:06:45.999Z</time></trkpt><trkpt lat="39.13386963720854" lon="16.706215353493572"><ele>1447.0</ele><time>2026-04-11T14:06:47.999Z</time></trkpt><trkpt lat="39.133946190782325" lon="16.706159849217084"><ele>1447.5</ele><time>2026-04-11T14:06:50.999Z</time></trkpt><trkpt lat="39.13396129060694" lon="16.706056689865953"><ele>1448.0</ele><time>2026-04-11T14:06:51.999Z</time></trkpt><trkpt lat="39.13398762510358" lon="16.705959102703254"><ele>1448.5</ele><time>2026-04-11T14:06:54.999Z</time></trkpt><trkpt lat="39.133997681086264" lon="16.705855291004173"><ele>1449.0</ele><time>2026-04-11T14:06:56.999Z</time></trkpt><trkpt lat="39.13407828783783" lon="16.705766333002355"><ele>1449.5</ele><time>2026-04-11T14:06:58.999Z</time></trkpt><trkpt lat="39.13406684382986" lon="16.705680098731598"><ele>1450.0</ele><time>2026-04-11T14:06:59.999Z</time></trkpt><trkpt lat="39.13403222174436" lon="16.70556244017582"><ele>1453.4</ele><time>2026-04-11T14:07:01.999Z</time></trkpt><trkpt lat="39.13399863090168" lon="16.705460055379202"><ele>1456.8</ele><time>2026-04-11T14:07:02.999Z</time></trkpt><trkpt lat="39.134017393266575" lon="16.70535560700714"><ele>1460.1999999999998</ele><time>2026-04-11T14:07:04.999Z</time></trkpt><trkpt lat="39.134007990620375" lon="16.70525398415458"><ele>1463.6</ele><time>2026-04-11T14:07:07.999Z</time></trkpt><trkpt lat="39.13391581104489" lon="16.70515489819132"><ele>1467.0</ele><time>2026-04-11T14:07:09.999Z</time></trkpt><trkpt lat="39.133833413929" lon="16.705064455334902"><ele>1468.8</ele><time>2026-04-11T14:07:11.999Z</time></trkpt><trkpt lat="39.133721916526525" lon="16.705007137162784"><ele>1470.6</ele><time>2026-04-11T14:07:13.999Z</time></trkpt><trkpt lat="39.133570226200106" lon="16.70503124862848"><ele>1472.3999999999999</ele><time>2026-04-11T14:07:15.999Z</time></trkpt><trkpt lat="39.133478375871015" lon="16.70503114983057"><ele>1474.1999999999998</ele><time>2026-04-11T14:07:16.999Z</time></trkpt><trkpt lat="39.13341541071475" lon="16.705037129723667"><ele>1476.0</ele><time>2026-04-11T14:07:19.999Z</time></trkpt><trkpt lat="39.13338758287714" lon="16.704938209270917"><ele>1476.0</ele><time>2026-04-11T14:07:26.999Z</time></trkpt><trkpt lat="39.13337179946741" lon="16.704813741061248"><ele>1476.0</ele><time>2026-04-11T14:07:29.999Z</time></trkpt><trkpt lat="39.133352228465114" lon="16.70472299002123"><ele>1476.0</ele><time>2026-04-11T14:07:31.999Z</time></trkpt><trkpt lat="39.133363780595744" lon="16.7046295705452"><ele>1476.0</ele><time>2026-04-11T14:07:34.999Z</time></trkpt><trkpt lat="39.133425180836774" lon="16.704556519849653"><ele>1476.0</ele><time>2026-04-11T14:07:38.999Z</time></trkpt><trkpt lat="39.133434133032985" lon="16.7044757311317"><ele>1476.0</ele><time>2026-04-11T14:07:39.999Z</time></trkpt><trkpt lat="39.133426351171025" lon="16.704393802979528"><ele>1477.4</ele><time>2026-04-11T14:07:41.999Z</time></trkpt><trkpt lat="39.13345756466015" lon="16.704278030327526"><ele>1478.8</ele><time>2026-04-11T14:07:43.999Z</time></trkpt><trkpt lat="39.13351266353773" lon="16.704168175291223"><ele>1480.2</ele><time>2026-04-11T14:07:45.999Z</time></trkpt><trkpt lat="39.13357270279701" lon="16.704026341054714"><ele>1481.6000000000001</ele><time>2026-04-11T14:07:48Z</time></trkpt><trkpt lat="39.13363496925438" lon="16.703998125429976"><ele>1483.0</ele><time>2026-04-11T14:07:49Z</time></trkpt><trkpt lat="39.13369936475874" lon="16.703906805234492"><ele>1483.0</ele><time>2026-04-11T14:07:50Z</time></trkpt><trkpt lat="39.13375619711797" lon="16.7038127332684"><ele>1483.0</ele><time>2026-04-11T14:07:51Z</time></trkpt><trkpt lat="39.133824113659564" lon="16.70371986146097"><ele>1483.0</ele><time>2026-04-11T14:07:52Z</time></trkpt><trkpt lat="39.13386096911243" lon="16.70361146151274"><ele>1483.0</ele><time>2026-04-11T14:07:53Z</time></trkpt><trkpt lat="39.13394749620622" lon="16.703472524552613"><ele>1483.0</ele><time>2026-04-11T14:07:55Z</time></trkpt><trkpt lat="39.13401218520688" lon="16.7033898775757"><ele>1486.6000000000001</ele><time>2026-04-11T14:07:56Z</time></trkpt><trkpt lat="39.13406363065902" lon="16.703317740279527"><ele>1490.2</ele><time>2026-04-11T14:07:57Z</time></trkpt><trkpt lat="39.134093419596915" lon="16.70320565052057"><ele>1493.8</ele><time>2026-04-11T14:07:58Z</time></trkpt><trkpt lat="39.13419677189022" lon="16.703289005962976"><ele>1497.4</ele><time>2026-04-11T14:08:00Z</time></trkpt><trkpt lat="39.13416138726813" lon="16.703207259438287"><ele>1501.0</ele><time>2026-04-11T14:08:02Z</time></trkpt><trkpt lat="39.13410084764968" lon="16.703108649894308"><ele>1500.9999999999998</ele><time>2026-04-11T14:08:04Z</time></trkpt><trkpt lat="39.13405588114204" lon="16.703049036655898"><ele>1501.0</ele><time>2026-04-11T14:08:08Z</time></trkpt><trkpt lat="39.13404819360876" lon="16.702966297083446"><ele>1501.0</ele><time>2026-04-11T14:08:37Z</time></trkpt><trkpt lat="39.13412163467212" lon="16.702981925075893"><ele>1501.0</ele><time>2026-04-11T14:08:42Z</time></trkpt><trkpt lat="39.134185682248734" lon="16.702983484213537"><ele>1501.0</ele><time>2026-04-11T14:08:43Z</time></trkpt><trkpt lat="39.13425325064452" lon="16.703045228248545"><ele>1500.9999999999998</ele><time>2026-04-11T14:08:46Z</time></trkpt><trkpt lat="39.13430212316102" lon="16.70311846855311"><ele>1501.0</ele><time>2026-04-11T14:08:49Z</time></trkpt><trkpt lat="39.13428693694473" lon="16.703208129229566"><ele>1501.0</ele><time>2026-04-11T14:08:52Z</time></trkpt><trkpt lat="39.13424052165633" lon="16.70328386341122"><ele>1501.0</ele><time>2026-04-11T14:08:55Z</time></trkpt><trkpt lat="39.134231388037286" lon="16.703394565338098"><ele>1501.0</ele><time>2026-04-11T14:08:57Z</time></trkpt><trkpt lat="39.134192152125635" lon="16.703518828279165"><ele>1501.0</ele><time>2026-04-11T14:08:59.999Z</time></trkpt><trkpt lat="39.13417842014357" lon="16.703601140852328"><ele>1501.0</ele><time>2026-04-11T14:09:01.999Z</time></trkpt><trkpt lat="39.134176632010366" lon="16.70370540522377"><ele>1501.0</ele><time>2026-04-11T14:09:03.999Z</time></trkpt><trkpt lat="39.13415614379347" lon="16.703788563718465"><ele>1498.0</ele><time>2026-04-11T14:09:05.999Z</time></trkpt><trkpt lat="39.134169332443676" lon="16.703903065258753"><ele>1495.0</ele><time>2026-04-11T14:09:07.999Z</time></trkpt><trkpt lat="39.134189387879694" lon="16.70399486825126"><ele>1492.0</ele><time>2026-04-11T14:09:09.999Z</time></trkpt><trkpt lat="39.13416828108796" lon="16.704113246839643"><ele>1489.0</ele><time>2026-04-11T14:09:12.999Z</time></trkpt><trkpt lat="39.13417055444754" lon="16.70419983821971"><ele>1486.0</ele><time>2026-04-11T14:09:13.999Z</time></trkpt><trkpt lat="39.13416194333797" lon="16.704329924008587"><ele>1483.0</ele><time>2026-04-11T14:09:15.999Z</time></trkpt><trkpt lat="39.13415343915713" lon="16.704436565703457"><ele>1481.8333333333333</ele><time>2026-04-11T14:09:17.999Z</time></trkpt><trkpt lat="39.13413130572351" lon="16.704555923141104"><ele>1480.6666666666665</ele><time>2026-04-11T14:09:19.999Z</time></trkpt><trkpt lat="39.13409675576301" lon="16.704651218076258"><ele>1479.5</ele><time>2026-04-11T14:09:22.999Z</time></trkpt><trkpt lat="39.13404049974385" lon="16.70469417331781"><ele>1478.3333333333333</ele><time>2026-04-11T14:09:25.999Z</time></trkpt><trkpt lat="39.13397051428535" lon="16.704747090541726"><ele>1477.1666666666667</ele><time>2026-04-11T14:09:30.999Z</time></trkpt><trkpt lat="39.133902777175365" lon="16.704817052904993"><ele>1476.0</ele><time>2026-04-11T14:10:00Z</time></trkpt><trkpt lat="39.13387752140466" lon="16.704900391798514"><ele>1476.0</ele><time>2026-04-11T14:10:05Z</time></trkpt><trkpt lat="39.13386785961446" lon="16.70499566220824"><ele>1476.0</ele><time>2026-04-11T14:10:09Z</time></trkpt><trkpt lat="39.133881962786695" lon="16.70508010382984"><ele>1476.0</ele><time>2026-04-11T14:10:16Z</time></trkpt><trkpt lat="39.133917787142025" lon="16.705177786565862"><ele>1476.0</ele><time>2026-04-11T14:10:20Z</time></trkpt><trkpt lat="39.13392416102406" lon="16.705260177226634"><ele>1476.0</ele><time>2026-04-11T14:10:22Z</time></trkpt><trkpt lat="39.133954964882605" lon="16.705336296614313"><ele>1476.0</ele><time>2026-04-11T14:10:26Z</time></trkpt><trkpt lat="39.13396738217099" lon="16.705421153445034"><ele>1476.0</ele><time>2026-04-11T14:10:35Z</time></trkpt><trkpt lat="39.13398773078203" lon="16.70550501734263"><ele>1474.5</ele><time>2026-04-11T14:10:39Z</time></trkpt><trkpt lat="39.133983094589745" lon="16.705588589278506"><ele>1473.0</ele><time>2026-04-11T14:10:42Z</time></trkpt><trkpt lat="39.13403042048328" lon="16.70567773656557"><ele>1471.5</ele><time>2026-04-11T14:10:45Z</time></trkpt><trkpt lat="39.13409722002424" lon="16.705761573368218"><ele>1470.0</ele><time>2026-04-11T14:10:48Z</time></trkpt><trkpt lat="39.13415601210388" lon="16.705830503057147"><ele>1468.5</ele><time>2026-04-11T14:10:51Z</time></trkpt><trkpt lat="39.13413459846324" lon="16.7059091014106"><ele>1467.0</ele><time>2026-04-11T14:11:08.999Z</time></trkpt><trkpt lat="39.13406534803208" lon="16.705943912853538"><ele>1467.0</ele><time>2026-04-11T14:11:11.999Z</time></trkpt><trkpt lat="39.13404916111836" lon="16.70604059179893"><ele>1467.0</ele><time>2026-04-11T14:11:13.999Z</time></trkpt><trkpt lat="39.133995254818196" lon="16.706123135905873"><ele>1467.0</ele><time>2026-04-11T14:11:17.999Z</time></trkpt><trkpt lat="39.13393909868566" lon="16.706164538361833"><ele>1467.0</ele><time>2026-04-11T14:11:19.999Z</time></trkpt><trkpt lat="39.13386211628623" lon="16.706221789610474"><ele>1467.0</ele><time>2026-04-11T14:11:21.999Z</time></trkpt><trkpt lat="39.13379026084142" lon="16.706293601954094"><ele>1467.0</ele><time>2026-04-11T14:11:22.999Z</time></trkpt><trkpt lat="39.13373881190425" lon="16.706343280952485"><ele>1462.0</ele><time>2026-04-11T14:11:23.999Z</time></trkpt><trkpt lat="39.13364306429497" lon="16.706455515453587"><ele>1457.0</ele><time>2026-04-11T14:11:25.999Z</time></trkpt><trkpt lat="39.13356005035049" lon="16.706536676148765"><ele>1452.0</ele><time>2026-04-11T14:11:26.999Z</time></trkpt><trkpt lat="39.133433046319524" lon="16.706609750270868"><ele>1447.0</ele><time>2026-04-11T14:11:27.999Z</time></trkpt><trkpt lat="39.13329817269004" lon="16.706684088016857"><ele>1447.75</ele><time>2026-04-11T14:11:28.999Z</time></trkpt><trkpt lat="39.133164234064125" lon="16.706779951024192"><ele>1448.5</ele><time>2026-04-11T14:11:29.999Z</time></trkpt><trkpt lat="39.133036587533034" lon="16.706858076914532"><ele>1449.25</ele><time>2026-04-11T14:11:30.999Z</time></trkpt><trkpt lat="39.132938616881596" lon="16.70692773819554"><ele>1450.0</ele><time>2026-04-11T14:11:31.999Z</time></trkpt><trkpt lat="39.13280193579594" lon="16.707017444387425"><ele>1450.0</ele><time>2026-04-11T14:11:32.999Z</time></trkpt><trkpt lat="39.132693714139904" lon="16.707076500272418"><ele>1450.0</ele><time>2026-04-11T14:11:33.999Z</time></trkpt><trkpt lat="39.13261619590919" lon="16.70705799130905"><ele>1450.0</ele><time>2026-04-11T14:11:34.999Z</time></trkpt><trkpt lat="39.13250728114628" lon="16.706947902190894"><ele>1450.0</ele><time>2026-04-11T14:11:35.999Z</time></trkpt><trkpt lat="39.13240903698574" lon="16.70689340237767"><ele>1450.0</ele><time>2026-04-11T14:11:37.999Z</time></trkpt><trkpt lat="39.13227870063322" lon="16.70690895118737"><ele>1446.8333333333333</ele><time>2026-04-11T14:11:39.999Z</time></trkpt><trkpt lat="39.1322187980628" lon="16.7070246490186"><ele>1443.6666666666665</ele><time>2026-04-11T14:11:40.999Z</time></trkpt><trkpt lat="39.13213893456708" lon="16.707057568452647"><ele>1440.5</ele><time>2026-04-11T14:11:41.999Z</time></trkpt><trkpt lat="39.132060360289536" lon="16.707069040501214"><ele>1437.3333333333333</ele><time>2026-04-11T14:11:42.999Z</time></trkpt><trkpt lat="39.13198720496962" lon="16.7071046373582"><ele>1434.1666666666667</ele><time>2026-04-11T14:11:43.999Z</time></trkpt><trkpt lat="39.131905829308145" lon="16.707132573228346"><ele>1431.0</ele><time>2026-04-11T14:11:44.999Z</time></trkpt><trkpt lat="39.13182112451785" lon="16.70714734745335"><ele>1431.0</ele><time>2026-04-11T14:11:45.999Z</time></trkpt><trkpt lat="39.13173988001092" lon="16.707157361616577"><ele>1431.0</ele><time>2026-04-11T14:11:46.999Z</time></trkpt><trkpt lat="39.13166090476516" lon="16.707175633216877"><ele>1431.0</ele><time>2026-04-11T14:11:47.999Z</time></trkpt><trkpt lat="39.131627721645806" lon="16.707022847939598"><ele>1431.0</ele><time>2026-04-11T14:11:48.999Z</time></trkpt><trkpt lat="39.131561481879814" lon="16.70698510135205"><ele>1431.0</ele><time>2026-04-11T14:11:49.999Z</time></trkpt><trkpt lat="39.13146424651459" lon="16.706765507503757"><ele>1432.3333333333333</ele><time>2026-04-11T14:11:50.999Z</time></trkpt><trkpt lat="39.131345892047385" lon="16.706507435167083"><ele>1433.6666666666665</ele><time>2026-04-11T14:11:51.999Z</time></trkpt><trkpt lat="39.13131077022689" lon="16.706280539154402"><ele>1435.0</ele><time>2026-04-11T14:11:52.999Z</time></trkpt><trkpt lat="39.13132537230681" lon="16.706086835311403"><ele>1436.2857142857142</ele><time>2026-04-11T14:11:53.999Z</time></trkpt><trkpt lat="39.13133761492037" lon="16.705978987292323"><ele>1437.5714285714284</ele><time>2026-04-11T14:11:55.999Z</time></trkpt><trkpt lat="39.131323946466026" lon="16.705888485489677"><ele>1438.857142857143</ele><time>2026-04-11T14:11:58Z</time></trkpt><trkpt lat="39.131344813568035" lon="16.70580875727224"><ele>1440.142857142857</ele><time>2026-04-11T14:12:00Z</time></trkpt><trkpt lat="39.13136330151273" lon="16.70572794985352"><ele>1441.4285714285713</ele><time>2026-04-11T14:12:04Z</time></trkpt><trkpt lat="39.131324744105235" lon="16.705655423911516"><ele>1442.7142857142858</ele><time>2026-04-11T14:12:07Z</time></trkpt><trkpt lat="39.131260517200325" lon="16.705669742550203"><ele>1444.0</ele><time>2026-04-11T14:12:09Z</time></trkpt><trkpt lat="39.13120095813397" lon="16.705730354941245"><ele>1444.0</ele><time>2026-04-11T14:12:11Z</time></trkpt><trkpt lat="39.131165562002245" lon="16.70581120878189"><ele>1444.0</ele><time>2026-04-11T14:12:13Z</time></trkpt><trkpt lat="39.131136033709446" lon="16.705883490222664"><ele>1444.0</ele><time>2026-04-11T14:12:16Z</time></trkpt><trkpt lat="39.13109115908351" lon="16.705941972932223"><ele>1444.0</ele><time>2026-04-11T14:12:25Z</time></trkpt><trkpt lat="39.131021822649416" lon="16.706011575083643"><ele>1444.0</ele><time>2026-04-11T14:12:43Z</time></trkpt><trkpt lat="39.130975155966475" lon="16.706067079469268"><ele>1444.0</ele><time>2026-04-11T14:12:46Z</time></trkpt><trkpt lat="39.130901229975805" lon="16.706035580864903"><ele>1444.0</ele><time>2026-04-11T14:12:48Z</time></trkpt><trkpt lat="39.13080677105407" lon="16.706017610313953"><ele>1445.2</ele><time>2026-04-11T14:12:50Z</time></trkpt><trkpt lat="39.13068400755143" lon="16.706024213559804"><ele>1446.4</ele><time>2026-04-11T14:12:52Z</time></trkpt><trkpt lat="39.13059950136181" lon="16.706050835281125"><ele>1447.6</ele><time>2026-04-11T14:12:53Z</time></trkpt><trkpt lat="39.130493039235176" lon="16.706087936401293"><ele>1448.8</ele><time>2026-04-11T14:12:54Z</time></trkpt><trkpt lat="39.130380128377425" lon="16.706140510198956"><ele>1450.0</ele><time>2026-04-11T14:12:55Z</time></trkpt><trkpt lat="39.13029346731532" lon="16.706179634560602"><ele>1450.0</ele><time>2026-04-11T14:12:56Z</time></trkpt><trkpt lat="39.13021054996384" lon="16.706262941402912"><ele>1450.0</ele><time>2026-04-11T14:12:57Z</time></trkpt><trkpt lat="39.13010928087902" lon="16.70636971694658"><ele>1450.0</ele><time>2026-04-11T14:12:58Z</time></trkpt><trkpt lat="39.13001205732366" lon="16.70646755409018"><ele>1450.0</ele><time>2026-04-11T14:12:59Z</time></trkpt><trkpt lat="39.129943239797484" lon="16.706561824774383"><ele>1450.8</ele><time>2026-04-11T14:13:00Z</time></trkpt><trkpt lat="39.129875806579115" lon="16.70663514417376"><ele>1451.6</ele><time>2026-04-11T14:13:01Z</time></trkpt><trkpt lat="39.12979969274661" lon="16.70674573691518"><ele>1452.4</ele><time>2026-04-11T14:13:02Z</time></trkpt><trkpt lat="39.129744796473794" lon="16.706815321277812"><ele>1453.2</ele><time>2026-04-11T14:13:03Z</time></trkpt><trkpt lat="39.12968033934825" lon="16.706950781615305"><ele>1454.0</ele><time>2026-04-11T14:13:05Z</time></trkpt><trkpt lat="39.12964961189775" lon="16.707097202945654"><ele>1454.0</ele><time>2026-04-11T14:13:07Z</time></trkpt><trkpt lat="39.12960061715353" lon="16.70718919320423"><ele>1454.0</ele><time>2026-04-11T14:13:09Z</time></trkpt><trkpt lat="39.1295793552187" lon="16.707299049759616"><ele>1454.0</ele><time>2026-04-11T14:13:11Z</time></trkpt><trkpt lat="39.129539289701725" lon="16.707386387174214"><ele>1454.0</ele><time>2026-04-11T14:13:13Z</time></trkpt><trkpt lat="39.12952912992819" lon="16.70750466834814"><ele>1454.0</ele><time>2026-04-11T14:13:15Z</time></trkpt><trkpt lat="39.12952785890273" lon="16.7076329439444"><ele>1454.0</ele><time>2026-04-11T14:13:17Z</time></trkpt><trkpt lat="39.12952069042505" lon="16.707720246237432"><ele>1450.8333333333335</ele><time>2026-04-11T14:13:20Z</time></trkpt><trkpt lat="39.12949666728987" lon="16.70781436883166"><ele>1447.6666666666667</ele><time>2026-04-11T14:13:23Z</time></trkpt><trkpt lat="39.12948306778586" lon="16.70792215224391"><ele>1444.5</ele><time>2026-04-11T14:13:26Z</time></trkpt><trkpt lat="39.12944698574343" lon="16.708016119523176"><ele>1441.3333333333333</ele><time>2026-04-11T14:13:28.999Z</time></trkpt><trkpt lat="39.12940011093512" lon="16.70809318348377"><ele>1438.1666666666665</ele><time>2026-04-11T14:13:31.999Z</time></trkpt><trkpt lat="39.12932039723138" lon="16.70816767258796"><ele>1435.0</ele><time>2026-04-11T14:13:33.999Z</time></trkpt><trkpt lat="39.12926617540555" lon="16.7082345412704"><ele>1435.0</ele><time>2026-04-11T14:13:35.999Z</time></trkpt><trkpt lat="39.12919334210063" lon="16.708294122198424"><ele>1435.0</ele><time>2026-04-11T14:13:37.999Z</time></trkpt><trkpt lat="39.129101289281614" lon="16.7083990667963"><ele>1435.0</ele><time>2026-04-11T14:13:39.999Z</time></trkpt><trkpt lat="39.12906164443357" lon="16.70847599978006"><ele>1435.0</ele><time>2026-04-11T14:13:41.999Z</time></trkpt><trkpt lat="39.12899645260507" lon="16.70856433802937"><ele>1435.0</ele><time>2026-04-11T14:13:44.999Z</time></trkpt><trkpt lat="39.12897971968085" lon="16.708657280648563"><ele>1435.0</ele><time>2026-04-11T14:13:47.999Z</time></trkpt><trkpt lat="39.12902706148309" lon="16.70874913697534"><ele>1435.1666666666665</ele><time>2026-04-11T14:13:49.999Z</time></trkpt><trkpt lat="39.12905116938588" lon="16.708837337480066"><ele>1435.3333333333333</ele><time>2026-04-11T14:13:51.999Z</time></trkpt><trkpt lat="39.12907409199008" lon="16.708933107855856"><ele>1435.5</ele><time>2026-04-11T14:13:53.999Z</time></trkpt><trkpt lat="39.12905929833881" lon="16.709085993434538"><ele>1435.6666666666667</ele><time>2026-04-11T14:13:55.999Z</time></trkpt><trkpt lat="39.1290176473553" lon="16.70916087512037"><ele>1435.8333333333335</ele><time>2026-04-11T14:13:57.999Z</time></trkpt><trkpt lat="39.129001041936554" lon="16.70924657334956"><ele>1436.0</ele><time>2026-04-11T14:13:58.999Z</time></trkpt><trkpt lat="39.128924414225345" lon="16.709327493935493"><ele>1432.8</ele><time>2026-04-11T14:14:00.999Z</time></trkpt><trkpt lat="39.128951993640754" lon="16.709426269132113"><ele>1429.6</ele><time>2026-04-11T14:14:02.999Z</time></trkpt><trkpt lat="39.128926591008515" lon="16.70955519080405"><ele>1426.4</ele><time>2026-04-11T14:14:05Z</time></trkpt><trkpt lat="39.12888157471122" lon="16.709654703919675"><ele>1423.2</ele><time>2026-04-11T14:14:08Z</time></trkpt><trkpt lat="39.12880463629778" lon="16.709741550381946"><ele>1420.0</ele><time>2026-04-11T14:14:10Z</time></trkpt><trkpt lat="39.12882110587528" lon="16.709840311435297"><ele>1420.0</ele><time>2026-04-11T14:14:12Z</time></trkpt><trkpt lat="39.128851583777006" lon="16.709936612056403"><ele>1420.0</ele><time>2026-04-11T14:14:14Z</time></trkpt><trkpt lat="39.12882621474796" lon="16.710030229789847"><ele>1420.0</ele><time>2026-04-11T14:14:16Z</time></trkpt><trkpt lat="39.128780927700056" lon="16.710150414813075"><ele>1420.0</ele><time>2026-04-11T14:14:19Z</time></trkpt><trkpt lat="39.12872599671199" lon="16.71022721177962"><ele>1420.0</ele><time>2026-04-11T14:14:22Z</time></trkpt><trkpt lat="39.12866229325524" lon="16.710282817798447"><ele>1420.0</ele><time>2026-04-11T14:14:24Z</time></trkpt><trkpt lat="39.128613179260675" lon="16.71037114366081"><ele>1416.2</ele><time>2026-04-11T14:14:27Z</time></trkpt><trkpt lat="39.12855627047105" lon="16.710468251078485"><ele>1412.4</ele><time>2026-04-11T14:14:30Z</time></trkpt><trkpt lat="39.128536450808724" lon="16.710583018127895"><ele>1408.6</ele><time>2026-04-11T14:14:32Z</time></trkpt><trkpt lat="39.128477693054386" lon="16.710684278990737"><ele>1404.8</ele><time>2026-04-11T14:14:34Z</time></trkpt><trkpt lat="39.12840130646345" lon="16.71076487859796"><ele>1401.0</ele><time>2026-04-11T14:14:36Z</time></trkpt><trkpt lat="39.12830780167676" lon="16.710841357718046"><ele>1400.6</ele><time>2026-04-11T14:14:38Z</time></trkpt><trkpt lat="39.12822098836386" lon="16.71092387940879"><ele>1400.1999999999998</ele><time>2026-04-11T14:14:40Z</time></trkpt><trkpt lat="39.12814940105844" lon="16.71099447336668"><ele>1399.8000000000002</ele><time>2026-04-11T14:14:41Z</time></trkpt><trkpt lat="39.1280471145882" lon="16.711012428305573"><ele>1399.4</ele><time>2026-04-11T14:14:42Z</time></trkpt><trkpt lat="39.12792648315905" lon="16.711074593109515"><ele>1399.0</ele><time>2026-04-11T14:14:44Z</time></trkpt><trkpt lat="39.12786863139068" lon="16.71116458737851"><ele>1399.0</ele><time>2026-04-11T14:14:46Z</time></trkpt><trkpt lat="39.12781325932591" lon="16.711279636714682"><ele>1399.0</ele><time>2026-04-11T14:14:48Z</time></trkpt><trkpt lat="39.12775355028943" lon="16.71136992471057"><ele>1399.0</ele><time>2026-04-11T14:14:50Z</time></trkpt><trkpt lat="39.12775046987181" lon="16.711454953523507"><ele>1399.0</ele><time>2026-04-11T14:14:51Z</time></trkpt><trkpt lat="39.12776620169728" lon="16.711541056047547"><ele>1399.0</ele><time>2026-04-11T14:14:52Z</time></trkpt><trkpt lat="39.12779163140713" lon="16.711618722975285"><ele>1399.0</ele><time>2026-04-11T14:14:53Z</time></trkpt><trkpt lat="39.1278372547783" lon="16.711689215022695"><ele>1399.0</ele><time>2026-04-11T14:14:55Z</time></trkpt><trkpt lat="39.12786642021939" lon="16.711770511070295"><ele>1399.0</ele><time>2026-04-11T14:14:56Z</time></trkpt><trkpt lat="39.12787606538365" lon="16.711854860392382"><ele>1399.0</ele><time>2026-04-11T14:14:57Z</time></trkpt><trkpt lat="39.127835288610164" lon="16.711979359975235"><ele>1399.0</ele><time>2026-04-11T14:14:59Z</time></trkpt><trkpt lat="39.127880646456234" lon="16.712104454296338"><ele>1399.0</ele><time>2026-04-11T14:15:01Z</time></trkpt><trkpt lat="39.127934860316856" lon="16.71219997121942"><ele>1399.0</ele><time>2026-04-11T14:15:03Z</time></trkpt><trkpt lat="39.128008001306036" lon="16.712238608273175"><ele>1398.5</ele><time>2026-04-11T14:15:05Z</time></trkpt><trkpt lat="39.128072669697865" lon="16.712296312328757"><ele>1398.0</ele><time>2026-04-11T14:15:07Z</time></trkpt><trkpt lat="39.12814513643533" lon="16.712357194325026"><ele>1397.5</ele><time>2026-04-11T14:15:09Z</time></trkpt><trkpt lat="39.12818192547058" lon="16.71242738980284"><ele>1397.0</ele><time>2026-04-11T14:15:11Z</time></trkpt><trkpt lat="39.12824984511031" lon="16.71247163629015"><ele>1396.5</ele><time>2026-04-11T14:15:15Z</time></trkpt><trkpt lat="39.12826432491144" lon="16.712599712503856"><ele>1396.0</ele><time>2026-04-11T14:15:17Z</time></trkpt><trkpt lat="39.128268557858085" lon="16.71272882253628"><ele>1392.1999999999998</ele><time>2026-04-11T14:15:19Z</time></trkpt><trkpt lat="39.1283243398968" lon="16.71282445763531"><ele>1388.3999999999999</ele><time>2026-04-11T14:15:21Z</time></trkpt><trkpt lat="39.12836778907702" lon="16.712938421039166"><ele>1384.6</ele><time>2026-04-11T14:15:23Z</time></trkpt><trkpt lat="39.12843565165355" lon="16.71304990312275"><ele>1380.8</ele><time>2026-04-11T14:15:25Z</time></trkpt><trkpt lat="39.12850451654901" lon="16.71317261421368"><ele>1377.0</ele><time>2026-04-11T14:15:27Z</time></trkpt><trkpt lat="39.128510887232075" lon="16.713262000673918"><ele>1377.0</ele><time>2026-04-11T14:15:29Z</time></trkpt><trkpt lat="39.12852097562307" lon="16.71334316372363"><ele>1377.0</ele><time>2026-04-11T14:15:30Z</time></trkpt><trkpt lat="39.12862612771991" lon="16.71345758788436"><ele>1377.0</ele><time>2026-04-11T14:15:31Z</time></trkpt><trkpt lat="39.1286239774013" lon="16.713579450391304"><ele>1377.0</ele><time>2026-04-11T14:15:32Z</time></trkpt><trkpt lat="39.12864421446484" lon="16.713714863073314"><ele>1377.0</ele><time>2026-04-11T14:15:33Z</time></trkpt><trkpt lat="39.12861228932768" lon="16.713859296437043"><ele>1377.1666666666667</ele><time>2026-04-11T14:15:34Z</time></trkpt><trkpt lat="39.12857379077034" lon="16.713950713372842"><ele>1377.3333333333333</ele><time>2026-04-11T14:15:35Z</time></trkpt><trkpt lat="39.12858453810064" lon="16.714056190503474"><ele>1377.5</ele><time>2026-04-11T14:15:36Z</time></trkpt><trkpt lat="39.12851555186962" lon="16.714123807791488"><ele>1377.6666666666665</ele><time>2026-04-11T14:15:38Z</time></trkpt><trkpt lat="39.12845932047102" lon="16.714223314802958"><ele>1377.8333333333333</ele><time>2026-04-11T14:15:39Z</time></trkpt><trkpt lat="39.12839487507274" lon="16.714308101318387"><ele>1378.0</ele><time>2026-04-11T14:15:40Z</time></trkpt><trkpt lat="39.12836039012462" lon="16.714402260324665"><ele>1377.5</ele><time>2026-04-11T14:15:41Z</time></trkpt><trkpt lat="39.12833632592592" lon="16.71449481980494"><ele>1377.0</ele><time>2026-04-11T14:15:42Z</time></trkpt><trkpt lat="39.12830890373123" lon="16.71458943210301"><ele>1376.5</ele><time>2026-04-11T14:15:43Z</time></trkpt><trkpt lat="39.12825038322762" lon="16.714648878076375"><ele>1376.0</ele><time>2026-04-11T14:15:44Z</time></trkpt><trkpt lat="39.128196281662696" lon="16.714723099981196"><ele>1375.5</ele><time>2026-04-11T14:15:45Z</time></trkpt><trkpt lat="39.12819326336223" lon="16.71482928615429"><ele>1375.0</ele><time>2026-04-11T14:15:46Z</time></trkpt><trkpt lat="39.12809550104444" lon="16.71492020381607"><ele>1375.0</ele><time>2026-04-11T14:15:48Z</time></trkpt><trkpt lat="39.12805163766581" lon="16.714980126282597"><ele>1375.0</ele><time>2026-04-11T14:15:49Z</time></trkpt><trkpt lat="39.12797125557425" lon="16.715037235402054"><ele>1375.0</ele><time>2026-04-11T14:15:50Z</time></trkpt><trkpt lat="39.12791153090589" lon="16.71514468096056"><ele>1375.0</ele><time>2026-04-11T14:15:52Z</time></trkpt><trkpt lat="39.12783912010002" lon="16.715221405978955"><ele>1375.0</ele><time>2026-04-11T14:15:54Z</time></trkpt><trkpt lat="39.12781297476954" lon="16.71508985810266"><ele>1375.0</ele><time>2026-04-11T14:15:57Z</time></trkpt><trkpt lat="39.127721755955704" lon="16.71505910066297"><ele>1375.0</ele><time>2026-04-11T14:15:58.999Z</time></trkpt><trkpt lat="39.12763502572265" lon="16.714960797068834"><ele>1375.0</ele><time>2026-04-11T14:16:00.999Z</time></trkpt><trkpt lat="39.12756238219331" lon="16.714914279806717"><ele>1375.0</ele><time>2026-04-11T14:16:01.999Z</time></trkpt><trkpt lat="39.127502681888785" lon="16.714866979631843"><ele>1375.0</ele><time>2026-04-11T14:16:02.999Z</time></trkpt><trkpt lat="39.127444898381526" lon="16.714772698197528"><ele>1375.0</ele><time>2026-04-11T14:16:03.999Z</time></trkpt><trkpt lat="39.1274094922676" lon="16.714883642291767"><ele>1375.0</ele><time>2026-04-11T14:16:06.999Z</time></trkpt><trkpt lat="39.12737028338689" lon="16.714995885169657"><ele>1375.0</ele><time>2026-04-11T14:16:10Z</time></trkpt><trkpt lat="39.12737921347857" lon="16.715153094836403"><ele>1375.0</ele><time>2026-04-11T14:16:13Z</time></trkpt><trkpt lat="39.12731241007584" lon="16.715182098023025"><ele>1375.0</ele><time>2026-04-11T14:16:16Z</time></trkpt><trkpt lat="39.127322980559235" lon="16.71530695219916"><ele>1374.6</ele><time>2026-04-11T14:16:17Z</time></trkpt><trkpt lat="39.12727217568391" lon="16.71545235270647"><ele>1374.2</ele><time>2026-04-11T14:16:20Z</time></trkpt><trkpt lat="39.12718478661731" lon="16.715497131216154"><ele>1373.8000000000002</ele><time>2026-04-11T14:16:22Z</time></trkpt><trkpt lat="39.1271378648614" lon="16.71557033210276"><ele>1373.4</ele><time>2026-04-11T14:16:23Z</time></trkpt><trkpt lat="39.12714000968785" lon="16.715673672408407"><ele>1373.0</ele><time>2026-04-11T14:16:26Z</time></trkpt><trkpt lat="39.12717487934761" lon="16.715800672417306"><ele>1373.0</ele><time>2026-04-11T14:16:28Z</time></trkpt><trkpt lat="39.12720507208637" lon="16.71594999052515"><ele>1373.0</ele><time>2026-04-11T14:16:30Z</time></trkpt><trkpt lat="39.127240675168785" lon="16.716050413919728"><ele>1373.0</ele><time>2026-04-11T14:16:31Z</time></trkpt><trkpt lat="39.12726166623431" lon="16.716133244965267"><ele>1373.0</ele><time>2026-04-11T14:16:32Z</time></trkpt><trkpt lat="39.12723363326088" lon="16.716246413033137"><ele>1373.0</ele><time>2026-04-11T14:16:35Z</time></trkpt><trkpt lat="39.1272097083559" lon="16.716350921827903"><ele>1372.6666666666667</ele><time>2026-04-11T14:16:37Z</time></trkpt><trkpt lat="39.12723436858367" lon="16.716438383913495"><ele>1372.3333333333335</ele><time>2026-04-11T14:16:39Z</time></trkpt><trkpt lat="39.12725036038028" lon="16.716518998416515"><ele>1372.0</ele><time>2026-04-11T14:16:41Z</time></trkpt><trkpt lat="39.12724855051659" lon="16.71661928335288"><ele>1371.6666666666667</ele><time>2026-04-11T14:16:43Z</time></trkpt><trkpt lat="39.12721670450462" lon="16.716725627841722"><ele>1371.3333333333333</ele><time>2026-04-11T14:16:45Z</time></trkpt><trkpt lat="39.12721154213458" lon="16.71681298627269"><ele>1371.0</ele><time>2026-04-11T14:16:47Z</time></trkpt><trkpt lat="39.12726672027188" lon="16.716936093890375"><ele>1366.25</ele><time>2026-04-11T14:16:49Z</time></trkpt><trkpt lat="39.127319303296304" lon="16.71703485802291"><ele>1361.5</ele><time>2026-04-11T14:16:51Z</time></trkpt><trkpt lat="39.12736412145917" lon="16.717178929870748"><ele>1356.75</ele><time>2026-04-11T14:16:53Z</time></trkpt><trkpt lat="39.12738630581821" lon="16.717342781683975"><ele>1352.0</ele><time>2026-04-11T14:16:55Z</time></trkpt><trkpt lat="39.12737857841496" lon="16.717508649915565"><ele>1352.0</ele><time>2026-04-11T14:16:57Z</time></trkpt><trkpt lat="39.12737987835272" lon="16.717670523131794"><ele>1352.0</ele><time>2026-04-11T14:16:59Z</time></trkpt><trkpt lat="39.12735742613036" lon="16.717806441147967"><ele>1352.0</ele><time>2026-04-11T14:17:01Z</time></trkpt><trkpt lat="39.12738814284367" lon="16.71790147023119"><ele>1352.0</ele><time>2026-04-11T14:17:02Z</time></trkpt><trkpt lat="39.127386915657375" lon="16.71800310037931"><ele>1352.0</ele><time>2026-04-11T14:17:03Z</time></trkpt><trkpt lat="39.12739170716022" lon="16.71811144562125"><ele>1348.1999999999998</ele><time>2026-04-11T14:17:04Z</time></trkpt><trkpt lat="39.1274078634137" lon="16.71822379624648"><ele>1344.4</ele><time>2026-04-11T14:17:05Z</time></trkpt><trkpt lat="39.127379245468006" lon="16.71832045737036"><ele>1340.6</ele><time>2026-04-11T14:17:06Z</time></trkpt><trkpt lat="39.12739154428082" lon="16.718514710893533"><ele>1336.8000000000002</ele><time>2026-04-11T14:17:08Z</time></trkpt><trkpt lat="39.12741137222874" lon="16.718625392648505"><ele>1333.0</ele><time>2026-04-11T14:17:09Z</time></trkpt><trkpt lat="39.12739687100896" lon="16.71871986837566"><ele>1329.6000000000001</ele><time>2026-04-11T14:17:10Z</time></trkpt><trkpt lat="39.12743489511626" lon="16.718817735394534"><ele>1326.2</ele><time>2026-04-11T14:17:11Z</time></trkpt><trkpt lat="39.12745650083735" lon="16.718966278517644"><ele>1322.8</ele><time>2026-04-11T14:17:12Z</time></trkpt><trkpt lat="39.127438968165144" lon="16.71904653090654"><ele>1319.4</ele><time>2026-04-11T14:17:13Z</time></trkpt><trkpt lat="39.12741514486692" lon="16.719180457482242"><ele>1316.0</ele><time>2026-04-11T14:17:15Z</time></trkpt><trkpt lat="39.12737208460134" lon="16.719291722800694"><ele>1316.0</ele><time>2026-04-11T14:17:17Z</time></trkpt><trkpt lat="39.1273248140604" lon="16.719353539693213"><ele>1316.0</ele><time>2026-04-11T14:17:19Z</time></trkpt><trkpt lat="39.1272351509687" lon="16.719390700061243"><ele>1316.0</ele><time>2026-04-11T14:17:21Z</time></trkpt><trkpt lat="39.12717304969617" lon="16.719422624316504"><ele>1316.0</ele><time>2026-04-11T14:17:23Z</time></trkpt><trkpt lat="39.12709891425487" lon="16.719430389535336"><ele>1316.0</ele><time>2026-04-11T14:17:25Z</time></trkpt><trkpt lat="39.127038161354555" lon="16.719453035767273"><ele>1316.0</ele><time>2026-04-11T14:17:28Z</time></trkpt><trkpt lat="39.12697974299842" lon="16.719490207460804"><ele>1316.0</ele><time>2026-04-11T14:17:29Z</time></trkpt><trkpt lat="39.12689295319543" lon="16.719593267899942"><ele>1313.1999999999998</ele><time>2026-04-11T14:17:31Z</time></trkpt><trkpt lat="39.12682114711981" lon="16.719735243265802"><ele>1310.3999999999999</ele><time>2026-04-11T14:17:33Z</time></trkpt><trkpt lat="39.1267419380742" lon="16.719738472894488"><ele>1307.6</ele><time>2026-04-11T14:17:35Z</time></trkpt><trkpt lat="39.12678090391634" lon="16.719825758458526"><ele>1304.8</ele><time>2026-04-11T14:17:40Z</time></trkpt><trkpt lat="39.12679770957851" lon="16.719715300964634"><ele>1302.0</ele><time>2026-04-11T14:18:09Z</time></trkpt><trkpt lat="39.12684822881178" lon="16.719597710908396"><ele>1302.0</ele><time>2026-04-11T14:18:11.999Z</time></trkpt><trkpt lat="39.12694051928882" lon="16.719549869419655"><ele>1302.0</ele><time>2026-04-11T14:18:13.999Z</time></trkpt><trkpt lat="39.12704025451709" lon="16.719482528323"><ele>1302.0</ele><time>2026-04-11T14:18:15.999Z</time></trkpt><trkpt lat="39.127177301055674" lon="16.719395738862783"><ele>1302.0</ele><time>2026-04-11T14:18:17.999Z</time></trkpt><trkpt lat="39.1272699192051" lon="16.719422051370195"><ele>1303.6666666666667</ele><time>2026-04-11T14:18:20.999Z</time></trkpt><trkpt lat="39.1273639716972" lon="16.71939137312627"><ele>1305.3333333333333</ele><time>2026-04-11T14:18:23.999Z</time></trkpt><trkpt lat="39.12743054411056" lon="16.719302874177064"><ele>1307.0</ele><time>2026-04-11T14:18:25.999Z</time></trkpt><trkpt lat="39.127446151175086" lon="16.71922419230218"><ele>1308.6666666666665</ele><time>2026-04-11T14:18:28.999Z</time></trkpt><trkpt lat="39.12750753224329" lon="16.719127434839905"><ele>1310.3333333333333</ele><time>2026-04-11T14:18:31.999Z</time></trkpt><trkpt lat="39.127577166365704" lon="16.719064635471682"><ele>1312.0</ele><time>2026-04-11T14:18:32.999Z</time></trkpt><trkpt lat="39.12763015980985" lon="16.718940645920533"><ele>1312.0</ele><time>2026-04-11T14:18:34.999Z</time></trkpt><trkpt lat="39.127668009767284" lon="16.718789157403542"><ele>1312.0</ele><time>2026-04-11T14:18:36.999Z</time></trkpt><trkpt lat="39.12769006950278" lon="16.71870535759513"><ele>1312.0</ele><time>2026-04-11T14:18:37.999Z</time></trkpt><trkpt lat="39.1276795364504" lon="16.71858032842027"><ele>1312.0</ele><time>2026-04-11T14:18:38.999Z</time></trkpt><trkpt lat="39.12770538341935" lon="16.718485059340264"><ele>1312.0</ele><time>2026-04-11T14:18:39.999Z</time></trkpt><trkpt lat="39.127734815630134" lon="16.718347859020476"><ele>1315.3999999999999</ele><time>2026-04-11T14:18:40.999Z</time></trkpt><trkpt lat="39.127741331245055" lon="16.718229754451336"><ele>1318.8</ele><time>2026-04-11T14:18:44.999Z</time></trkpt><trkpt lat="39.12775482147223" lon="16.718121759021376"><ele>1322.2</ele><time>2026-04-11T14:18:46.999Z</time></trkpt><trkpt lat="39.12776298981122" lon="16.718005771211214"><ele>1325.6</ele><time>2026-04-11T14:18:48.999Z</time></trkpt><trkpt lat="39.12773592095552" lon="16.717856607324403"><ele>1329.0</ele><time>2026-04-11T14:18:50.999Z</time></trkpt><trkpt lat="39.12772223010779" lon="16.717769564367877"><ele>1331.5</ele><time>2026-04-11T14:18:51.999Z</time></trkpt><trkpt lat="39.12768428012267" lon="16.71764426621485"><ele>1334.0</ele><time>2026-04-11T14:18:53.999Z</time></trkpt><trkpt lat="39.127602069830914" lon="16.7175133834774"><ele>1336.5</ele><time>2026-04-11T14:18:55.999Z</time></trkpt><trkpt lat="39.12752861866054" lon="16.717414767437976"><ele>1339.0</ele><time>2026-04-11T14:18:57.999Z</time></trkpt><trkpt lat="39.12745139739286" lon="16.71729535516022"><ele>1339.0</ele><time>2026-04-11T14:18:59.999Z</time></trkpt><trkpt lat="39.12744526946486" lon="16.717187937880777"><ele>1339.0</ele><time>2026-04-11T14:19:00.999Z</time></trkpt><trkpt lat="39.12743186789065" lon="16.7171064288701"><ele>1339.0</ele><time>2026-04-11T14:19:01.999Z</time></trkpt><trkpt lat="39.1274033823734" lon="16.717029749691246"><ele>1339.0</ele><time>2026-04-11T14:19:02.999Z</time></trkpt><trkpt lat="39.12738017376842" lon="16.716951518524212"><ele>1339.0</ele><time>2026-04-11T14:19:03.999Z</time></trkpt><trkpt lat="39.12736123368441" lon="16.71682205311084"><ele>1339.0</ele><time>2026-04-11T14:19:05.999Z</time></trkpt><trkpt lat="39.12731276130135" lon="16.716721924582036"><ele>1345.4</ele><time>2026-04-11T14:19:08.999Z</time></trkpt><trkpt lat="39.12729134949845" lon="16.71664441235475"><ele>1351.8000000000002</ele><time>2026-04-11T14:19:11.999Z</time></trkpt><trkpt lat="39.127283841393854" lon="16.716540522804596"><ele>1358.1999999999998</ele><time>2026-04-11T14:19:16.999Z</time></trkpt><trkpt lat="39.12722877264406" lon="16.7164476046089"><ele>1364.6</ele><time>2026-04-11T14:19:19.999Z</time></trkpt><trkpt lat="39.127198322413115" lon="16.71633729174249"><ele>1371.0</ele><time>2026-04-11T14:19:21.999Z</time></trkpt><trkpt lat="39.12714573037826" lon="16.71615059370607"><ele>1371.3333333333333</ele><time>2026-04-11T14:19:23.999Z</time></trkpt><trkpt lat="39.127111537429045" lon="16.716028937524676"><ele>1371.6666666666667</ele><time>2026-04-11T14:19:24.999Z</time></trkpt><trkpt lat="39.12706880579827" lon="16.71595528783675"><ele>1372.0</ele><time>2026-04-11T14:19:25.999Z</time></trkpt><trkpt lat="39.127030244629594" lon="16.715861438372688"><ele>1372.3333333333335</ele><time>2026-04-11T14:19:26.999Z</time></trkpt><trkpt lat="39.126995917224534" lon="16.715779743951348"><ele>1372.6666666666667</ele><time>2026-04-11T14:19:27.999Z</time></trkpt><trkpt lat="39.126954087434555" lon="16.715692736671066"><ele>1373.0</ele><time>2026-04-11T14:19:28.999Z</time></trkpt><trkpt lat="39.126903314493916" lon="16.71562704937155"><ele>1373.0</ele><time>2026-04-11T14:19:30.999Z</time></trkpt><trkpt lat="39.126853140796484" lon="16.715548750960956"><ele>1373.0</ele><time>2026-04-11T14:19:33.999Z</time></trkpt><trkpt lat="39.12680519753861" lon="16.71547906172719"><ele>1373.0</ele><time>2026-04-11T14:19:36.999Z</time></trkpt><trkpt lat="39.126801275022906" lon="16.715365888094137"><ele>1373.0</ele><time>2026-04-11T14:19:40.999Z</time></trkpt><trkpt lat="39.12679704841178" lon="16.715224422883825"><ele>1373.0</ele><time>2026-04-11T14:19:42.999Z</time></trkpt><trkpt lat="39.12684740409474" lon="16.715114427769652"><ele>1373.0</ele><time>2026-04-11T14:19:44.999Z</time></trkpt><trkpt lat="39.12685376750416" lon="16.715031027938668"><ele>1375.8000000000002</ele><time>2026-04-11T14:19:45.999Z</time></trkpt><trkpt lat="39.12679355752351" lon="16.714939380761265"><ele>1378.6</ele><time>2026-04-11T14:19:46.999Z</time></trkpt><trkpt lat="39.126836145185045" lon="16.714840201951365"><ele>1381.4</ele><time>2026-04-11T14:19:47.999Z</time></trkpt><trkpt lat="39.126825521880065" lon="16.714715265804337"><ele>1384.1999999999998</ele><time>2026-04-11T14:19:48.999Z</time></trkpt><trkpt lat="39.126826294096794" lon="16.714526825040288"><ele>1387.0</ele><time>2026-04-11T14:19:50.999Z</time></trkpt><trkpt lat="39.12682551255914" lon="16.714424741496515"><ele>1390.1999999999998</ele><time>2026-04-11T14:19:51.999Z</time></trkpt><trkpt lat="39.126834417315486" lon="16.714326918763675"><ele>1393.4</ele><time>2026-04-11T14:19:52.999Z</time></trkpt><trkpt lat="39.126805240473146" lon="16.714253801933324"><ele>1396.6</ele><time>2026-04-11T14:19:53.999Z</time></trkpt><trkpt lat="39.126679054431094" lon="16.714214724591667"><ele>1399.8000000000002</ele><time>2026-04-11T14:19:54.999Z</time></trkpt><trkpt lat="39.12658992680754" lon="16.714126726221618"><ele>1403.0</ele><time>2026-04-11T14:19:55.999Z</time></trkpt><trkpt lat="39.126468387560585" lon="16.71414397064929"><ele>1403.0</ele><time>2026-04-11T14:19:56.999Z</time></trkpt><trkpt lat="39.1263869069822" lon="16.7141531144222"><ele>1403.0</ele><time>2026-04-11T14:19:57.999Z</time></trkpt><trkpt lat="39.12627829036931" lon="16.714098095243436"><ele>1403.0</ele><time>2026-04-11T14:19:59.999Z</time></trkpt><trkpt lat="39.126169683666085" lon="16.714126643762572"><ele>1403.0</ele><time>2026-04-11T14:20:00.999Z</time></trkpt><trkpt lat="39.12607228788597" lon="16.714044860296923"><ele>1403.0</ele><time>2026-04-11T14:20:01.999Z</time></trkpt><trkpt lat="39.125979771287525" lon="16.713934024004313"><ele>1406.3333333333335</ele><time>2026-04-11T14:20:02.999Z</time></trkpt><trkpt lat="39.12567860433886" lon="16.71413548405471"><ele>1409.6666666666667</ele><time>2026-04-11T14:20:03.999Z</time></trkpt><trkpt lat="39.12558730199651" lon="16.714124959377685"><ele>1413.0</ele><time>2026-04-11T14:20:04.999Z</time></trkpt><trkpt lat="39.12542569102745" lon="16.714259563866182"><ele>1413.0</ele><time>2026-04-11T14:20:06.999Z</time></trkpt><trkpt lat="39.12532350385164" lon="16.714319917513475"><ele>1413.0</ele><time>2026-04-11T14:20:08.037Z</time></trkpt><trkpt lat="39.12520564552343" lon="16.71435525445057"><ele>1413.0</ele><time>2026-04-11T14:20:10.036Z</time></trkpt><trkpt lat="39.12512588142618" lon="16.714456519127253"><ele>1413.0</ele><time>2026-04-11T14:20:12.03Z</time></trkpt><trkpt lat="39.12506154878174" lon="16.714474041129098"><ele>1413.0</ele><time>2026-04-11T14:20:13.029Z</time></trkpt><trkpt lat="39.12446131581865" lon="16.71444995111906"><ele>1413.0</ele><time>2026-04-11T14:20:24.588Z</time></trkpt><trkpt lat="39.12527491921251" lon="16.7144000509482"><ele>1410.0</ele><time>2026-04-11T14:20:27.028Z</time></trkpt><trkpt lat="39.12513003160366" lon="16.714448943311897"><ele>1407.0</ele><time>2026-04-11T14:20:28.031Z</time></trkpt><trkpt lat="39.125046958556744" lon="16.71444285352594"><ele>1404.0</ele><time>2026-04-11T14:20:29.029Z</time></trkpt><trkpt lat="39.12500887153746" lon="16.714565666187134"><ele>1401.0</ele><time>2026-04-11T14:20:30.03Z</time></trkpt><trkpt lat="39.124909359662745" lon="16.714591710849646"><ele>1398.0</ele><time>2026-04-11T14:20:31.028Z</time></trkpt><trkpt lat="39.12491646809347" lon="16.714674702958735"><ele>1398.0</ele><time>2026-04-11T14:20:48.021Z</time></trkpt><trkpt lat="39.12486623024457" lon="16.71472731409683"><ele>1398.0</ele><time>2026-04-11T14:20:52.021Z</time></trkpt><trkpt lat="39.12490400016009" lon="16.71479613321477"><ele>1398.0</ele><time>2026-04-11T14:20:57.02Z</time></trkpt><trkpt lat="39.12479963858286" lon="16.71484899745487"><ele>1398.0</ele><time>2026-04-11T14:21:00.017Z</time></trkpt><trkpt lat="39.124727530050166" lon="16.714881750099856"><ele>1398.0</ele><time>2026-04-11T14:21:01.014Z</time></trkpt><trkpt lat="39.12462550489587" lon="16.714901259700707"><ele>1398.0</ele><time>2026-04-11T14:21:04.015Z</time></trkpt><trkpt lat="39.12456752242783" lon="16.715003514314137"><ele>1398.5714285714284</ele><time>2026-04-11T14:21:06.015Z</time></trkpt><trkpt lat="39.124626939165246" lon="16.715058512887456"><ele>1399.1428571428573</ele><time>2026-04-11T14:21:09.014Z</time></trkpt><trkpt lat="39.1246662164903" lon="16.715122505070017"><ele>1399.7142857142858</ele><time>2026-04-11T14:21:12.015Z</time></trkpt><trkpt lat="39.124655940029236" lon="16.715205987905055"><ele>1400.2857142857142</ele><time>2026-04-11T14:21:15.015Z</time></trkpt><trkpt lat="39.12460496786882" lon="16.715255981418757"><ele>1400.8571428571427</ele><time>2026-04-11T14:21:17.018Z</time></trkpt><trkpt lat="39.124673490992514" lon="16.71529775126971"><ele>1401.4285714285716</ele><time>2026-04-11T14:21:18.019Z</time></trkpt><trkpt lat="39.124712125634524" lon="16.715393233880782"><ele>1402.0</ele><time>2026-04-11T14:21:20.998Z</time></trkpt><trkpt lat="39.12477976083822" lon="16.715459877040104"><ele>1401.8</ele><time>2026-04-11T14:21:21.998Z</time></trkpt><trkpt lat="39.12484897591486" lon="16.71553981020291"><ele>1401.6</ele><time>2026-04-11T14:21:22.998Z</time></trkpt><trkpt lat="39.124971742843336" lon="16.7157221625912"><ele>1401.3999999999999</ele><time>2026-04-11T14:21:23.998Z</time></trkpt><trkpt lat="39.12497835284473" lon="16.715811094883758"><ele>1401.1999999999998</ele><time>2026-04-11T14:21:27Z</time></trkpt><trkpt lat="39.12493786036808" lon="16.71591034618263"><ele>1401.0</ele><time>2026-04-11T14:21:30Z</time></trkpt><trkpt lat="39.12496133917904" lon="16.715834797622346"><ele>1401.0</ele><time>2026-04-11T14:21:41Z</time></trkpt><trkpt lat="39.12495213889747" lon="16.71573761252943"><ele>1401.0</ele><time>2026-04-11T14:21:57.999Z</time></trkpt><trkpt lat="39.124913974839814" lon="16.715663379609676"><ele>1401.0</ele><time>2026-04-11T14:22:00.999Z</time></trkpt><trkpt lat="39.12490811410212" lon="16.71554520506306"><ele>1401.0</ele><time>2026-04-11T14:22:03.999Z</time></trkpt><trkpt lat="39.12493150246616" lon="16.715454432117898"><ele>1401.0</ele><time>2026-04-11T14:22:07.999Z</time></trkpt><trkpt lat="39.12489688960412" lon="16.715334595770262"><ele>1401.0</ele><time>2026-04-11T14:22:20.999Z</time></trkpt><trkpt lat="39.12492527713428" lon="16.715407132149412"><ele>1401.0</ele><time>2026-04-11T14:22:32.999Z</time></trkpt><trkpt lat="39.12487495830929" lon="16.71545690864977"><ele>1401.0</ele><time>2026-04-11T14:28:31Z</time></trkpt><trkpt lat="39.12493623976788" lon="16.7154151612942"><ele>1401.0</ele><time>2026-04-11T14:30:18Z</time></trkpt><trkpt lat="39.124905726740586" lon="16.715325629962518"><ele>1401.0</ele><time>2026-04-11T14:30:44Z</time></trkpt><trkpt lat="39.12490112516658" lon="16.715220356705384"><ele>1401.0</ele><time>2026-04-11T14:30:47Z</time></trkpt><trkpt lat="39.12487705295202" lon="16.715122203547953"><ele>1401.0</ele><time>2026-04-11T14:30:49Z</time></trkpt><trkpt lat="39.12486033936653" lon="16.715036891244473"><ele>1401.0</ele><time>2026-04-11T14:30:50Z</time></trkpt><trkpt lat="39.12485931620081" lon="16.714877937549648"><ele>1401.1666666666667</ele><time>2026-04-11T14:30:52Z</time></trkpt><trkpt lat="39.124857858077185" lon="16.714725851377178"><ele>1401.3333333333333</ele><time>2026-04-11T14:30:54Z</time></trkpt><trkpt lat="39.124866662959484" lon="16.714620666903464"><ele>1401.5</ele><time>2026-04-11T14:30:55Z</time></trkpt><trkpt lat="39.124885961045564" lon="16.714529682392904"><ele>1401.6666666666665</ele><time>2026-04-11T14:30:56Z</time></trkpt><trkpt lat="39.12491345801598" lon="16.714434815508838"><ele>1401.8333333333333</ele><time>2026-04-11T14:30:57Z</time></trkpt><trkpt lat="39.124959293590365" lon="16.714338023446512"><ele>1402.0</ele><time>2026-04-11T14:30:58Z</time></trkpt><trkpt lat="39.12500105847837" lon="16.71425630412217"><ele>1403.8333333333333</ele><time>2026-04-11T14:30:59Z</time></trkpt><trkpt lat="39.125071121045785" lon="16.714187979622608"><ele>1405.6666666666665</ele><time>2026-04-11T14:31:00Z</time></trkpt><trkpt lat="39.12515454590888" lon="16.71411703339206"><ele>1407.5</ele><time>2026-04-11T14:31:01Z</time></trkpt><trkpt lat="39.12522544181489" lon="16.714064991591226"><ele>1409.3333333333333</ele><time>2026-04-11T14:31:02Z</time></trkpt><trkpt lat="39.12528071177221" lon="16.71400581135312"><ele>1411.1666666666667</ele><time>2026-04-11T14:31:03Z</time></trkpt><trkpt lat="39.125342325095325" lon="16.713941646576334"><ele>1413.0</ele><time>2026-04-11T14:31:04Z</time></trkpt><trkpt lat="39.12542315891151" lon="16.713875928204597"><ele>1413.0</ele><time>2026-04-11T14:31:05Z</time></trkpt><trkpt lat="39.125489561517114" lon="16.713830550514796"><ele>1413.0</ele><time>2026-04-11T14:31:06Z</time></trkpt><trkpt lat="39.12554819575614" lon="16.713758372490066"><ele>1413.0</ele><time>2026-04-11T14:31:08Z</time></trkpt><trkpt lat="39.125582086775275" lon="16.713683521565184"><ele>1413.0</ele><time>2026-04-11T14:31:09Z</time></trkpt><trkpt lat="39.12565851084324" lon="16.713581897821786"><ele>1413.0</ele><time>2026-04-11T14:31:11Z</time></trkpt><trkpt lat="39.12569591750189" lon="16.71350514961495"><ele>1413.0</ele><time>2026-04-11T14:31:11.999Z</time></trkpt><trkpt lat="39.125726579361334" lon="16.713367056543287"><ele>1414.0</ele><time>2026-04-11T14:31:13.999Z</time></trkpt><trkpt lat="39.125702401163856" lon="16.713260159310487"><ele>1415.0</ele><time>2026-04-11T14:31:15.999Z</time></trkpt><trkpt lat="39.12575475192606" lon="16.713073876865018"><ele>1416.0</ele><time>2026-04-11T14:31:17.999Z</time></trkpt><trkpt lat="39.12573465735172" lon="16.71299524853488"><ele>1417.0</ele><time>2026-04-11T14:31:19.999Z</time></trkpt><trkpt lat="39.12575512055114" lon="16.71287498849062"><ele>1418.0</ele><time>2026-04-11T14:31:21.999Z</time></trkpt><trkpt lat="39.125738131751504" lon="16.71273481949575"><ele>1421.0</ele><time>2026-04-11T14:31:23.999Z</time></trkpt><trkpt lat="39.12575457878078" lon="16.71264269680071"><ele>1424.0</ele><time>2026-04-11T14:31:25.999Z</time></trkpt><trkpt lat="39.12577442948252" lon="16.71254319927088"><ele>1427.0</ele><time>2026-04-11T14:31:28.999Z</time></trkpt><trkpt lat="39.12577212192337" lon="16.712433666234517"><ele>1430.0</ele><time>2026-04-11T14:31:30.999Z</time></trkpt><trkpt lat="39.12578145403639" lon="16.712267183389123"><ele>1433.0</ele><time>2026-04-11T14:31:32.999Z</time></trkpt><trkpt lat="39.125766350882785" lon="16.712148700925614"><ele>1436.2</ele><time>2026-04-11T14:31:34.999Z</time></trkpt><trkpt lat="39.12569340768376" lon="16.712025806141135"><ele>1439.4</ele><time>2026-04-11T14:31:36.999Z</time></trkpt><trkpt lat="39.12563567289086" lon="16.711924407607615"><ele>1442.6000000000001</ele><time>2026-04-11T14:31:37.999Z</time></trkpt><trkpt lat="39.125632338106605" lon="16.71182086476544"><ele>1445.8000000000002</ele><time>2026-04-11T14:31:38.999Z</time></trkpt><trkpt lat="39.12563718411319" lon="16.711724475515876"><ele>1449.0</ele><time>2026-04-11T14:31:39.999Z</time></trkpt><trkpt lat="39.12569548360654" lon="16.711632607446194"><ele>1448.6666666666667</ele><time>2026-04-11T14:31:41.999Z</time></trkpt><trkpt lat="39.125703790495564" lon="16.71149010685751"><ele>1448.3333333333333</ele><time>2026-04-11T14:31:43.999Z</time></trkpt><trkpt lat="39.1257079213146" lon="16.71140827754012"><ele>1448.0</ele><time>2026-04-11T14:31:45.999Z</time></trkpt><trkpt lat="39.12573331616325" lon="16.711291292679533"><ele>1447.6666666666665</ele><time>2026-04-11T14:31:49.999Z</time></trkpt><trkpt lat="39.12577699569578" lon="16.71119410983146"><ele>1447.3333333333333</ele><time>2026-04-11T14:31:50.999Z</time></trkpt><trkpt lat="39.12583951725898" lon="16.711151202767848"><ele>1447.0</ele><time>2026-04-11T14:31:51.999Z</time></trkpt><trkpt lat="39.12588798639731" lon="16.711056510344193"><ele>1448.3333333333333</ele><time>2026-04-11T14:31:52.999Z</time></trkpt><trkpt lat="39.12595458979258" lon="16.71095257924732"><ele>1449.6666666666665</ele><time>2026-04-11T14:31:54Z</time></trkpt><trkpt lat="39.125988355517244" lon="16.710867643340645"><ele>1451.0</ele><time>2026-04-11T14:31:55Z</time></trkpt><trkpt lat="39.12605157334868" lon="16.71088338449744"><ele>1452.3333333333333</ele><time>2026-04-11T14:31:56Z</time></trkpt><trkpt lat="39.12611935107441" lon="16.71083435974835"><ele>1453.6666666666667</ele><time>2026-04-11T14:31:58Z</time></trkpt><trkpt lat="39.12617135840182" lon="16.710695656827088"><ele>1455.0</ele><time>2026-04-11T14:31:59Z</time></trkpt><trkpt lat="39.12618838174942" lon="16.71054230842836"><ele>1455.0</ele><time>2026-04-11T14:32:00Z</time></trkpt><trkpt lat="39.126236588948515" lon="16.71042146549787"><ele>1455.0</ele><time>2026-04-11T14:32:01Z</time></trkpt><trkpt lat="39.126308501127106" lon="16.710309269528288"><ele>1455.0</ele><time>2026-04-11T14:32:02Z</time></trkpt><trkpt lat="39.12636067263054" lon="16.710235458988304"><ele>1455.0</ele><time>2026-04-11T14:32:03Z</time></trkpt><trkpt lat="39.12640752833038" lon="16.710147999177394"><ele>1455.0</ele><time>2026-04-11T14:32:04Z</time></trkpt><trkpt lat="39.12644588344458" lon="16.710051102866487"><ele>1456.75</ele><time>2026-04-11T14:32:05Z</time></trkpt><trkpt lat="39.12648547932347" lon="16.709923641421152"><ele>1458.5</ele><time>2026-04-11T14:32:06Z</time></trkpt><trkpt lat="39.12655944830531" lon="16.709795117295595"><ele>1460.25</ele><time>2026-04-11T14:32:07Z</time></trkpt><trkpt lat="39.12661136812103" lon="16.709640816006665"><ele>1462.0</ele><time>2026-04-11T14:32:08Z</time></trkpt><trkpt lat="39.126676825923994" lon="16.709482974742603"><ele>1460.5</ele><time>2026-04-11T14:32:09Z</time></trkpt><trkpt lat="39.12671883932205" lon="16.709323206721436"><ele>1459.0</ele><time>2026-04-11T14:32:10Z</time></trkpt><trkpt lat="39.12677105990901" lon="16.709185146559612"><ele>1457.5</ele><time>2026-04-11T14:32:11Z</time></trkpt><trkpt lat="39.12683472359265" lon="16.70908180480367"><ele>1456.0</ele><time>2026-04-11T14:32:12Z</time></trkpt><trkpt lat="39.12691758675035" lon="16.70897437015891"><ele>1456.0</ele><time>2026-04-11T14:32:13Z</time></trkpt><trkpt lat="39.12701058696094" lon="16.70887992425043"><ele>1456.0</ele><time>2026-04-11T14:32:14Z</time></trkpt><trkpt lat="39.127112680927965" lon="16.70881978875865"><ele>1456.0</ele><time>2026-04-11T14:32:15Z</time></trkpt><trkpt lat="39.12719656468541" lon="16.708759474865836"><ele>1456.0</ele><time>2026-04-11T14:32:16Z</time></trkpt><trkpt lat="39.12728010605874" lon="16.708712961157822"><ele>1456.0</ele><time>2026-04-11T14:32:17Z</time></trkpt><trkpt lat="39.12734534843368" lon="16.70863835197529"><ele>1457.8</ele><time>2026-04-11T14:32:18Z</time></trkpt><trkpt lat="39.12740607220203" lon="16.708581219798752"><ele>1459.6</ele><time>2026-04-11T14:32:19Z</time></trkpt><trkpt lat="39.127467737333205" lon="16.708480151468546"><ele>1461.4</ele><time>2026-04-11T14:32:20Z</time></trkpt><trkpt lat="39.1275488962322" lon="16.70836390251292"><ele>1463.2</ele><time>2026-04-11T14:32:22Z</time></trkpt><trkpt lat="39.12760226740276" lon="16.708283591941473"><ele>1465.0</ele><time>2026-04-11T14:32:23Z</time></trkpt><trkpt lat="39.127660448134456" lon="16.708193936205816"><ele>1465.0</ele><time>2026-04-11T14:32:24Z</time></trkpt><trkpt lat="39.127708058315086" lon="16.70813575073318"><ele>1465.0</ele><time>2026-04-11T14:32:25Z</time></trkpt><trkpt lat="39.12775510885112" lon="16.708054454693777"><ele>1465.0</ele><time>2026-04-11T14:32:26Z</time></trkpt><trkpt lat="39.127796368427376" lon="16.707972594466945"><ele>1465.0</ele><time>2026-04-11T14:32:27Z</time></trkpt><trkpt lat="39.1278475481567" lon="16.70767902330248"><ele>1466.8</ele><time>2026-04-11T14:32:29Z</time></trkpt><trkpt lat="39.127877452245336" lon="16.7075767299334"><ele>1468.6</ele><time>2026-04-11T14:32:30Z</time></trkpt><trkpt lat="39.12794767595424" lon="16.70745381415209"><ele>1470.4</ele><time>2026-04-11T14:32:32Z</time></trkpt><trkpt lat="39.12803888412452" lon="16.70735692254356"><ele>1472.2</ele><time>2026-04-11T14:32:33Z</time></trkpt><trkpt lat="39.128098313389835" lon="16.707322013871696"><ele>1474.0</ele><time>2026-04-11T14:32:34Z</time></trkpt><trkpt lat="39.12817971829567" lon="16.707232241356685"><ele>1474.0</ele><time>2026-04-11T14:32:35Z</time></trkpt><trkpt lat="39.12821376699308" lon="16.707138443724553"><ele>1474.0</ele><time>2026-04-11T14:32:36Z</time></trkpt><trkpt lat="39.128276667897765" lon="16.707089617539367"><ele>1474.0</ele><time>2026-04-11T14:32:37Z</time></trkpt><trkpt lat="39.12833782350559" lon="16.707109481194443"><ele>1474.0</ele><time>2026-04-11T14:32:38Z</time></trkpt><trkpt lat="39.128447723750924" lon="16.707143232498684"><ele>1474.0</ele><time>2026-04-11T14:32:40Z</time></trkpt><trkpt lat="39.12851834040826" lon="16.707123328169267"><ele>1474.0</ele><time>2026-04-11T14:32:41Z</time></trkpt><trkpt lat="39.128550210072795" lon="16.70702787508496"><ele>1472.5</ele><time>2026-04-11T14:32:42Z</time></trkpt><trkpt lat="39.12857498475392" lon="16.70690307138254"><ele>1471.0</ele><time>2026-04-11T14:32:43Z</time></trkpt><trkpt lat="39.12856908224741" lon="16.706698434675165"><ele>1469.5</ele><time>2026-04-11T14:32:44Z</time></trkpt><trkpt lat="39.12861733074186" lon="16.706574792024618"><ele>1468.0</ele><time>2026-04-11T14:32:45Z</time></trkpt><trkpt lat="39.128666171666374" lon="16.706448443126515"><ele>1468.0</ele><time>2026-04-11T14:32:46Z</time></trkpt><trkpt lat="39.12873583079166" lon="16.70630827395122"><ele>1468.0</ele><time>2026-04-11T14:32:48Z</time></trkpt><trkpt lat="39.128810810503104" lon="16.70618894701788"><ele>1468.0</ele><time>2026-04-11T14:32:50Z</time></trkpt><trkpt lat="39.12890856250813" lon="16.70606673902184"><ele>1468.0</ele><time>2026-04-11T14:32:52Z</time></trkpt><trkpt lat="39.12898509426993" lon="16.705937811973822"><ele>1467.75</ele><time>2026-04-11T14:32:53Z</time></trkpt><trkpt lat="39.12903179220879" lon="16.705865357922455"><ele>1467.5</ele><time>2026-04-11T14:32:56Z</time></trkpt><trkpt lat="39.12914803779947" lon="16.70600208552662"><ele>1467.25</ele><time>2026-04-11T14:32:58Z</time></trkpt><trkpt lat="39.12906902696628" lon="16.706125679469984"><ele>1467.0</ele><time>2026-04-11T14:33:07Z</time></trkpt><trkpt lat="39.129080957396724" lon="16.70630473869813"><ele>1467.1428571428573</ele><time>2026-04-11T14:33:09Z</time></trkpt><trkpt lat="39.12908580968465" lon="16.70639456342232"><ele>1467.2857142857142</ele><time>2026-04-11T14:33:10Z</time></trkpt><trkpt lat="39.12908824692537" lon="16.70648157680552"><ele>1467.4285714285716</ele><time>2026-04-11T14:33:11Z</time></trkpt><trkpt lat="39.12908651223552" lon="16.706580180383664"><ele>1467.5714285714287</ele><time>2026-04-11T14:33:12Z</time></trkpt><trkpt lat="39.12906594554171" lon="16.706676419328762"><ele>1467.7142857142858</ele><time>2026-04-11T14:33:13Z</time></trkpt><trkpt lat="39.1290422631259" lon="16.70676172807707"><ele>1467.857142857143</ele><time>2026-04-11T14:33:14Z</time></trkpt><trkpt lat="39.129017210268465" lon="16.706844058681305"><ele>1468.0</ele><time>2026-04-11T14:33:15Z</time></trkpt><trkpt lat="39.12899011608802" lon="16.706923960918402"><ele>1467.0</ele><time>2026-04-11T14:33:16Z</time></trkpt><trkpt lat="39.128939329578934" lon="16.70707793800496"><ele>1466.0</ele><time>2026-04-11T14:33:18Z</time></trkpt><trkpt lat="39.12891427037542" lon="16.70715462567535"><ele>1465.0</ele><time>2026-04-11T14:33:19Z</time></trkpt><trkpt lat="39.12889455585316" lon="16.707231946556515"><ele>1464.0</ele><time>2026-04-11T14:33:20Z</time></trkpt><trkpt lat="39.12886428663222" lon="16.7073130951926"><ele>1463.0</ele><time>2026-04-11T14:33:21Z</time></trkpt><trkpt lat="39.1288863502472" lon="16.70744107248592"><ele>1462.0</ele><time>2026-04-11T14:33:23Z</time></trkpt><trkpt lat="39.12901074648072" lon="16.707560157474404"><ele>1460.3999999999999</ele><time>2026-04-11T14:33:25Z</time></trkpt><trkpt lat="39.12908401243998" lon="16.707535322543652"><ele>1458.8</ele><time>2026-04-11T14:33:26Z</time></trkpt><trkpt lat="39.12922596665458" lon="16.70754406544135"><ele>1457.2</ele><time>2026-04-11T14:33:28Z</time></trkpt><trkpt lat="39.12930009259474" lon="16.70757034066926"><ele>1455.6</ele><time>2026-04-11T14:33:29Z</time></trkpt><trkpt lat="39.12943163382105" lon="16.707518848320344"><ele>1454.0</ele><time>2026-04-11T14:33:31Z</time></trkpt><trkpt lat="39.12951385643716" lon="16.70747109448815"><ele>1454.0</ele><time>2026-04-11T14:33:32Z</time></trkpt><trkpt lat="39.129576648049465" lon="16.7074103904179"><ele>1454.0</ele><time>2026-04-11T14:33:33Z</time></trkpt><trkpt lat="39.12963932666975" lon="16.70734307057039"><ele>1454.0</ele><time>2026-04-11T14:33:34Z</time></trkpt><trkpt lat="39.12968710519519" lon="16.70727716440032"><ele>1454.0</ele><time>2026-04-11T14:33:35Z</time></trkpt><trkpt lat="39.12972362780382" lon="16.7072087331682"><ele>1454.0</ele><time>2026-04-11T14:33:36Z</time></trkpt><trkpt lat="39.129765599582576" lon="16.7071392189203"><ele>1454.0</ele><time>2026-04-11T14:33:37Z</time></trkpt><trkpt lat="39.12984838106757" lon="16.707064497367416"><ele>1454.0</ele><time>2026-04-11T14:33:39Z</time></trkpt><trkpt lat="39.12990329473726" lon="16.707005059121943"><ele>1454.0</ele><time>2026-04-11T14:33:41Z</time></trkpt><trkpt lat="39.129911000381085" lon="16.707094847811415"><ele>1454.0</ele><time>2026-04-11T14:33:46.999Z</time></trkpt><trkpt lat="39.12995727161344" lon="16.707250221400418"><ele>1454.0</ele><time>2026-04-11T14:33:49.999Z</time></trkpt><trkpt lat="39.129922554398995" lon="16.707356881898434"><ele>1454.0</ele><time>2026-04-11T14:33:50.999Z</time></trkpt><trkpt lat="39.129911192201334" lon="16.707467471808265"><ele>1454.0</ele><time>2026-04-11T14:33:51.999Z</time></trkpt><trkpt lat="39.129886151699225" lon="16.707556011453477"><ele>1450.2</ele><time>2026-04-11T14:33:52.999Z</time></trkpt><trkpt lat="39.129853055494046" lon="16.707801000322203"><ele>1446.4</ele><time>2026-04-11T14:33:54.999Z</time></trkpt><trkpt lat="39.12983163413576" lon="16.707902859545875"><ele>1442.6</ele><time>2026-04-11T14:33:55.999Z</time></trkpt><trkpt lat="39.129803413803" lon="16.70800768457857"><ele>1438.8</ele><time>2026-04-11T14:33:56.999Z</time></trkpt><trkpt lat="39.129752764592816" lon="16.70809274486373"><ele>1435.0</ele><time>2026-04-11T14:33:57.999Z</time></trkpt><trkpt lat="39.12972232919019" lon="16.708199875482528"><ele>1435.0</ele><time>2026-04-11T14:33:59Z</time></trkpt><trkpt lat="39.129678595951006" lon="16.708277531555755"><ele>1435.0</ele><time>2026-04-11T14:34:00Z</time></trkpt><trkpt lat="39.129622736622125" lon="16.708335812083856"><ele>1435.0</ele><time>2026-04-11T14:34:01Z</time></trkpt><trkpt lat="39.12953846903716" lon="16.70846127681167"><ele>1435.0</ele><time>2026-04-11T14:34:03Z</time></trkpt><trkpt lat="39.12947975469958" lon="16.70851431818396"><ele>1435.0</ele><time>2026-04-11T14:34:04Z</time></trkpt><trkpt lat="39.1294161365907" lon="16.70863791251453"><ele>1431.8</ele><time>2026-04-11T14:34:06Z</time></trkpt><trkpt lat="39.12937853532545" lon="16.708716726392858"><ele>1428.6</ele><time>2026-04-11T14:34:07Z</time></trkpt><trkpt lat="39.12931764068799" lon="16.708862602142062"><ele>1425.4</ele><time>2026-04-11T14:34:09Z</time></trkpt><trkpt lat="39.12927012542572" lon="16.708941441984752"><ele>1422.2</ele><time>2026-04-11T14:34:10Z</time></trkpt><trkpt lat="39.12917893444396" lon="16.709012681077528"><ele>1419.0</ele><time>2026-04-11T14:34:12Z</time></trkpt><trkpt lat="39.129095554786865" lon="16.709067319517096"><ele>1419.0</ele><time>2026-04-11T14:34:14Z</time></trkpt><trkpt lat="39.129044597425164" lon="16.70912408449683"><ele>1419.0</ele><time>2026-04-11T14:34:16Z</time></trkpt><trkpt lat="39.12910289716969" lon="16.709270514584773"><ele>1419.0</ele><time>2026-04-11T14:34:19Z</time></trkpt><trkpt lat="39.129140523616016" lon="16.709371757326895"><ele>1419.0</ele><time>2026-04-11T14:34:20Z</time></trkpt><trkpt lat="39.12916911845451" lon="16.709514400103796"><ele>1419.0</ele><time>2026-04-11T14:34:21Z</time></trkpt><trkpt lat="39.12920286368015" lon="16.709636989616456"><ele>1417.8333333333333</ele><time>2026-04-11T14:34:22Z</time></trkpt><trkpt lat="39.129294895660216" lon="16.709707641319564"><ele>1416.6666666666667</ele><time>2026-04-11T14:34:25Z</time></trkpt><trkpt lat="39.12935699358567" lon="16.70974229486866"><ele>1415.5</ele><time>2026-04-11T14:34:28Z</time></trkpt><trkpt lat="39.12929356216432" lon="16.709746071333285"><ele>1414.3333333333335</ele><time>2026-04-11T14:34:29Z</time></trkpt><trkpt lat="39.1292205030096" lon="16.70977034941586"><ele>1413.1666666666667</ele><time>2026-04-11T14:34:31Z</time></trkpt><trkpt lat="39.12914622601062" lon="16.70983799593188"><ele>1412.0</ele><time>2026-04-11T14:34:34Z</time></trkpt><trkpt lat="39.12910513806548" lon="16.709940887494295"><ele>1412.0</ele><time>2026-04-11T14:34:37Z</time></trkpt><trkpt lat="39.12911287038886" lon="16.71002368522204"><ele>1412.0</ele><time>2026-04-11T14:34:40Z</time></trkpt><trkpt lat="39.12911007065403" lon="16.71012537842027"><ele>1412.0</ele><time>2026-04-11T14:34:43Z</time></trkpt><trkpt lat="39.12909210715948" lon="16.71021023680824"><ele>1412.0</ele><time>2026-04-11T14:34:46Z</time></trkpt><trkpt lat="39.12909758798637" lon="16.71034568606213"><ele>1412.0</ele><time>2026-04-11T14:34:50Z</time></trkpt><trkpt lat="39.12903431706751" lon="16.710400135155343"><ele>1412.0</ele><time>2026-04-11T14:34:53Z</time></trkpt><trkpt lat="39.12898565139281" lon="16.71045570901418"><ele>1410.1666666666667</ele><time>2026-04-11T14:34:56Z</time></trkpt><trkpt lat="39.12888953791085" lon="16.71050940233741"><ele>1408.3333333333335</ele><time>2026-04-11T14:34:59Z</time></trkpt><trkpt lat="39.12882235190918" lon="16.710538672543127"><ele>1406.5</ele><time>2026-04-11T14:35:00Z</time></trkpt><trkpt lat="39.12875718308784" lon="16.710636440434737"><ele>1404.6666666666667</ele><time>2026-04-11T14:35:01Z</time></trkpt><trkpt lat="39.12872191655076" lon="16.7107258072852"><ele>1402.8333333333333</ele><time>2026-04-11T14:35:02Z</time></trkpt><trkpt lat="39.12868551826806" lon="16.710826152769577"><ele>1401.0</ele><time>2026-04-11T14:35:04Z</time></trkpt><trkpt lat="39.128611445246364" lon="16.710943597550862"><ele>1401.0</ele><time>2026-04-11T14:35:06Z</time></trkpt><trkpt lat="39.12858776435461" lon="16.711026302567422"><ele>1401.0</ele><time>2026-04-11T14:35:07Z</time></trkpt><trkpt lat="39.128501430621085" lon="16.71112039928374"><ele>1401.0</ele><time>2026-04-11T14:35:09Z</time></trkpt><trkpt lat="39.128450593678195" lon="16.71118370017389"><ele>1401.0</ele><time>2026-04-11T14:35:10Z</time></trkpt><trkpt lat="39.12837605953712" lon="16.711189530910126"><ele>1401.0</ele><time>2026-04-11T14:35:11Z</time></trkpt><trkpt lat="39.12827674998042" lon="16.711243822492385"><ele>1401.0</ele><time>2026-04-11T14:35:14Z</time></trkpt><trkpt lat="39.128218453354584" lon="16.711282438894468"><ele>1400.6666666666667</ele><time>2026-04-11T14:35:15Z</time></trkpt><trkpt lat="39.12816279867297" lon="16.711332022697633"><ele>1400.3333333333333</ele><time>2026-04-11T14:35:16Z</time></trkpt><trkpt lat="39.12806757252417" lon="16.711387663099945"><ele>1400.0</ele><time>2026-04-11T14:35:18Z</time></trkpt><trkpt lat="39.127994121576435" lon="16.711497056680063"><ele>1399.6666666666665</ele><time>2026-04-11T14:35:20Z</time></trkpt><trkpt lat="39.12795174393674" lon="16.711578942449975"><ele>1399.3333333333333</ele><time>2026-04-11T14:35:22Z</time></trkpt><trkpt lat="39.127914881490064" lon="16.711670662717278"><ele>1399.0</ele><time>2026-04-11T14:35:24Z</time></trkpt><trkpt lat="39.127918946355315" lon="16.711761113513703"><ele>1399.0</ele><time>2026-04-11T14:35:26Z</time></trkpt><trkpt lat="39.127962636589864" lon="16.71187200897251"><ele>1399.0</ele><time>2026-04-11T14:35:28Z</time></trkpt><trkpt lat="39.12798966513541" lon="16.711970376724345"><ele>1399.0</ele><time>2026-04-11T14:35:30Z</time></trkpt><trkpt lat="39.12804033115986" lon="16.712074757896662"><ele>1399.0</ele><time>2026-04-11T14:35:32Z</time></trkpt><trkpt lat="39.12802561288188" lon="16.71221125387324"><ele>1399.0</ele><time>2026-04-11T14:35:34Z</time></trkpt><trkpt lat="39.12806631812833" lon="16.71234621002142"><ele>1398.5714285714284</ele><time>2026-04-11T14:35:36Z</time></trkpt><trkpt lat="39.12810542446516" lon="16.712457938861103"><ele>1398.142857142857</ele><time>2026-04-11T14:35:39Z</time></trkpt><trkpt lat="39.128150466604104" lon="16.712533591052086"><ele>1397.7142857142858</ele><time>2026-04-11T14:35:41Z</time></trkpt><trkpt lat="39.12819899009212" lon="16.712599156646537"><ele>1397.2857142857142</ele><time>2026-04-11T14:35:43Z</time></trkpt><trkpt lat="39.12825404795023" lon="16.712643292231437"><ele>1396.857142857143</ele><time>2026-04-11T14:35:45Z</time></trkpt><trkpt lat="39.12829155576177" lon="16.712708665387925"><ele>1396.4285714285713</ele><time>2026-04-11T14:35:48Z</time></trkpt><trkpt lat="39.12831582217452" lon="16.71280843096191"><ele>1396.0</ele><time>2026-04-11T14:35:51Z</time></trkpt><trkpt lat="39.128331367432104" lon="16.71289728212271"><ele>1392.1999999999998</ele><time>2026-04-11T14:35:52Z</time></trkpt><trkpt lat="39.12836123474745" lon="16.7129878273771"><ele>1388.3999999999999</ele><time>2026-04-11T14:35:53Z</time></trkpt><trkpt lat="39.128434311770626" lon="16.71314789062642"><ele>1384.6</ele><time>2026-04-11T14:35:55Z</time></trkpt><trkpt lat="39.128472829270585" lon="16.713233580867822"><ele>1380.8</ele><time>2026-04-11T14:35:56Z</time></trkpt><trkpt lat="39.12851381857011" lon="16.71333427262503"><ele>1377.0</ele><time>2026-04-11T14:35:57Z</time></trkpt><trkpt lat="39.128584089306024" lon="16.71343762062747"><ele>1377.0</ele><time>2026-04-11T14:35:58Z</time></trkpt><trkpt lat="39.128611973090266" lon="16.713523290139"><ele>1377.0</ele><time>2026-04-11T14:35:59Z</time></trkpt><trkpt lat="39.128639838520954" lon="16.713601347089547"><ele>1377.0</ele><time>2026-04-11T14:36:00Z</time></trkpt><trkpt lat="39.128694503020235" lon="16.713687675772494"><ele>1377.0</ele><time>2026-04-11T14:36:01Z</time></trkpt><trkpt lat="39.128738436554315" lon="16.713753494591327"><ele>1377.0</ele><time>2026-04-11T14:36:02Z</time></trkpt><trkpt lat="39.12876892507806" lon="16.71385649936056"><ele>1377.0</ele><time>2026-04-11T14:36:03Z</time></trkpt><trkpt lat="39.12875689207392" lon="16.71395324403317"><ele>1377.25</ele><time>2026-04-11T14:36:04Z</time></trkpt><trkpt lat="39.128722105751486" lon="16.714115058208986"><ele>1377.5</ele><time>2026-04-11T14:36:06.001Z</time></trkpt><trkpt lat="39.12871643897604" lon="16.7142512359668"><ele>1377.75</ele><time>2026-04-11T14:36:07.001Z</time></trkpt><trkpt lat="39.12869214702617" lon="16.714359202153815"><ele>1378.0</ele><time>2026-04-11T14:36:08.001Z</time></trkpt><trkpt lat="39.12860510126528" lon="16.714480586678675"><ele>1375.5</ele><time>2026-04-11T14:36:10.001Z</time></trkpt><trkpt lat="39.12854612585085" lon="16.714519839725007"><ele>1373.0</ele><time>2026-04-11T14:36:11.001Z</time></trkpt><trkpt lat="39.12848985141922" lon="16.714600778670842"><ele>1370.5</ele><time>2026-04-11T14:36:12.001Z</time></trkpt><trkpt lat="39.128472649476755" lon="16.7146842209718"><ele>1368.0</ele><time>2026-04-11T14:36:13.001Z</time></trkpt><trkpt lat="39.12840112577689" lon="16.71479441416787"><ele>1365.5</ele><time>2026-04-11T14:36:15.001Z</time></trkpt><trkpt lat="39.1283770940208" lon="16.714894066655745"><ele>1363.0</ele><time>2026-04-11T14:36:16.001Z</time></trkpt><trkpt lat="39.12832131775397" lon="16.715002903727076"><ele>1363.0</ele><time>2026-04-11T14:36:18.001Z</time></trkpt><trkpt lat="39.12823304903422" lon="16.71510915104251"><ele>1363.0</ele><time>2026-04-11T14:36:20.001Z</time></trkpt><trkpt lat="39.128152635385455" lon="16.715193583119795"><ele>1363.0</ele><time>2026-04-11T14:36:22.001Z</time></trkpt><trkpt lat="39.12809651758245" lon="16.715279290994655"><ele>1363.0</ele><time>2026-04-11T14:36:24.001Z</time></trkpt><trkpt lat="39.128021944908966" lon="16.715335457966823"><ele>1363.0</ele><time>2026-04-11T14:36:26.001Z</time></trkpt><trkpt lat="39.12794407399572" lon="16.715362371761103"><ele>1361.3333333333333</ele><time>2026-04-11T14:36:29Z</time></trkpt><trkpt lat="39.127870286158995" lon="16.71536329835795"><ele>1359.6666666666665</ele><time>2026-04-11T14:36:31.999Z</time></trkpt><trkpt lat="39.12780881225007" lon="16.715394717080127"><ele>1358.0</ele><time>2026-04-11T14:36:33.999Z</time></trkpt><trkpt lat="39.12774460596815" lon="16.715422915509947"><ele>1356.3333333333333</ele><time>2026-04-11T14:36:35.999Z</time></trkpt><trkpt lat="39.12768945013193" lon="16.71550240978293"><ele>1354.6666666666667</ele><time>2026-04-11T14:36:39.999Z</time></trkpt><trkpt lat="39.127590488568124" lon="16.71554851587436"><ele>1353.0</ele><time>2026-04-11T14:36:41.999Z</time></trkpt><trkpt lat="39.12752941158964" lon="16.71563941560572"><ele>1353.0</ele><time>2026-04-11T14:36:44.999Z</time></trkpt><trkpt lat="39.127468951649746" lon="16.715708910126867"><ele>1353.0</ele><time>2026-04-11T14:36:46.999Z</time></trkpt><trkpt lat="39.12740736952223" lon="16.71574861419849"><ele>1353.0</ele><time>2026-04-11T14:36:48.999Z</time></trkpt><trkpt lat="39.12734786317756" lon="16.715838297825087"><ele>1353.0</ele><time>2026-04-11T14:36:50.999Z</time></trkpt><trkpt lat="39.12726428815792" lon="16.715877288493882"><ele>1353.0</ele><time>2026-04-11T14:36:52.999Z</time></trkpt><trkpt lat="39.1272629685743" lon="16.715975161127588"><ele>1353.0</ele><time>2026-04-11T14:36:54.999Z</time></trkpt><trkpt lat="39.12724080862831" lon="16.716064856132796"><ele>1356.6000000000001</ele><time>2026-04-11T14:36:57.999Z</time></trkpt><trkpt lat="39.12719936793508" lon="16.716204836771038"><ele>1360.2</ele><time>2026-04-11T14:36:59.999Z</time></trkpt><trkpt lat="39.12720782943628" lon="16.71635331079986"><ele>1363.8</ele><time>2026-04-11T14:37:01.999Z</time></trkpt><trkpt lat="39.12723722345292" lon="16.71649745364166"><ele>1367.4</ele><time>2026-04-11T14:37:03.999Z</time></trkpt><trkpt lat="39.12724029982954" lon="16.716591515589588"><ele>1371.0</ele><time>2026-04-11T14:37:05.999Z</time></trkpt><trkpt lat="39.12728270239168" lon="16.716699580193527"><ele>1371.0</ele><time>2026-04-11T14:37:07.999Z</time></trkpt><trkpt lat="39.12733891245011" lon="16.716852345697045"><ele>1371.0</ele><time>2026-04-11T14:37:09.999Z</time></trkpt><trkpt lat="39.12736869310398" lon="16.71699835384538"><ele>1371.0</ele><time>2026-04-11T14:37:11.999Z</time></trkpt><trkpt lat="39.127383763072224" lon="16.717098785417456"><ele>1371.0</ele><time>2026-04-11T14:37:12.999Z</time></trkpt><trkpt lat="39.12742419428499" lon="16.71717746615565"><ele>1371.0</ele><time>2026-04-11T14:37:13.999Z</time></trkpt><trkpt lat="39.127478709337595" lon="16.71727373351957"><ele>1365.6666666666667</ele><time>2026-04-11T14:37:14.999Z</time></trkpt><trkpt lat="39.12753776919883" lon="16.717375299956032"><ele>1360.3333333333333</ele><time>2026-04-11T14:37:15.999Z</time></trkpt><trkpt lat="39.12759120613399" lon="16.717439936177076"><ele>1355.0</ele><time>2026-04-11T14:37:16.999Z</time></trkpt><trkpt lat="39.12761938073156" lon="16.71751825401572"><ele>1349.6666666666665</ele><time>2026-04-11T14:37:17.999Z</time></trkpt><trkpt lat="39.127643532593886" lon="16.717604858598722"><ele>1344.3333333333333</ele><time>2026-04-11T14:37:18.999Z</time></trkpt><trkpt lat="39.127664742733465" lon="16.71769388848034"><ele>1339.0</ele><time>2026-04-11T14:37:19.999Z</time></trkpt><trkpt lat="39.1277037427903" lon="16.71778781895281"><ele>1337.3333333333333</ele><time>2026-04-11T14:37:20.999Z</time></trkpt><trkpt lat="39.12771888547734" lon="16.717869675546893"><ele>1335.6666666666665</ele><time>2026-04-11T14:37:21.999Z</time></trkpt><trkpt lat="39.12773359762336" lon="16.717949396126762"><ele>1334.0</ele><time>2026-04-11T14:37:22.999Z</time></trkpt><trkpt lat="39.12773376227036" lon="16.718046478719934"><ele>1332.3333333333333</ele><time>2026-04-11T14:37:23.999Z</time></trkpt><trkpt lat="39.12774855736614" lon="16.718144232874444"><ele>1330.6666666666667</ele><time>2026-04-11T14:37:24.999Z</time></trkpt><trkpt lat="39.12776002520503" lon="16.718244214813556"><ele>1329.0</ele><time>2026-04-11T14:37:25.999Z</time></trkpt><trkpt lat="39.12773007204813" lon="16.71839967255835"><ele>1329.0</ele><time>2026-04-11T14:37:27.999Z</time></trkpt><trkpt lat="39.127728550039805" lon="16.718490602265476"><ele>1329.0</ele><time>2026-04-11T14:37:28.999Z</time></trkpt><trkpt lat="39.12771571480754" lon="16.718575043443224"><ele>1329.0</ele><time>2026-04-11T14:37:29.999Z</time></trkpt><trkpt lat="39.12763607437233" lon="16.718622855339653"><ele>1329.0</ele><time>2026-04-11T14:37:30.999Z</time></trkpt><trkpt lat="39.12758629430447" lon="16.71868240988719"><ele>1329.0</ele><time>2026-04-11T14:37:31.999Z</time></trkpt><trkpt lat="39.12750998706761" lon="16.71878526445435"><ele>1329.0</ele><time>2026-04-11T14:37:33.999Z</time></trkpt><trkpt lat="39.127459143091656" lon="16.718895849377372"><ele>1326.4</ele><time>2026-04-11T14:37:35.999Z</time></trkpt><trkpt lat="39.1274025687655" lon="16.718977400829846"><ele>1323.8000000000002</ele><time>2026-04-11T14:37:37.999Z</time></trkpt><trkpt lat="39.12738788832655" lon="16.719077999717694"><ele>1321.1999999999998</ele><time>2026-04-11T14:37:38.999Z</time></trkpt><trkpt lat="39.12738332869017" lon="16.719205489058716"><ele>1318.6</ele><time>2026-04-11T14:37:39.999Z</time></trkpt><trkpt lat="39.12736754154465" lon="16.719288632862348"><ele>1316.0</ele><time>2026-04-11T14:37:40.999Z</time></trkpt><trkpt lat="39.12728413282943" lon="16.719408083789006"><ele>1313.1999999999998</ele><time>2026-04-11T14:37:42.999Z</time></trkpt><trkpt lat="39.127207907965456" lon="16.719434839002123"><ele>1310.3999999999999</ele><time>2026-04-11T14:37:44.999Z</time></trkpt><trkpt lat="39.12712228432201" lon="16.719503260164114"><ele>1307.6</ele><time>2026-04-11T14:37:46.999Z</time></trkpt><trkpt lat="39.12704969812933" lon="16.719537468975226"><ele>1304.8</ele><time>2026-04-11T14:37:48.999Z</time></trkpt><trkpt lat="39.12696180972644" lon="16.719629524184196"><ele>1302.0</ele><time>2026-04-11T14:37:51.999Z</time></trkpt><trkpt lat="39.12689039417357" lon="16.719715179907645"><ele>1302.0</ele><time>2026-04-11T14:37:53.999Z</time></trkpt><trkpt lat="39.12681871128002" lon="16.719741706328673"><ele>1302.0</ele><time>2026-04-11T14:37:54.999Z</time></trkpt><trkpt lat="39.126767238185536" lon="16.71981797155267"><ele>1302.0</ele><time>2026-04-11T14:37:55.999Z</time></trkpt><trkpt lat="39.126705281444394" lon="16.71992816804573"><ele>1302.0</ele><time>2026-04-11T14:37:56.999Z</time></trkpt><trkpt lat="39.12665788530268" lon="16.720028553149415"><ele>1302.0</ele><time>2026-04-11T14:37:59.999Z</time></trkpt><trkpt lat="39.126606777007794" lon="16.720133639385335"><ele>1302.0</ele><time>2026-04-11T14:38:01.999Z</time></trkpt><trkpt lat="39.12653943962813" lon="16.720269559688685"><ele>1302.6</ele><time>2026-04-11T14:38:02.999Z</time></trkpt><trkpt lat="39.126498854558534" lon="16.720351480660916"><ele>1303.1999999999998</ele><time>2026-04-11T14:38:03.999Z</time></trkpt><trkpt lat="39.12640223367159" lon="16.720461629715167"><ele>1303.8</ele><time>2026-04-11T14:38:06.999Z</time></trkpt><trkpt lat="39.12634506072954" lon="16.720539585570847"><ele>1304.4</ele><time>2026-04-11T14:38:07.999Z</time></trkpt><trkpt lat="39.126285406346234" lon="16.720616477497252"><ele>1305.0</ele><time>2026-04-11T14:38:08.999Z</time></trkpt><trkpt lat="39.126228901632146" lon="16.720685496934376"><ele>1305.0</ele><time>2026-04-11T14:38:09.999Z</time></trkpt><trkpt lat="39.126177443233615" lon="16.7207400559502"><ele>1305.0</ele><time>2026-04-11T14:38:11Z</time></trkpt><trkpt lat="39.12611264975766" lon="16.72080627001641"><ele>1305.0</ele><time>2026-04-11T14:38:12Z</time></trkpt><trkpt lat="39.12604638469488" lon="16.720867104225054"><ele>1305.0</ele><time>2026-04-11T14:38:13Z</time></trkpt><trkpt lat="39.12575163144795" lon="16.721345873653892"><ele>1302.0</ele><time>2026-04-11T14:38:15Z</time></trkpt><trkpt lat="39.12575683729587" lon="16.72144266541031"><ele>1299.0</ele><time>2026-04-11T14:38:17Z</time></trkpt><trkpt lat="39.12565975639659" lon="16.72162804236027"><ele>1296.0</ele><time>2026-04-11T14:38:22Z</time></trkpt><trkpt lat="39.12560839866042" lon="16.72369356514851"><ele>1292.25</ele><time>2026-04-11T14:38:54.999Z</time></trkpt><trkpt lat="39.12557738503875" lon="16.723774390142236"><ele>1288.5</ele><time>2026-04-11T14:38:55.999Z</time></trkpt><trkpt lat="39.125635517911725" lon="16.723661627469326"><ele>1284.75</ele><time>2026-04-11T14:38:58.999Z</time></trkpt><trkpt lat="39.1256959657991" lon="16.72352259555414"><ele>1281.0</ele><time>2026-04-11T14:39:00.999Z</time></trkpt><trkpt lat="39.12594475053736" lon="16.72360481984906"><ele>1276.6</ele><time>2026-04-11T14:39:04.999Z</time></trkpt><trkpt lat="39.126079819172595" lon="16.723683597744028"><ele>1272.1999999999998</ele><time>2026-04-11T14:39:06.999Z</time></trkpt><trkpt lat="39.126138983631606" lon="16.723718679376198"><ele>1267.8000000000002</ele><time>2026-04-11T14:39:07.999Z</time></trkpt><trkpt lat="39.126239903360556" lon="16.723834780194696"><ele>1263.4</ele><time>2026-04-11T14:39:09.999Z</time></trkpt><trkpt lat="39.12630022816463" lon="16.723887270215478"><ele>1259.0</ele><time>2026-04-11T14:39:10.999Z</time></trkpt><trkpt lat="39.12633765382881" lon="16.72396771143445"><ele>1259.0</ele><time>2026-04-11T14:39:11.999Z</time></trkpt><trkpt lat="39.12640236414169" lon="16.724072157319657"><ele>1259.0</ele><time>2026-04-11T14:39:13.999Z</time></trkpt><trkpt lat="39.12648024149949" lon="16.724120171580505"><ele>1259.0</ele><time>2026-04-11T14:39:14.999Z</time></trkpt><trkpt lat="39.12654436209798" lon="16.724222271772543"><ele>1259.0</ele><time>2026-04-11T14:39:16.999Z</time></trkpt><trkpt lat="39.126460242879304" lon="16.724248004552"><ele>1259.0</ele><time>2026-04-11T14:39:19.999Z</time></trkpt><trkpt lat="39.126408169955894" lon="16.724343911573417"><ele>1256.0</ele><time>2026-04-11T14:39:22.999Z</time></trkpt><trkpt lat="39.12631316119116" lon="16.724411140033627"><ele>1253.0</ele><time>2026-04-11T14:39:24.999Z</time></trkpt><trkpt lat="39.12642964457307" lon="16.72442965417367"><ele>1250.0</ele><time>2026-04-11T14:39:28.999Z</time></trkpt><trkpt lat="39.126357156811196" lon="16.72443166206559"><ele>1247.0</ele><time>2026-04-11T14:39:31.999Z</time></trkpt><trkpt lat="39.12623413669945" lon="16.724437353425994"><ele>1244.0</ele><time>2026-04-11T14:39:32.999Z</time></trkpt><trkpt lat="39.12616079214678" lon="16.724420364056943"><ele>1244.0</ele><time>2026-04-11T14:39:33.999Z</time></trkpt><trkpt lat="39.12609239552868" lon="16.72445570171852"><ele>1244.0</ele><time>2026-04-11T14:39:34.999Z</time></trkpt><trkpt lat="39.126062122258794" lon="16.724530485231924"><ele>1244.0</ele><time>2026-04-11T14:39:35.999Z</time></trkpt><trkpt lat="39.12603281986645" lon="16.724674709778913"><ele>1244.0</ele><time>2026-04-11T14:39:36.999Z</time></trkpt><trkpt lat="39.12540022273214" lon="16.725104572139195"><ele>1247.3333333333335</ele><time>2026-04-11T14:39:38.999Z</time></trkpt><trkpt lat="39.12534755651437" lon="16.72521195740563"><ele>1250.6666666666667</ele><time>2026-04-11T14:39:39.999Z</time></trkpt><trkpt lat="39.125247559576714" lon="16.725250868476696"><ele>1254.0</ele><time>2026-04-11T14:39:40.999Z</time></trkpt><trkpt lat="39.12502491793398" lon="16.72542611842415"><ele>1248.2</ele><time>2026-04-11T14:39:41.999Z</time></trkpt><trkpt lat="39.124968977825134" lon="16.725526655416534"><ele>1242.4</ele><time>2026-04-11T14:39:42.999Z</time></trkpt><trkpt lat="39.12492146988178" lon="16.725655329927307"><ele>1236.6</ele><time>2026-04-11T14:39:43.999Z</time></trkpt><trkpt lat="39.12486493003319" lon="16.72575627153728"><ele>1230.8</ele><time>2026-04-11T14:39:44.999Z</time></trkpt><trkpt lat="39.12477982229745" lon="16.725860464058616"><ele>1225.0</ele><time>2026-04-11T14:39:45.999Z</time></trkpt><trkpt lat="39.12459559812527" lon="16.725983303110574"><ele>1220.0</ele><time>2026-04-11T14:39:46.999Z</time></trkpt><trkpt lat="39.124479962932654" lon="16.726087523095984"><ele>1215.0</ele><time>2026-04-11T14:39:47.999Z</time></trkpt><trkpt lat="39.1242218982681" lon="16.726264631628027"><ele>1210.0</ele><time>2026-04-11T14:39:48.999Z</time></trkpt><trkpt lat="39.12404967781233" lon="16.72641820292699"><ele>1207.0</ele><time>2026-04-11T14:39:49.999Z</time></trkpt><trkpt lat="39.12369033642547" lon="16.726275556778237"><ele>1204.0</ele><time>2026-04-11T14:39:50.999Z</time></trkpt><trkpt lat="39.12355661128666" lon="16.726416861671794"><ele>1204.0</ele><time>2026-04-11T14:39:51.999Z</time></trkpt><trkpt lat="39.123426792367894" lon="16.726598570351413"><ele>1204.0</ele><time>2026-04-11T14:39:52.999Z</time></trkpt><trkpt lat="39.12341145303309" lon="16.72691485743682"><ele>1204.0</ele><time>2026-04-11T14:39:56.999Z</time></trkpt><trkpt lat="39.12340488836209" lon="16.727000732400583"><ele>1196.0</ele><time>2026-04-11T14:39:58.999Z</time></trkpt><trkpt lat="39.123206769470976" lon="16.727030522837996"><ele>1188.0</ele><time>2026-04-11T14:39:59.999Z</time></trkpt><trkpt lat="39.12310952820468" lon="16.7271295265165"><ele>1180.0</ele><time>2026-04-11T14:40:01.999Z</time></trkpt><trkpt lat="39.123026081653585" lon="16.727140173893215"><ele>1172.0</ele><time>2026-04-11T14:40:03.999Z</time></trkpt><trkpt lat="39.12294854587568" lon="16.72717967024477"><ele>1172.0</ele><time>2026-04-11T14:40:04.999Z</time></trkpt><trkpt lat="39.122858753663934" lon="16.7272198217652"><ele>1172.0</ele><time>2026-04-11T14:40:05.999Z</time></trkpt><trkpt lat="39.12343629679248" lon="16.72686243706398"><ele>1179.6</ele><time>2026-04-11T14:41:11Z</time></trkpt><trkpt lat="39.123447999153626" lon="16.72694915530297"><ele>1187.2</ele><time>2026-04-11T14:44:01.999Z</time></trkpt><trkpt lat="39.12352708905243" lon="16.72705629978015"><ele>1194.8</ele><time>2026-04-11T14:44:03.999Z</time></trkpt><trkpt lat="39.12361008080544" lon="16.727168214581166"><ele>1202.4</ele><time>2026-04-11T14:44:05.999Z</time></trkpt><trkpt lat="39.12368688013667" lon="16.727280896516024"><ele>1210.0</ele><time>2026-04-11T14:44:07.999Z</time></trkpt><trkpt lat="39.12373741087555" lon="16.727330747898158"><ele>1210.0</ele><time>2026-04-11T14:44:08.999Z</time></trkpt><trkpt lat="39.1237860955118" lon="16.727394760137457"><ele>1210.0</ele><time>2026-04-11T14:44:09.999Z</time></trkpt><trkpt lat="39.123848472892504" lon="16.727441798297377"><ele>1210.0</ele><time>2026-04-11T14:44:10.999Z</time></trkpt><trkpt lat="39.12391469038085" lon="16.727508015829486"><ele>1210.0</ele><time>2026-04-11T14:44:11.999Z</time></trkpt><trkpt lat="39.123980869170936" lon="16.727575235571425"><ele>1210.0</ele><time>2026-04-11T14:44:12.999Z</time></trkpt><trkpt lat="39.124042970018024" lon="16.72764152231941"><ele>1210.0</ele><time>2026-04-11T14:44:13.999Z</time></trkpt><trkpt lat="39.12409991999264" lon="16.72770414670644"><ele>1212.6666666666665</ele><time>2026-04-11T14:44:14.999Z</time></trkpt><trkpt lat="39.124152252918165" lon="16.72776261471924"><ele>1215.3333333333333</ele><time>2026-04-11T14:44:15.999Z</time></trkpt><trkpt lat="39.124208850839864" lon="16.727829280619186"><ele>1218.0</ele><time>2026-04-11T14:44:16.999Z</time></trkpt><trkpt lat="39.12426015385821" lon="16.727897654073406"><ele>1220.6666666666667</ele><time>2026-04-11T14:44:17.999Z</time></trkpt><trkpt lat="39.124308642985234" lon="16.72797033207989"><ele>1223.3333333333335</ele><time>2026-04-11T14:44:18.999Z</time></trkpt><trkpt lat="39.12436214780131" lon="16.7280510380254"><ele>1226.0</ele><time>2026-04-11T14:44:19.999Z</time></trkpt><trkpt lat="39.12439695408511" lon="16.7281473041108"><ele>1226.0</ele><time>2026-04-11T14:44:20.999Z</time></trkpt><trkpt lat="39.12445029334457" lon="16.728228343732873"><ele>1226.0</ele><time>2026-04-11T14:44:21.999Z</time></trkpt><trkpt lat="39.124497724688965" lon="16.728307727698553"><ele>1226.0</ele><time>2026-04-11T14:44:22.999Z</time></trkpt><trkpt lat="39.124547672244745" lon="16.72838330458557"><ele>1226.0</ele><time>2026-04-11T14:44:23.999Z</time></trkpt><trkpt lat="39.12460579280766" lon="16.7284613806052"><ele>1226.0</ele><time>2026-04-11T14:44:24.999Z</time></trkpt><trkpt lat="39.12466486956794" lon="16.728545763571983"><ele>1226.0</ele><time>2026-04-11T14:44:25.999Z</time></trkpt><trkpt lat="39.12471464552277" lon="16.728642750576924"><ele>1226.0</ele><time>2026-04-11T14:44:26.999Z</time></trkpt><trkpt lat="39.12476911392494" lon="16.72873306802747"><ele>1226.0</ele><time>2026-04-11T14:44:27.999Z</time></trkpt><trkpt lat="39.12482287439092" lon="16.728830411285244"><ele>1226.0</ele><time>2026-04-11T14:44:28.999Z</time></trkpt><trkpt lat="39.12484338585557" lon="16.728939700213278"><ele>1226.0</ele><time>2026-04-11T14:44:29.999Z</time></trkpt><trkpt lat="39.12486228313018" lon="16.729055837203372"><ele>1226.0</ele><time>2026-04-11T14:44:30.999Z</time></trkpt><trkpt lat="39.12487198766971" lon="16.729191707884482"><ele>1226.0</ele><time>2026-04-11T14:44:31.999Z</time></trkpt><trkpt lat="39.124865723341046" lon="16.729322034798564"><ele>1226.0</ele><time>2026-04-11T14:44:32.999Z</time></trkpt><trkpt lat="39.12484888951717" lon="16.729435056104904"><ele>1226.0</ele><time>2026-04-11T14:44:33.999Z</time></trkpt><trkpt lat="39.124808405063725" lon="16.72951439040016"><ele>1226.0</ele><time>2026-04-11T14:44:34.999Z</time></trkpt><trkpt lat="39.1247576556446" lon="16.729614272299436"><ele>1226.0</ele><time>2026-04-11T14:44:35.999Z</time></trkpt><trkpt lat="39.12470675250087" lon="16.729697371253252"><ele>1226.0</ele><time>2026-04-11T14:44:36.999Z</time></trkpt><trkpt lat="39.1246520869934" lon="16.729793154646213"><ele>1224.8333333333335</ele><time>2026-04-11T14:44:37.999Z</time></trkpt><trkpt lat="39.124599669622064" lon="16.72987707894114"><ele>1223.6666666666667</ele><time>2026-04-11T14:44:38.999Z</time></trkpt><trkpt lat="39.12454698003499" lon="16.729939013772892"><ele>1222.5</ele><time>2026-04-11T14:44:39.999Z</time></trkpt><trkpt lat="39.12449296025533" lon="16.730013026049203"><ele>1221.3333333333333</ele><time>2026-04-11T14:44:40.999Z</time></trkpt><trkpt lat="39.12443982820901" lon="16.730087830674403"><ele>1220.1666666666665</ele><time>2026-04-11T14:44:41.999Z</time></trkpt><trkpt lat="39.124390548773455" lon="16.730165740977796"><ele>1219.0</ele><time>2026-04-11T14:44:42.999Z</time></trkpt><trkpt lat="39.12435187993025" lon="16.730236927531493"><ele>1216.8</ele><time>2026-04-11T14:44:43.999Z</time></trkpt><trkpt lat="39.1243203092689" lon="16.730327427005616"><ele>1214.6000000000001</ele><time>2026-04-11T14:44:44.999Z</time></trkpt><trkpt lat="39.12429280483159" lon="16.73040168092108"><ele>1212.4</ele><time>2026-04-11T14:44:46.999Z</time></trkpt><trkpt lat="39.124439500488386" lon="16.730350737764574"><ele>1210.2</ele><time>2026-04-11T14:44:50.999Z</time></trkpt><trkpt lat="39.12451200529829" lon="16.730325159029498"><ele>1208.0</ele><time>2026-04-11T14:44:51.999Z</time></trkpt><trkpt lat="39.124593455536875" lon="16.730289632767605"><ele>1206.4</ele><time>2026-04-11T14:44:52.999Z</time></trkpt><trkpt lat="39.1246871003285" lon="16.730217356365486"><ele>1204.8</ele><time>2026-04-11T14:44:54.999Z</time></trkpt><trkpt lat="39.12480336430467" lon="16.730210751656685"><ele>1203.2</ele><time>2026-04-11T14:44:56.999Z</time></trkpt><trkpt lat="39.12486748343731" lon="16.730202693948133"><ele>1201.6</ele><time>2026-04-11T14:44:57.999Z</time></trkpt><trkpt lat="39.12497150117368" lon="16.73017072736923"><ele>1200.0</ele><time>2026-04-11T14:44:59.999Z</time></trkpt><trkpt lat="39.12510093870412" lon="16.73016519541538"><ele>1200.0</ele><time>2026-04-11T14:45:01.999Z</time></trkpt><trkpt lat="39.12521118767205" lon="16.730176757430304"><ele>1200.0</ele><time>2026-04-11T14:45:03.999Z</time></trkpt><trkpt lat="39.125333301272036" lon="16.730197414435203"><ele>1200.0</ele><time>2026-04-11T14:45:05.999Z</time></trkpt><trkpt lat="39.125409919909536" lon="16.730169774487656"><ele>1200.0</ele><time>2026-04-11T14:45:06.999Z</time></trkpt><trkpt lat="39.12547661743669" lon="16.73014770014162"><ele>1200.0</ele><time>2026-04-11T14:45:07.999Z</time></trkpt><trkpt lat="39.125560718365996" lon="16.73010429105067"><ele>1200.0</ele><time>2026-04-11T14:45:09.999Z</time></trkpt><trkpt lat="39.125611739713975" lon="16.72992942255095"><ele>1200.0</ele><time>2026-04-11T14:45:11.999Z</time></trkpt><trkpt lat="39.12562822324424" lon="16.72982032750713"><ele>1200.0</ele><time>2026-04-11T14:45:12.999Z</time></trkpt><trkpt lat="39.125660474160426" lon="16.729745164137693"><ele>1200.0</ele><time>2026-04-11T14:45:13.999Z</time></trkpt><trkpt lat="39.12571201610023" lon="16.729615103394046"><ele>1200.0</ele><time>2026-04-11T14:45:15.999Z</time></trkpt><trkpt lat="39.12578835712688" lon="16.72950270953221"><ele>1195.4</ele><time>2026-04-11T14:45:17.999Z</time></trkpt><trkpt lat="39.12585409975705" lon="16.729388628368014"><ele>1190.8</ele><time>2026-04-11T14:45:19.999Z</time></trkpt><trkpt lat="39.12595292914969" lon="16.72932318079352"><ele>1186.2</ele><time>2026-04-11T14:45:22Z</time></trkpt><trkpt lat="39.12603505205156" lon="16.72931063816083"><ele>1181.6</ele><time>2026-04-11T14:45:23Z</time></trkpt><trkpt lat="39.12615054888793" lon="16.72932230713646"><ele>1177.0</ele><time>2026-04-11T14:45:25Z</time></trkpt><trkpt lat="39.126255354216724" lon="16.729330026739397"><ele>1177.2</ele><time>2026-04-11T14:45:27Z</time></trkpt><trkpt lat="39.126341327223614" lon="16.729396043946977"><ele>1177.4</ele><time>2026-04-11T14:45:29Z</time></trkpt><trkpt lat="39.126359886943156" lon="16.729531441121726"><ele>1177.6</ele><time>2026-04-11T14:45:31Z</time></trkpt><trkpt lat="39.12634854326663" lon="16.729629005402483"><ele>1177.8</ele><time>2026-04-11T14:45:32Z</time></trkpt><trkpt lat="39.126321892670134" lon="16.729707223529157"><ele>1178.0</ele><time>2026-04-11T14:45:33Z</time></trkpt><trkpt lat="39.1263363767879" lon="16.729853560526912"><ele>1178.0</ele><time>2026-04-11T14:45:35Z</time></trkpt><trkpt lat="39.12636939571857" lon="16.729930425352055"><ele>1178.0</ele><time>2026-04-11T14:45:36Z</time></trkpt><trkpt lat="39.12633121330115" lon="16.730038614763124"><ele>1178.0</ele><time>2026-04-11T14:45:38Z</time></trkpt><trkpt lat="39.126359947179964" lon="16.730125086769238"><ele>1178.0</ele><time>2026-04-11T14:45:39Z</time></trkpt><trkpt lat="39.12639570201516" lon="16.73025508445899"><ele>1178.0</ele><time>2026-04-11T14:45:41Z</time></trkpt><trkpt lat="39.12648785723238" lon="16.730324076748385"><ele>1178.0</ele><time>2026-04-11T14:45:44Z</time></trkpt><trkpt lat="39.126566056954076" lon="16.73031374045846"><ele>1172.6666666666667</ele><time>2026-04-11T14:45:46Z</time></trkpt><trkpt lat="39.126647639854816" lon="16.730342731443624"><ele>1167.3333333333335</ele><time>2026-04-11T14:45:48Z</time></trkpt><trkpt lat="39.126739305612396" lon="16.73034682605291"><ele>1162.0</ele><time>2026-04-11T14:45:50Z</time></trkpt><trkpt lat="39.12678281269516" lon="16.730441026091647"><ele>1156.6666666666667</ele><time>2026-04-11T14:45:52Z</time></trkpt><trkpt lat="39.12677377805054" lon="16.730528082550396"><ele>1151.3333333333333</ele><time>2026-04-11T14:45:54Z</time></trkpt><trkpt lat="39.12675190253964" lon="16.73064319590782"><ele>1146.0</ele><time>2026-04-11T14:45:55Z</time></trkpt><trkpt lat="39.12671660311132" lon="16.730745268459835"><ele>1146.0</ele><time>2026-04-11T14:45:56Z</time></trkpt><trkpt lat="39.12670676149288" lon="16.730841831459095"><ele>1146.0</ele><time>2026-04-11T14:45:57Z</time></trkpt><trkpt lat="39.1267031849761" lon="16.730979020738555"><ele>1146.0</ele><time>2026-04-11T14:45:59Z</time></trkpt><trkpt lat="39.126717234177335" lon="16.731113380223043"><ele>1146.0</ele><time>2026-04-11T14:46:01Z</time></trkpt><trkpt lat="39.12679368228986" lon="16.731213287983234"><ele>1146.0</ele><time>2026-04-11T14:46:03Z</time></trkpt><trkpt lat="39.12683183075706" lon="16.73130803347724"><ele>1144.0</ele><time>2026-04-11T14:46:05Z</time></trkpt><trkpt lat="39.126790784141996" lon="16.73139399518864"><ele>1142.0</ele><time>2026-04-11T14:46:09Z</time></trkpt><trkpt lat="39.126717107753066" lon="16.731412764245572"><ele>1140.0</ele><time>2026-04-11T14:46:10Z</time></trkpt><trkpt lat="39.12659720240163" lon="16.731457932270654"><ele>1138.0</ele><time>2026-04-11T14:46:12Z</time></trkpt><trkpt lat="39.12649377201363" lon="16.73152103310246"><ele>1136.0</ele><time>2026-04-11T14:46:14Z</time></trkpt><trkpt lat="39.12643976531265" lon="16.73164327741348"><ele>1136.0</ele><time>2026-04-11T14:46:15.999Z</time></trkpt><trkpt lat="39.12632799545307" lon="16.731661546239025"><ele>1136.0</ele><time>2026-04-11T14:46:17.999Z</time></trkpt><trkpt lat="39.12625776814296" lon="16.731657034371167"><ele>1136.0</ele><time>2026-04-11T14:46:18.999Z</time></trkpt><trkpt lat="39.126178901351274" lon="16.731685420818003"><ele>1136.0</ele><time>2026-04-11T14:46:19.999Z</time></trkpt><trkpt lat="39.126083437704935" lon="16.731717567985218"><ele>1136.0</ele><time>2026-04-11T14:46:20.999Z</time></trkpt><trkpt lat="39.12600044751682" lon="16.731741630259307"><ele>1136.0</ele><time>2026-04-11T14:46:21.999Z</time></trkpt><trkpt lat="39.12594117423675" lon="16.731790363971662"><ele>1136.0</ele><time>2026-04-11T14:46:22.999Z</time></trkpt><trkpt lat="39.12586724778997" lon="16.731860631020876"><ele>1136.0</ele><time>2026-04-11T14:46:23.999Z</time></trkpt><trkpt lat="39.125813751004785" lon="16.731981999296075"><ele>1136.0</ele><time>2026-04-11T14:46:24.999Z</time></trkpt><trkpt lat="39.125795126256826" lon="16.73206859721323"><ele>1136.0</ele><time>2026-04-11T14:46:25.999Z</time></trkpt><trkpt lat="39.12576782812644" lon="16.732144956506563"><ele>1136.0</ele><time>2026-04-11T14:46:26.999Z</time></trkpt><trkpt lat="39.12573482762377" lon="16.732232163945277"><ele>1136.0</ele><time>2026-04-11T14:46:27.999Z</time></trkpt><trkpt lat="39.1256859732231" lon="16.73229950823173"><ele>1135.6666666666667</ele><time>2026-04-11T14:46:28.999Z</time></trkpt><trkpt lat="39.12560454036601" lon="16.732346035417933"><ele>1135.3333333333335</ele><time>2026-04-11T14:46:29.999Z</time></trkpt><trkpt lat="39.125528280069574" lon="16.73238211689212"><ele>1135.0</ele><time>2026-04-11T14:46:30.999Z</time></trkpt><trkpt lat="39.125456033206596" lon="16.732397574062084"><ele>1134.6666666666667</ele><time>2026-04-11T14:46:31.999Z</time></trkpt><trkpt lat="39.125389534311566" lon="16.732402373757594"><ele>1134.3333333333333</ele><time>2026-04-11T14:46:32.999Z</time></trkpt><trkpt lat="39.12528825232655" lon="16.73244674015208"><ele>1134.0</ele><time>2026-04-11T14:46:34.999Z</time></trkpt><trkpt lat="39.12519397138851" lon="16.732596447066076"><ele>1134.0</ele><time>2026-04-11T14:46:36.999Z</time></trkpt><trkpt lat="39.125132096655726" lon="16.732709876234455"><ele>1134.0</ele><time>2026-04-11T14:46:37.999Z</time></trkpt><trkpt lat="39.12507075265989" lon="16.732842498197208"><ele>1134.0</ele><time>2026-04-11T14:46:38.999Z</time></trkpt><trkpt lat="39.12505178025408" lon="16.732961239383307"><ele>1134.0</ele><time>2026-04-11T14:46:39.999Z</time></trkpt><trkpt lat="39.12502981018856" lon="16.733073223503702"><ele>1134.0</ele><time>2026-04-11T14:46:40.999Z</time></trkpt><trkpt lat="39.12501305111247" lon="16.73316845350465"><ele>1132.4285714285713</ele><time>2026-04-11T14:46:41.999Z</time></trkpt><trkpt lat="39.124987073606086" lon="16.73326176185358"><ele>1130.857142857143</ele><time>2026-04-11T14:46:42.999Z</time></trkpt><trkpt lat="39.124963871451364" lon="16.733357337492055"><ele>1129.2857142857142</ele><time>2026-04-11T14:46:43.999Z</time></trkpt><trkpt lat="39.124917179797976" lon="16.733438471554418"><ele>1127.7142857142858</ele><time>2026-04-11T14:46:44.999Z</time></trkpt><trkpt lat="39.1248991856075" lon="16.733523570593416"><ele>1126.142857142857</ele><time>2026-04-11T14:46:45.999Z</time></trkpt><trkpt lat="39.12488264783795" lon="16.733612973476486"><ele>1124.5714285714284</ele><time>2026-04-11T14:46:46.999Z</time></trkpt><trkpt lat="39.124869713113355" lon="16.733697672427738"><ele>1123.0</ele><time>2026-04-11T14:46:47.999Z</time></trkpt><trkpt lat="39.12484290425215" lon="16.73383201833715"><ele>1120.7142857142856</ele><time>2026-04-11T14:46:49.999Z</time></trkpt><trkpt lat="39.124829456874004" lon="16.733916583576313"><ele>1118.4285714285713</ele><time>2026-04-11T14:46:50.999Z</time></trkpt><trkpt lat="39.12483284308372" lon="16.734009894616477"><ele>1116.142857142857</ele><time>2026-04-11T14:46:51.999Z</time></trkpt><trkpt lat="39.12485909851644" lon="16.734099629410593"><ele>1113.8571428571427</ele><time>2026-04-11T14:46:52.999Z</time></trkpt><trkpt lat="39.124868507255904" lon="16.734202797873095"><ele>1111.5714285714284</ele><time>2026-04-11T14:46:53.999Z</time></trkpt><trkpt lat="39.124873324316766" lon="16.7342979527719"><ele>1109.2857142857142</ele><time>2026-04-11T14:46:54.999Z</time></trkpt><trkpt lat="39.12489873965912" lon="16.73438976414384"><ele>1107.0</ele><time>2026-04-11T14:46:55.999Z</time></trkpt><trkpt lat="39.12491582944269" lon="16.734475900804963"><ele>1107.0</ele><time>2026-04-11T14:46:56.999Z</time></trkpt><trkpt lat="39.12492790186126" lon="16.734560205906742"><ele>1107.0</ele><time>2026-04-11T14:46:57.999Z</time></trkpt><trkpt lat="39.12492865923238" lon="16.734645427837236"><ele>1107.0</ele><time>2026-04-11T14:46:58.999Z</time></trkpt><trkpt lat="39.12491544224494" lon="16.73474066048585"><ele>1107.0</ele><time>2026-04-11T14:46:59.999Z</time></trkpt><trkpt lat="39.124874939014326" lon="16.73483749278209"><ele>1107.0</ele><time>2026-04-11T14:47:00.999Z</time></trkpt><trkpt lat="39.12483998021124" lon="16.734929092412727"><ele>1107.0</ele><time>2026-04-11T14:47:01.999Z</time></trkpt><trkpt lat="39.12480810316974" lon="16.73501321969485"><ele>1107.0</ele><time>2026-04-11T14:47:02.999Z</time></trkpt><trkpt lat="39.12479558849314" lon="16.735093656771287"><ele>1106.1666666666667</ele><time>2026-04-11T14:47:03.999Z</time></trkpt><trkpt lat="39.12480365484585" lon="16.735181796995466"><ele>1105.3333333333333</ele><time>2026-04-11T14:47:04.999Z</time></trkpt><trkpt lat="39.124862519067754" lon="16.73530838940851"><ele>1104.5</ele><time>2026-04-11T14:47:06.999Z</time></trkpt><trkpt lat="39.124890248117644" lon="16.735383067406584"><ele>1103.6666666666665</ele><time>2026-04-11T14:47:07.999Z</time></trkpt><trkpt lat="39.12490181469244" lon="16.735542192240956"><ele>1102.8333333333333</ele><time>2026-04-11T14:47:09.999Z</time></trkpt><trkpt lat="39.124904630097696" lon="16.735634274332902"><ele>1102.0</ele><time>2026-04-11T14:47:10.999Z</time></trkpt><trkpt lat="39.12490883220088" lon="16.735716426449017"><ele>1101.9999999999998</ele><time>2026-04-11T14:47:11.999Z</time></trkpt><trkpt lat="39.12491364854212" lon="16.735801756899832"><ele>1102.0</ele><time>2026-04-11T14:47:12.999Z</time></trkpt><trkpt lat="39.12489369523724" lon="16.73588925778388"><ele>1102.0</ele><time>2026-04-11T14:47:13.999Z</time></trkpt><trkpt lat="39.124871226832184" lon="16.735988664888215"><ele>1102.0</ele><time>2026-04-11T14:47:14.999Z</time></trkpt><trkpt lat="39.124845333805716" lon="16.736075825713467"><ele>1102.0</ele><time>2026-04-11T14:47:15.999Z</time></trkpt><trkpt lat="39.12482028886537" lon="16.736151783317247"><ele>1101.9999999999998</ele><time>2026-04-11T14:47:16.999Z</time></trkpt><trkpt lat="39.12476823293658" lon="16.73623293654371"><ele>1102.0</ele><time>2026-04-11T14:47:17.999Z</time></trkpt><trkpt lat="39.124708999312816" lon="16.73633148225431"><ele>1103.6</ele><time>2026-04-11T14:47:18.999Z</time></trkpt><trkpt lat="39.12467655736949" lon="16.736458792002928"><ele>1105.2</ele><time>2026-04-11T14:47:19.999Z</time></trkpt><trkpt lat="39.12463661152976" lon="16.736558680127864"><ele>1106.8</ele><time>2026-04-11T14:47:20.999Z</time></trkpt><trkpt lat="39.124602370238996" lon="16.736657533700757"><ele>1108.4</ele><time>2026-04-11T14:47:21.999Z</time></trkpt><trkpt lat="39.12456394145869" lon="16.736732882182185"><ele>1110.0</ele><time>2026-04-11T14:47:22.999Z</time></trkpt><trkpt lat="39.12449133250023" lon="16.736859672071233"><ele>1105.2</ele><time>2026-04-11T14:47:24.999Z</time></trkpt><trkpt lat="39.124404402148436" lon="16.7369127164017"><ele>1100.4</ele><time>2026-04-11T14:47:27Z</time></trkpt><trkpt lat="39.1243557714291" lon="16.736964544086625"><ele>1095.6</ele><time>2026-04-11T14:47:28Z</time></trkpt><trkpt lat="39.124291437517265" lon="16.737005794925537"><ele>1090.8</ele><time>2026-04-11T14:47:29Z</time></trkpt><trkpt lat="39.124186390589855" lon="16.737079510027822"><ele>1086.0</ele><time>2026-04-11T14:47:31Z</time></trkpt><trkpt lat="39.124072249263016" lon="16.737147875771292"><ele>1091.0</ele><time>2026-04-11T14:47:33Z</time></trkpt><trkpt lat="39.12400717622356" lon="16.7372147996501"><ele>1096.0</ele><time>2026-04-11T14:47:35Z</time></trkpt><trkpt lat="39.12398545648067" lon="16.737315454402182"><ele>1101.0</ele><time>2026-04-11T14:47:37Z</time></trkpt><trkpt lat="39.123952953020016" lon="16.737405350122923"><ele>1106.0</ele><time>2026-04-11T14:47:40Z</time></trkpt><trkpt lat="39.1238915703802" lon="16.73750426733642"><ele>1111.0</ele><time>2026-04-11T14:47:43Z</time></trkpt><trkpt lat="39.1238427019452" lon="16.737586652866028"><ele>1116.0</ele><time>2026-04-11T14:47:44Z</time></trkpt><trkpt lat="39.123785401416285" lon="16.737657398715942"><ele>1113.8333333333333</ele><time>2026-04-11T14:47:46Z</time></trkpt><trkpt lat="39.1237013416615" lon="16.737738816342553"><ele>1111.6666666666667</ele><time>2026-04-11T14:47:48Z</time></trkpt><trkpt lat="39.12367661806948" lon="16.73782609768182"><ele>1109.5</ele><time>2026-04-11T14:47:50Z</time></trkpt><trkpt lat="39.123683448942856" lon="16.737931580825727"><ele>1107.3333333333335</ele><time>2026-04-11T14:47:52Z</time></trkpt><trkpt lat="39.12372162970362" lon="16.738021669678826"><ele>1105.1666666666667</ele><time>2026-04-11T14:47:54Z</time></trkpt><trkpt lat="39.123750260597554" lon="16.738117516614782"><ele>1103.0</ele><time>2026-04-11T14:47:56Z</time></trkpt><trkpt lat="39.12379621664936" lon="16.738224903175254"><ele>1103.0</ele><time>2026-04-11T14:47:58Z</time></trkpt><trkpt lat="39.123841195850034" lon="16.7382844210158"><ele>1103.0</ele><time>2026-04-11T14:48:00Z</time></trkpt><trkpt lat="39.12389945379911" lon="16.738386472730735"><ele>1103.0</ele><time>2026-04-11T14:48:03Z</time></trkpt><trkpt lat="39.12395282656796" lon="16.738535606339294"><ele>1103.0</ele><time>2026-04-11T14:48:05Z</time></trkpt><trkpt lat="39.123965846457814" lon="16.73863031764967"><ele>1103.0</ele><time>2026-04-11T14:48:06Z</time></trkpt><trkpt lat="39.12394831299751" lon="16.738739993358756"><ele>1101.2</ele><time>2026-04-11T14:48:07Z</time></trkpt><trkpt lat="39.12392028804924" lon="16.738874610305768"><ele>1099.4</ele><time>2026-04-11T14:48:08Z</time></trkpt><trkpt lat="39.12387856311697" lon="16.738984012719907"><ele>1097.6000000000001</ele><time>2026-04-11T14:48:09Z</time></trkpt><trkpt lat="39.123854529966565" lon="16.73908536074602"><ele>1095.8</ele><time>2026-04-11T14:48:10Z</time></trkpt><trkpt lat="39.12391343408741" lon="16.739225537557967"><ele>1094.0</ele><time>2026-04-11T14:48:11Z</time></trkpt><trkpt lat="39.12390624205075" lon="16.73935514881948"><ele>1091.6666666666667</ele><time>2026-04-11T14:48:12Z</time></trkpt><trkpt lat="39.12390278165947" lon="16.739445875339364"><ele>1089.3333333333335</ele><time>2026-04-11T14:48:13Z</time></trkpt><trkpt lat="39.123899684258" lon="16.7395460528549"><ele>1087.0</ele><time>2026-04-11T14:48:14Z</time></trkpt><trkpt lat="39.12389616556267" lon="16.739659856557605"><ele>1084.6666666666667</ele><time>2026-04-11T14:48:15Z</time></trkpt><trkpt lat="39.12388435675665" lon="16.739772917633708"><ele>1082.3333333333333</ele><time>2026-04-11T14:48:16Z</time></trkpt><trkpt lat="39.1238683089402" lon="16.73987700111112"><ele>1080.0</ele><time>2026-04-11T14:48:17Z</time></trkpt><trkpt lat="39.1238310234115" lon="16.739995021990012"><ele>1080.0</ele><time>2026-04-11T14:48:18Z</time></trkpt><trkpt lat="39.12378956818176" lon="16.74009394384765"><ele>1080.0</ele><time>2026-04-11T14:48:19Z</time></trkpt><trkpt lat="39.12373957027046" lon="16.74019032960485"><ele>1080.0</ele><time>2026-04-11T14:48:20Z</time></trkpt><trkpt lat="39.12367701257541" lon="16.740274209777315"><ele>1080.0</ele><time>2026-04-11T14:48:21Z</time></trkpt><trkpt lat="39.12360122855081" lon="16.740334942016027"><ele>1080.0</ele><time>2026-04-11T14:48:22Z</time></trkpt><trkpt lat="39.12353186919709" lon="16.74037715612209"><ele>1080.0</ele><time>2026-04-11T14:48:23Z</time></trkpt><trkpt lat="39.12346108111823" lon="16.740422218001534"><ele>1078.4</ele><time>2026-04-11T14:48:24Z</time></trkpt><trkpt lat="39.12339692718519" lon="16.74046243499837"><ele>1076.8</ele><time>2026-04-11T14:48:25Z</time></trkpt><trkpt lat="39.123324703569125" lon="16.740507907613598"><ele>1075.2</ele><time>2026-04-11T14:48:26Z</time></trkpt><trkpt lat="39.123224932871636" lon="16.740560506226796"><ele>1073.6</ele><time>2026-04-11T14:48:27Z</time></trkpt><trkpt lat="39.12313934619518" lon="16.74062395039913"><ele>1072.0</ele><time>2026-04-11T14:48:28Z</time></trkpt><trkpt lat="39.12306474126312" lon="16.74071106551956"><ele>1072.0</ele><time>2026-04-11T14:48:29Z</time></trkpt><trkpt lat="39.12299971102184" lon="16.740793207002216"><ele>1072.0</ele><time>2026-04-11T14:48:30Z</time></trkpt><trkpt lat="39.12294209796959" lon="16.740873091303897"><ele>1072.0</ele><time>2026-04-11T14:48:31Z</time></trkpt><trkpt lat="39.12287741861538" lon="16.74092681103117"><ele>1072.0</ele><time>2026-04-11T14:48:32Z</time></trkpt><trkpt lat="39.12278534177048" lon="16.740982131983735"><ele>1072.0</ele><time>2026-04-11T14:48:33Z</time></trkpt><trkpt lat="39.122679727376024" lon="16.741042060076584"><ele>1066.8</ele><time>2026-04-11T14:48:34Z</time></trkpt><trkpt lat="39.12258574063096" lon="16.74109539043185"><ele>1061.6</ele><time>2026-04-11T14:48:35Z</time></trkpt><trkpt lat="39.12247345232593" lon="16.741157838389157"><ele>1056.3999999999999</ele><time>2026-04-11T14:48:36Z</time></trkpt><trkpt lat="39.1223913792651" lon="16.741231350168533"><ele>1051.2</ele><time>2026-04-11T14:48:37Z</time></trkpt><trkpt lat="39.12232246531416" lon="16.74130779759253"><ele>1046.0</ele><time>2026-04-11T14:48:38Z</time></trkpt><trkpt lat="39.122264186228264" lon="16.741379090589394"><ele>1045.9999999999998</ele><time>2026-04-11T14:48:39Z</time></trkpt><trkpt lat="39.12221759761701" lon="16.741442707919994"><ele>1046.0</ele><time>2026-04-11T14:48:40Z</time></trkpt><trkpt lat="39.122174829049996" lon="16.741510016035907"><ele>1046.0</ele><time>2026-04-11T14:48:41Z</time></trkpt><trkpt lat="39.12213427570798" lon="16.741572294604385"><ele>1046.0</ele><time>2026-04-11T14:48:42Z</time></trkpt><trkpt lat="39.12209357066695" lon="16.74164433568965"><ele>1046.0</ele><time>2026-04-11T14:48:43Z</time></trkpt><trkpt lat="39.12201701436576" lon="16.741568718191488"><ele>1045.9999999999998</ele><time>2026-04-11T14:48:44Z</time></trkpt><trkpt lat="39.12195295227522" lon="16.741578307077184"><ele>1046.0</ele><time>2026-04-11T14:48:45Z</time></trkpt><trkpt lat="39.12186329098016" lon="16.741593172303457"><ele>1046.0</ele><time>2026-04-11T14:48:46Z</time></trkpt><trkpt lat="39.121759431668416" lon="16.74161243617555"><ele>1046.0</ele><time>2026-04-11T14:48:47Z</time></trkpt><trkpt lat="39.12163967199542" lon="16.74163653632243"><ele>1046.0</ele><time>2026-04-11T14:48:48Z</time></trkpt><trkpt lat="39.12154490408282" lon="16.741665101838002"><ele>1046.0</ele><time>2026-04-11T14:48:49Z</time></trkpt><trkpt lat="39.12147427241457" lon="16.741702237800634"><ele>1046.0</ele><time>2026-04-11T14:48:50Z</time></trkpt><trkpt lat="39.12137483082712" lon="16.74178695324649"><ele>1046.3999999999999</ele><time>2026-04-11T14:48:51Z</time></trkpt><trkpt lat="39.121293319121044" lon="16.74184845068489"><ele>1046.8</ele><time>2026-04-11T14:48:52Z</time></trkpt><trkpt lat="39.121177756936056" lon="16.741935638781584"><ele>1047.1999999999998</ele><time>2026-04-11T14:48:53Z</time></trkpt><trkpt lat="39.12111309191667" lon="16.74199352187901"><ele>1047.6</ele><time>2026-04-11T14:48:54Z</time></trkpt><trkpt lat="39.12118827102196" lon="16.742093622898174"><ele>1048.0</ele><time>2026-04-11T14:48:57Z</time></trkpt><trkpt lat="39.12120624944192" lon="16.74217834349622"><ele>1042.2</ele><time>2026-04-11T14:48:58Z</time></trkpt><trkpt lat="39.12117982297798" lon="16.742314543025124"><ele>1036.4</ele><time>2026-04-11T14:49:00Z</time></trkpt><trkpt lat="39.121153254441516" lon="16.742451475117697"><ele>1030.6000000000001</ele><time>2026-04-11T14:49:01Z</time></trkpt><trkpt lat="39.12099650402588" lon="16.74242275535289"><ele>1024.8</ele><time>2026-04-11T14:49:02Z</time></trkpt><trkpt lat="39.1209347715857" lon="16.742471783298406"><ele>1019.0</ele><time>2026-04-11T14:49:03Z</time></trkpt><trkpt lat="39.12083945601038" lon="16.74254308610532"><ele>1019.0</ele><time>2026-04-11T14:49:04.999Z</time></trkpt><trkpt lat="39.120742436839144" lon="16.742597821885646"><ele>1019.0000000000001</ele><time>2026-04-11T14:49:06.999Z</time></trkpt><trkpt lat="39.12064103116629" lon="16.742615235270357"><ele>1019.0000000000001</ele><time>2026-04-11T14:49:08.999Z</time></trkpt><trkpt lat="39.120570720431594" lon="16.742660963391124"><ele>1019.0</ele><time>2026-04-11T14:49:09.999Z</time></trkpt><trkpt lat="39.120522224306015" lon="16.742719095126755"><ele>1019.0</ele><time>2026-04-11T14:49:11.999Z</time></trkpt><trkpt lat="39.12044200847327" lon="16.742833791891993"><ele>1016.5</ele><time>2026-04-11T14:49:13.999Z</time></trkpt><trkpt lat="39.120379834957085" lon="16.74297272186611"><ele>1014.0</ele><time>2026-04-11T14:49:14.999Z</time></trkpt><trkpt lat="39.12038049118848" lon="16.74313593743263"><ele>1011.5</ele><time>2026-04-11T14:49:15.999Z</time></trkpt><trkpt lat="39.120308671916476" lon="16.74323751140573"><ele>1009.0</ele><time>2026-04-11T14:49:16.999Z</time></trkpt><trkpt lat="39.12023948756595" lon="16.743374856710435"><ele>1009.0</ele><time>2026-04-11T14:49:17.999Z</time></trkpt><trkpt lat="39.1201787997883" lon="16.743498241769327"><ele>1009.0000000000001</ele><time>2026-04-11T14:49:18.999Z</time></trkpt><trkpt lat="39.12011130376091" lon="16.743626973418174"><ele>1009.0000000000001</ele><time>2026-04-11T14:49:19.999Z</time></trkpt><trkpt lat="39.12002142779262" lon="16.74372430551527"><ele>1009.0</ele><time>2026-04-11T14:49:20.999Z</time></trkpt><trkpt lat="39.11994996390802" lon="16.7438065606015"><ele>1009.0</ele><time>2026-04-11T14:49:21.999Z</time></trkpt><trkpt lat="39.11986895876173" lon="16.743871670032632"><ele>1004.2</ele><time>2026-04-11T14:49:22.999Z</time></trkpt><trkpt lat="39.119811599872705" lon="16.743946385378443"><ele>999.4000000000001</ele><time>2026-04-11T14:49:23.999Z</time></trkpt><trkpt lat="39.11973147009907" lon="16.7439854897056"><ele>994.6</ele><time>2026-04-11T14:49:24.999Z</time></trkpt><trkpt lat="39.11962447639482" lon="16.74395821109146"><ele>989.8</ele><time>2026-04-11T14:49:25.999Z</time></trkpt><trkpt lat="39.11949124158697" lon="16.743956009467873"><ele>985.0</ele><time>2026-04-11T14:49:26.999Z</time></trkpt><trkpt lat="39.11938971640903" lon="16.74395424215638"><ele>985.0</ele><time>2026-04-11T14:49:27.999Z</time></trkpt><trkpt lat="39.11927694531814" lon="16.743955987013628"><ele>985.0</ele><time>2026-04-11T14:49:28.999Z</time></trkpt><trkpt lat="39.11916521559502" lon="16.743961017847397"><ele>985.0</ele><time>2026-04-11T14:49:29.999Z</time></trkpt><trkpt lat="39.11905438633219" lon="16.743966007836082"><ele>985.0</ele><time>2026-04-11T14:49:30.999Z</time></trkpt><trkpt lat="39.11894557656618" lon="16.74394547568264"><ele>985.0</ele><time>2026-04-11T14:49:31.999Z</time></trkpt><trkpt lat="39.118876602430404" lon="16.74398644774358"><ele>985.4999999999999</ele><time>2026-04-11T14:49:33Z</time></trkpt><trkpt lat="39.118832953143404" lon="16.744078386338888"><ele>986.0</ele><time>2026-04-11T14:49:34Z</time></trkpt><trkpt lat="39.118803711633255" lon="16.744158870847865"><ele>986.5</ele><time>2026-04-11T14:49:36Z</time></trkpt><trkpt lat="39.118776822342426" lon="16.74424118320902"><ele>987.0</ele><time>2026-04-11T14:49:37Z</time></trkpt><trkpt lat="39.11872663450964" lon="16.74433769207088"><ele>987.4999999999999</ele><time>2026-04-11T14:49:38Z</time></trkpt><trkpt lat="39.11866933882256" lon="16.74443072194251"><ele>988.0</ele><time>2026-04-11T14:49:39Z</time></trkpt><trkpt lat="39.11862038670344" lon="16.744508370569246"><ele>985.2</ele><time>2026-04-11T14:49:40Z</time></trkpt><trkpt lat="39.11856561939081" lon="16.744568196894143"><ele>982.4</ele><time>2026-04-11T14:49:41Z</time></trkpt><trkpt lat="39.11851920046117" lon="16.7446621134555"><ele>979.6000000000001</ele><time>2026-04-11T14:49:43Z</time></trkpt><trkpt lat="39.118502414445906" lon="16.744807447980264"><ele>976.8000000000001</ele><time>2026-04-11T14:49:45Z</time></trkpt><trkpt lat="39.11849555783282" lon="16.74493493412438"><ele>974.0</ele><time>2026-04-11T14:49:46Z</time></trkpt><trkpt lat="39.118508561272336" lon="16.74507917179856"><ele>971.75</ele><time>2026-04-11T14:49:47Z</time></trkpt><trkpt lat="39.118534491621865" lon="16.745259552096233"><ele>969.5</ele><time>2026-04-11T14:49:48Z</time></trkpt><trkpt lat="39.1185704694088" lon="16.745386813776623"><ele>967.25</ele><time>2026-04-11T14:49:49Z</time></trkpt><trkpt lat="39.1185756466645" lon="16.74553002744573"><ele>965.0</ele><time>2026-04-11T14:49:50Z</time></trkpt><trkpt lat="39.11858984516809" lon="16.74566776752559"><ele>965.0000000000001</ele><time>2026-04-11T14:49:51Z</time></trkpt><trkpt lat="39.1185742654039" lon="16.74576962968323"><ele>965.0</ele><time>2026-04-11T14:49:52Z</time></trkpt><trkpt lat="39.11851689105632" lon="16.74586103880163"><ele>965.0</ele><time>2026-04-11T14:49:53Z</time></trkpt><trkpt lat="39.11843489133789" lon="16.745937027769642"><ele>965.0</ele><time>2026-04-11T14:49:55Z</time></trkpt><trkpt lat="39.118395998111396" lon="16.74600223222463"><ele>965.0000000000001</ele><time>2026-04-11T14:49:56Z</time></trkpt><trkpt lat="39.11839827078214" lon="16.746115967518588"><ele>965.0</ele><time>2026-04-11T14:49:59Z</time></trkpt><trkpt lat="39.11860865981718" lon="16.746401261500193"><ele>965.0</ele><time>2026-04-11T14:50:02Z</time></trkpt><trkpt lat="39.11847818313757" lon="16.7462694080468"><ele>965.0</ele><time>2026-04-11T14:50:04Z</time></trkpt><trkpt lat="39.11841125609446" lon="16.746174867313613"><ele>965.0</ele><time>2026-04-11T14:50:06Z</time></trkpt><trkpt lat="39.11836106444025" lon="16.746103393321885"><ele>965.0</ele><time>2026-04-11T14:50:07Z</time></trkpt><trkpt lat="39.118391057062055" lon="16.745817988942814"><ele>965.0</ele><time>2026-04-11T14:50:08Z</time></trkpt><trkpt lat="39.118308519464726" lon="16.74577326984424"><ele>965.0</ele><time>2026-04-11T14:50:09Z</time></trkpt><trkpt lat="39.11825573440224" lon="16.745717593327477"><ele>965.0</ele><time>2026-04-11T14:50:11Z</time></trkpt><trkpt lat="39.11819292497122" lon="16.745662116151355"><ele>965.0</ele><time>2026-04-11T14:50:12Z</time></trkpt><trkpt lat="39.1179476589777" lon="16.74575087189751"><ele>954.0</ele><time>2026-04-11T14:50:15Z</time></trkpt><trkpt lat="39.117871817605526" lon="16.74620819848232"><ele>943.0</ele><time>2026-04-11T14:50:16Z</time></trkpt><trkpt lat="39.11783404526722" lon="16.746295363059023"><ele>932.0</ele><time>2026-04-11T14:50:17Z</time></trkpt><trkpt lat="39.11777786620677" lon="16.746358447091154"><ele>932.0</ele><time>2026-04-11T14:50:19Z</time></trkpt><trkpt lat="39.11785909688199" lon="16.746534716798045"><ele>932.0</ele><time>2026-04-11T14:50:21Z</time></trkpt><trkpt lat="39.11788897721104" lon="16.74662612938695"><ele>932.0</ele><time>2026-04-11T14:50:22Z</time></trkpt><trkpt lat="39.11790527105479" lon="16.74673875092208"><ele>932.0</ele><time>2026-04-11T14:50:23Z</time></trkpt><trkpt lat="39.11787692424229" lon="16.746826334822252"><ele>932.0</ele><time>2026-04-11T14:50:24Z</time></trkpt><trkpt lat="39.11786535953666" lon="16.746951234532506"><ele>929.75</ele><time>2026-04-11T14:50:25Z</time></trkpt><trkpt lat="39.117823542127944" lon="16.74706070347809"><ele>927.5</ele><time>2026-04-11T14:50:26Z</time></trkpt><trkpt lat="39.11773468668791" lon="16.747199544706636"><ele>925.25</ele><time>2026-04-11T14:50:27Z</time></trkpt><trkpt lat="39.11764383342085" lon="16.74732425377773"><ele>923.0</ele><time>2026-04-11T14:50:28Z</time></trkpt><trkpt lat="39.11757523457992" lon="16.74746246770143"><ele>923.0</ele><time>2026-04-11T14:50:29Z</time></trkpt><trkpt lat="39.11748411972546" lon="16.747553795141403"><ele>923.0</ele><time>2026-04-11T14:50:30Z</time></trkpt><trkpt lat="39.11744456583363" lon="16.747710739707102"><ele>923.0</ele><time>2026-04-11T14:50:31Z</time></trkpt><trkpt lat="39.11737539937593" lon="16.74782612822743"><ele>923.0</ele><time>2026-04-11T14:50:32Z</time></trkpt><trkpt lat="39.11713850242969" lon="16.74788893873478"><ele>916.5</ele><time>2026-04-11T14:50:33Z</time></trkpt><trkpt lat="39.117118801743175" lon="16.748054969993987"><ele>910.0</ele><time>2026-04-11T14:50:34Z</time></trkpt><trkpt lat="39.11709986798376" lon="16.748214518200346"><ele>903.5</ele><time>2026-04-11T14:50:35Z</time></trkpt><trkpt lat="39.11707450383044" lon="16.748384188419116"><ele>897.0</ele><time>2026-04-11T14:50:36Z</time></trkpt><trkpt lat="39.117042954607655" lon="16.748539636383505"><ele>896.5</ele><time>2026-04-11T14:50:37Z</time></trkpt><trkpt lat="39.116998685933346" lon="16.748709786925676"><ele>896.0</ele><time>2026-04-11T14:50:38Z</time></trkpt><trkpt lat="39.11694944463254" lon="16.748894596369862"><ele>895.5</ele><time>2026-04-11T14:50:39Z</time></trkpt><trkpt lat="39.11690522853138" lon="16.749083025545055"><ele>895.0</ele><time>2026-04-11T14:50:40Z</time></trkpt><trkpt lat="39.11687576051695" lon="16.7492666622098"><ele>892.75</ele><time>2026-04-11T14:50:41Z</time></trkpt><trkpt lat="39.116849127345375" lon="16.749446070880293"><ele>890.5</ele><time>2026-04-11T14:50:42Z</time></trkpt><trkpt lat="39.11680767098176" lon="16.74958707549128"><ele>888.25</ele><time>2026-04-11T14:50:43Z</time></trkpt><trkpt lat="39.11672392748951" lon="16.74972843968714"><ele>886.0</ele><time>2026-04-11T14:50:44Z</time></trkpt><trkpt lat="39.11665896178533" lon="16.74988300169762"><ele>886.0</ele><time>2026-04-11T14:50:45Z</time></trkpt><trkpt lat="39.11663039593768" lon="16.750053599846435"><ele>886.0</ele><time>2026-04-11T14:50:46Z</time></trkpt><trkpt lat="39.11661117803541" lon="16.750207234372347"><ele>886.0</ele><time>2026-04-11T14:50:47Z</time></trkpt><trkpt lat="39.11659738814061" lon="16.75037229807501"><ele>886.0</ele><time>2026-04-11T14:50:48Z</time></trkpt><trkpt lat="39.11664289454544" lon="16.750523041160843"><ele>884.0</ele><time>2026-04-11T14:50:49Z</time></trkpt><trkpt lat="39.11668064630413" lon="16.750673732478266"><ele>882.0</ele><time>2026-04-11T14:50:50Z</time></trkpt><trkpt lat="39.116736547528234" lon="16.750823703237074"><ele>880.0</ele><time>2026-04-11T14:50:51Z</time></trkpt><trkpt lat="39.11680487316" lon="16.750957339389863"><ele>878.0</ele><time>2026-04-11T14:50:52Z</time></trkpt><trkpt lat="39.116856018574765" lon="16.7510832415977"><ele>876.2</ele><time>2026-04-11T14:50:53Z</time></trkpt><trkpt lat="39.1169189346811" lon="16.751224507072408"><ele>874.4</ele><time>2026-04-11T14:50:54Z</time></trkpt><trkpt lat="39.11698789669912" lon="16.751336534157904"><ele>872.6000000000001</ele><time>2026-04-11T14:50:55Z</time></trkpt><trkpt lat="39.117027121571795" lon="16.75142295689284"><ele>870.8000000000001</ele><time>2026-04-11T14:50:56Z</time></trkpt><trkpt lat="39.11703629785013" lon="16.751513819160692"><ele>869.0</ele><time>2026-04-11T14:50:57Z</time></trkpt><trkpt lat="39.116979854929035" lon="16.751606414203014"><ele>869.0</ele><time>2026-04-11T14:50:59Z</time></trkpt><trkpt lat="39.116829152584636" lon="16.751727780758866"><ele>869.0</ele><time>2026-04-11T14:51:01Z</time></trkpt><trkpt lat="39.116716476377825" lon="16.751822135008712"><ele>869.0</ele><time>2026-04-11T14:51:02Z</time></trkpt><trkpt lat="39.116578812097444" lon="16.751927932227044"><ele>861.3333333333334</ele><time>2026-04-11T14:51:03Z</time></trkpt><trkpt lat="39.116419889144446" lon="16.752093186680934"><ele>853.6666666666667</ele><time>2026-04-11T14:51:04Z</time></trkpt><trkpt lat="39.116345856862786" lon="16.752312676496185"><ele>846.0</ele><time>2026-04-11T14:51:05Z</time></trkpt><trkpt lat="39.11633261118891" lon="16.75242051364804"><ele>846.0</ele><time>2026-04-11T14:51:06Z</time></trkpt><trkpt lat="39.11630583465553" lon="16.7526167057523"><ele>846.0</ele><time>2026-04-11T14:51:07Z</time></trkpt><trkpt lat="39.11627864656795" lon="16.75283759773527"><ele>846.0</ele><time>2026-04-11T14:51:08Z</time></trkpt><trkpt lat="39.116244598474296" lon="16.753085166400258"><ele>840.3333333333333</ele><time>2026-04-11T14:51:09Z</time></trkpt><trkpt lat="39.11620864055596" lon="16.753290860001847"><ele>834.6666666666666</ele><time>2026-04-11T14:51:10Z</time></trkpt><trkpt lat="39.11615064333267" lon="16.753483581985957"><ele>829.0</ele><time>2026-04-11T14:51:11Z</time></trkpt><trkpt lat="39.11607712021972" lon="16.753669800390508"><ele>827.3333333333333</ele><time>2026-04-11T14:51:12Z</time></trkpt><trkpt lat="39.116000840759874" lon="16.75383906736257"><ele>825.6666666666667</ele><time>2026-04-11T14:51:13Z</time></trkpt><trkpt lat="39.11592484782531" lon="16.754023576766862"><ele>824.0</ele><time>2026-04-11T14:51:14Z</time></trkpt><trkpt lat="39.11586626253594" lon="16.754213841974682"><ele>822.75</ele><time>2026-04-11T14:51:15Z</time></trkpt><trkpt lat="39.11582931428289" lon="16.754391359210647"><ele>821.5</ele><time>2026-04-11T14:51:16Z</time></trkpt><trkpt lat="39.11578576526557" lon="16.754557668464674"><ele>820.25</ele><time>2026-04-11T14:51:17Z</time></trkpt><trkpt lat="39.11573121794381" lon="16.75468557895004"><ele>819.0</ele><time>2026-04-11T14:51:18Z</time></trkpt><trkpt lat="39.11563579474366" lon="16.75482417604404"><ele>812.6666666666667</ele><time>2026-04-11T14:51:19Z</time></trkpt><trkpt lat="39.11554034210898" lon="16.75500005161994"><ele>806.3333333333334</ele><time>2026-04-11T14:51:20Z</time></trkpt><trkpt lat="39.115452999118475" lon="16.755165713652847"><ele>800.0</ele><time>2026-04-11T14:51:21Z</time></trkpt><trkpt lat="39.11537907778661" lon="16.755304750818105"><ele>799.25</ele><time>2026-04-11T14:51:22Z</time></trkpt><trkpt lat="39.11530053186767" lon="16.755432774587423"><ele>798.5</ele><time>2026-04-11T14:51:23Z</time></trkpt><trkpt lat="39.11522462717803" lon="16.755545614023447"><ele>797.75</ele><time>2026-04-11T14:51:24Z</time></trkpt><trkpt lat="39.11515775062739" lon="16.755664829728882"><ele>797.0</ele><time>2026-04-11T14:51:25Z</time></trkpt><trkpt lat="39.11511891110067" lon="16.75579263372657"><ele>797.0</ele><time>2026-04-11T14:51:26Z</time></trkpt><trkpt lat="39.11506797119505" lon="16.755914120829928"><ele>797.0</ele><time>2026-04-11T14:51:27Z</time></trkpt><trkpt lat="39.115008612301644" lon="16.756023395163933"><ele>797.0</ele><time>2026-04-11T14:51:28Z</time></trkpt><trkpt lat="39.114935680724514" lon="16.756129244010598"><ele>797.0</ele><time>2026-04-11T14:51:29Z</time></trkpt><trkpt lat="39.11484856789812" lon="16.75625128887051"><ele>797.0</ele><time>2026-04-11T14:51:30Z</time></trkpt><trkpt lat="39.11476282744903" lon="16.75637319030231"><ele>792.75</ele><time>2026-04-11T14:51:31Z</time></trkpt><trkpt lat="39.11469111911407" lon="16.756506923954944"><ele>788.5</ele><time>2026-04-11T14:51:32Z</time></trkpt><trkpt lat="39.11459198515934" lon="16.756604600425447"><ele>784.25</ele><time>2026-04-11T14:51:33Z</time></trkpt><trkpt lat="39.11450399001842" lon="16.756698945223388"><ele>780.0</ele><time>2026-04-11T14:51:34Z</time></trkpt><trkpt lat="39.11441374079337" lon="16.756765007205214"><ele>780.0</ele><time>2026-04-11T14:51:35Z</time></trkpt><trkpt lat="39.11432426078209" lon="16.756835883462553"><ele>780.0</ele><time>2026-04-11T14:51:36Z</time></trkpt><trkpt lat="39.11425068658415" lon="16.7569150030134"><ele>780.0</ele><time>2026-04-11T14:51:37Z</time></trkpt><trkpt lat="39.11419242660967" lon="16.757009568735562"><ele>780.0</ele><time>2026-04-11T14:51:37.999Z</time></trkpt><trkpt lat="39.11418152847434" lon="16.757145966832187"><ele>780.0</ele><time>2026-04-11T14:51:39.001Z</time></trkpt><trkpt lat="39.11421136881286" lon="16.757273765693785"><ele>779.5</ele><time>2026-04-11T14:51:40.001Z</time></trkpt><trkpt lat="39.114229449603364" lon="16.757427907660226"><ele>779.0</ele><time>2026-04-11T14:51:41.001Z</time></trkpt><trkpt lat="39.114248246194165" lon="16.7575881521104"><ele>778.5</ele><time>2026-04-11T14:51:42.001Z</time></trkpt><trkpt lat="39.11427813184297" lon="16.75780653429473"><ele>778.0</ele><time>2026-04-11T14:51:43.001Z</time></trkpt><trkpt lat="39.11428926193092" lon="16.757963193581617"><ele>775.0</ele><time>2026-04-11T14:51:44.001Z</time></trkpt><trkpt lat="39.11435082051569" lon="16.758166160394794"><ele>772.0</ele><time>2026-04-11T14:51:45.001Z</time></trkpt><trkpt lat="39.114379782973536" lon="16.758335043220832"><ele>769.0</ele><time>2026-04-11T14:51:46.001Z</time></trkpt><trkpt lat="39.11442644417219" lon="16.75851126117896"><ele>766.0</ele><time>2026-04-11T14:51:47.001Z</time></trkpt><trkpt lat="39.11448200939156" lon="16.75861784007278"><ele>762.8</ele><time>2026-04-11T14:51:48.001Z</time></trkpt><trkpt lat="39.11455510530491" lon="16.758728759648758"><ele>759.5999999999999</ele><time>2026-04-11T14:51:49.001Z</time></trkpt><trkpt lat="39.11464592411423" lon="16.75882001012772"><ele>756.4</ele><time>2026-04-11T14:51:50.001Z</time></trkpt><trkpt lat="39.11471457127017" lon="16.75892801122013"><ele>753.2</ele><time>2026-04-11T14:51:51.001Z</time></trkpt><trkpt lat="39.114762306290864" lon="16.759018616827056"><ele>750.0</ele><time>2026-04-11T14:51:52.001Z</time></trkpt><trkpt lat="39.11479889565889" lon="16.759138688795392"><ele>750.0</ele><time>2026-04-11T14:51:53Z</time></trkpt><trkpt lat="39.11479773580402" lon="16.759262253202486"><ele>750.0</ele><time>2026-04-11T14:51:54Z</time></trkpt><trkpt lat="39.11472827141109" lon="16.759366062228423"><ele>750.0</ele><time>2026-04-11T14:51:55Z</time></trkpt><trkpt lat="39.1147251771957" lon="16.759484670913192"><ele>750.0</ele><time>2026-04-11T14:51:56Z</time></trkpt><trkpt lat="39.11472761848785" lon="16.75962949990619"><ele>750.0</ele><time>2026-04-11T14:51:57Z</time></trkpt><trkpt lat="39.11472953803257" lon="16.75977538557594"><ele>748.0</ele><time>2026-04-11T14:51:58Z</time></trkpt><trkpt lat="39.114735488616446" lon="16.7599038991406"><ele>746.0</ele><time>2026-04-11T14:51:59Z</time></trkpt><trkpt lat="39.114772488680856" lon="16.760079813548113"><ele>744.0</ele><time>2026-04-11T14:52:00Z</time></trkpt><trkpt lat="39.11481979876155" lon="16.76023999432511"><ele>742.0</ele><time>2026-04-11T14:52:01Z</time></trkpt><trkpt lat="39.11484954349714" lon="16.760340487106284"><ele>741.6</ele><time>2026-04-11T14:52:02Z</time></trkpt><trkpt lat="39.1148873112842" lon="16.760411536339408"><ele>741.2</ele><time>2026-04-11T14:52:03Z</time></trkpt><trkpt lat="39.114918274456954" lon="16.760572728971205"><ele>740.8</ele><time>2026-04-11T14:52:04Z</time></trkpt><trkpt lat="39.114965153789235" lon="16.760671024812034"><ele>740.4</ele><time>2026-04-11T14:52:05Z</time></trkpt><trkpt lat="39.11498290721882" lon="16.76078531662138"><ele>740.0</ele><time>2026-04-11T14:52:06Z</time></trkpt><trkpt lat="39.115027014110524" lon="16.760925475209348"><ele>740.0</ele><time>2026-04-11T14:52:07Z</time></trkpt><trkpt lat="39.1150698458195" lon="16.76102514197456"><ele>740.0</ele><time>2026-04-11T14:52:08Z</time></trkpt><trkpt lat="39.11515154916819" lon="16.7611274401452"><ele>740.0</ele><time>2026-04-11T14:52:08.999Z</time></trkpt><trkpt lat="39.11524240082736" lon="16.76122308336755"><ele>740.0</ele><time>2026-04-11T14:52:09.999Z</time></trkpt><trkpt lat="39.115316973944196" lon="16.761328402218286"><ele>740.0</ele><time>2026-04-11T14:52:10.999Z</time></trkpt><trkpt lat="39.115342101538936" lon="16.761508840943055"><ele>738.4</ele><time>2026-04-11T14:52:12.999Z</time></trkpt><trkpt lat="39.11533769119873" lon="16.761594902858207"><ele>736.8</ele><time>2026-04-11T14:52:13.999Z</time></trkpt><trkpt lat="39.11529668655981" lon="16.761687650629508"><ele>735.2</ele><time>2026-04-11T14:52:14.999Z</time></trkpt><trkpt lat="39.11519911282306" lon="16.7617582758237"><ele>733.6</ele><time>2026-04-11T14:52:15.999Z</time></trkpt><trkpt lat="39.11513769423405" lon="16.761959972173546"><ele>732.0</ele><time>2026-04-11T14:52:16.999Z</time></trkpt><trkpt lat="39.11513405289045" lon="16.76211147952078"><ele>727.8</ele><time>2026-04-11T14:52:17.999Z</time></trkpt><trkpt lat="39.1151390953102" lon="16.762299299490515"><ele>723.6</ele><time>2026-04-11T14:52:18.999Z</time></trkpt><trkpt lat="39.115136367762695" lon="16.762421617883156"><ele>719.4</ele><time>2026-04-11T14:52:19.999Z</time></trkpt><trkpt lat="39.11512749205229" lon="16.762527188880966"><ele>715.1999999999999</ele><time>2026-04-11T14:52:20.999Z</time></trkpt><trkpt lat="39.11511455741854" lon="16.762654359036993"><ele>711.0</ele><time>2026-04-11T14:52:21.999Z</time></trkpt><trkpt lat="39.115070483352056" lon="16.762878387901235"><ele>706.25</ele><time>2026-04-11T14:52:22.999Z</time></trkpt><trkpt lat="39.1150087870199" lon="16.763020959178505"><ele>701.5</ele><time>2026-04-11T14:52:23.999Z</time></trkpt><trkpt lat="39.11495522988187" lon="16.763079504556895"><ele>696.75</ele><time>2026-04-11T14:52:24.999Z</time></trkpt><trkpt lat="39.11478799957045" lon="16.763264854030833"><ele>692.0</ele><time>2026-04-11T14:52:25.999Z</time></trkpt><trkpt lat="39.114695053473625" lon="16.763432100496118"><ele>672.0</ele><time>2026-04-11T14:52:26.999Z</time></trkpt><trkpt lat="39.11440667436118" lon="16.763882150994206"><ele>672.0</ele><time>2026-04-11T14:52:31.028Z</time></trkpt><trkpt lat="39.11437067144467" lon="16.76397354580127"><ele>672.0</ele><time>2026-04-11T14:52:32.028Z</time></trkpt><trkpt lat="39.114335882321605" lon="16.76407176714062"><ele>672.0</ele><time>2026-04-11T14:52:33.024Z</time></trkpt><trkpt lat="39.11428070105608" lon="16.76413748412223"><ele>672.0</ele><time>2026-04-11T14:52:34.024Z</time></trkpt><trkpt lat="39.11419985786742" lon="16.76402816253443"><ele>672.0</ele><time>2026-04-11T14:52:36.022Z</time></trkpt><trkpt lat="39.114116176130864" lon="16.7639950039267"><ele>672.0</ele><time>2026-04-11T14:52:37.021Z</time></trkpt><trkpt lat="39.1140500955752" lon="16.764000711534646"><ele>669.2</ele><time>2026-04-11T14:52:38.023Z</time></trkpt><trkpt lat="39.11398255004905" lon="16.764013224734526"><ele>666.4000000000001</ele><time>2026-04-11T14:52:39.022Z</time></trkpt><trkpt lat="39.11394710172632" lon="16.76416920268588"><ele>663.5999999999999</ele><time>2026-04-11T14:52:41.028Z</time></trkpt><trkpt lat="39.11397937727002" lon="16.76428876663629"><ele>660.8</ele><time>2026-04-11T14:52:41.999Z</time></trkpt><trkpt lat="39.11405085849457" lon="16.764325297042483"><ele>658.0</ele><time>2026-04-11T14:52:42.999Z</time></trkpt><trkpt lat="39.114150533613305" lon="16.764391206337198"><ele>658.0</ele><time>2026-04-11T14:52:43.999Z</time></trkpt><trkpt lat="39.114250621852776" lon="16.764467366715287"><ele>658.0</ele><time>2026-04-11T14:52:44.999Z</time></trkpt><trkpt lat="39.11431721090476" lon="16.764593650721867"><ele>658.0</ele><time>2026-04-11T14:52:45.999Z</time></trkpt><trkpt lat="39.11434216257404" lon="16.76472214255278"><ele>658.0</ele><time>2026-04-11T14:52:46.999Z</time></trkpt><trkpt lat="39.11435126012646" lon="16.764891469833692"><ele>658.0</ele><time>2026-04-11T14:52:47.999Z</time></trkpt><trkpt lat="39.114411648308035" lon="16.765018474547173"><ele>658.0</ele><time>2026-04-11T14:52:48.999Z</time></trkpt><trkpt lat="39.11444494691605" lon="16.765195148310102"><ele>658.0</ele><time>2026-04-11T14:52:49.999Z</time></trkpt><trkpt lat="39.11447410843834" lon="16.765419818981243"><ele>658.0</ele><time>2026-04-11T14:52:50.999Z</time></trkpt><trkpt lat="39.11450281072669" lon="16.765620605322006"><ele>655.5</ele><time>2026-04-11T14:52:51.999Z</time></trkpt><trkpt lat="39.114497746964325" lon="16.765818819512006"><ele>653.0</ele><time>2026-04-11T14:52:52.999Z</time></trkpt><trkpt lat="39.11448934396206" lon="16.766020973883943"><ele>650.5</ele><time>2026-04-11T14:52:53.999Z</time></trkpt><trkpt lat="39.114499095212146" lon="16.766198428737944"><ele>648.0</ele><time>2026-04-11T14:52:54.999Z</time></trkpt><trkpt lat="39.11451938729385" lon="16.766356345261528"><ele>646.8</ele><time>2026-04-11T14:52:55.999Z</time></trkpt><trkpt lat="39.11453272928434" lon="16.766508582130164"><ele>645.5999999999999</ele><time>2026-04-11T14:52:56.999Z</time></trkpt><trkpt lat="39.11453573993541" lon="16.76663533189476"><ele>644.4000000000001</ele><time>2026-04-11T14:52:57.999Z</time></trkpt><trkpt lat="39.11453823768594" lon="16.766775786220204"><ele>643.2</ele><time>2026-04-11T14:52:58.999Z</time></trkpt><trkpt lat="39.114531244083764" lon="16.76691136854697"><ele>642.0</ele><time>2026-04-11T14:52:59.999Z</time></trkpt><trkpt lat="39.11451155890903" lon="16.76706468162682"><ele>641.0</ele><time>2026-04-11T14:53:00.999Z</time></trkpt><trkpt lat="39.1144921510216" lon="16.767227444556692"><ele>640.0</ele><time>2026-04-11T14:53:01.999Z</time></trkpt><trkpt lat="39.11447366602929" lon="16.767384338444575"><ele>639.0</ele><time>2026-04-11T14:53:02.999Z</time></trkpt><trkpt lat="39.11446565200495" lon="16.767519107509326"><ele>638.0</ele><time>2026-04-11T14:53:03.999Z</time></trkpt><trkpt lat="39.11446911605444" lon="16.7676513518683"><ele>637.8</ele><time>2026-04-11T14:53:04.999Z</time></trkpt><trkpt lat="39.11449205643977" lon="16.76777939100328"><ele>637.5999999999999</ele><time>2026-04-11T14:53:05.999Z</time></trkpt><trkpt lat="39.11450285165139" lon="16.767912415159962"><ele>637.4000000000001</ele><time>2026-04-11T14:53:06.999Z</time></trkpt><trkpt lat="39.11452384319938" lon="16.768052176610915"><ele>637.2</ele><time>2026-04-11T14:53:07.999Z</time></trkpt><trkpt lat="39.11454062474907" lon="16.768183864283483"><ele>637.0</ele><time>2026-04-11T14:53:08.999Z</time></trkpt><trkpt lat="39.11577596930079" lon="16.77613407634136"><ele>615.25</ele><time>2026-04-11T14:54:22Z</time></trkpt><trkpt lat="39.115684302693225" lon="16.77632537746641"><ele>593.5</ele><time>2026-04-11T14:54:23Z</time></trkpt><trkpt lat="39.115692150198235" lon="16.77649527661133"><ele>571.75</ele><time>2026-04-11T14:54:24Z</time></trkpt><trkpt lat="39.115717020624274" lon="16.776598351114504"><ele>550.0</ele><time>2026-04-11T14:54:25Z</time></trkpt><trkpt lat="39.115667091912364" lon="16.776669505763515"><ele>550.0</ele><time>2026-04-11T14:54:27Z</time></trkpt><trkpt lat="39.115648690532254" lon="16.77677899745757"><ele>550.0</ele><time>2026-04-11T14:54:28Z</time></trkpt><trkpt lat="39.115616899656615" lon="16.776876292499868"><ele>550.0</ele><time>2026-04-11T14:54:29Z</time></trkpt><trkpt lat="39.115571913625175" lon="16.77701701086411"><ele>550.0</ele><time>2026-04-11T14:54:31Z</time></trkpt><trkpt lat="39.11554230687841" lon="16.777107268760062"><ele>550.0</ele><time>2026-04-11T14:54:32Z</time></trkpt><trkpt lat="39.11551135226718" lon="16.777197190830112"><ele>550.0</ele><time>2026-04-11T14:54:33Z</time></trkpt><trkpt lat="39.115481150101246" lon="16.777280200419778"><ele>548.2</ele><time>2026-04-11T14:54:34Z</time></trkpt><trkpt lat="39.11544689203491" lon="16.77736521083158"><ele>546.4</ele><time>2026-04-11T14:54:35Z</time></trkpt><trkpt lat="39.115415308644664" lon="16.77744578059404"><ele>544.6</ele><time>2026-04-11T14:54:36Z</time></trkpt><trkpt lat="39.115363670453185" lon="16.777570338861945"><ele>542.8</ele><time>2026-04-11T14:54:38Z</time></trkpt><trkpt lat="39.1153016786026" lon="16.77771689211677"><ele>541.0</ele><time>2026-04-11T14:54:40Z</time></trkpt><trkpt lat="39.115268289090274" lon="16.77779582736063"><ele>540.1666666666667</ele><time>2026-04-11T14:54:41Z</time></trkpt><trkpt lat="39.11523540986136" lon="16.777873556246636"><ele>539.3333333333334</ele><time>2026-04-11T14:54:42Z</time></trkpt><trkpt lat="39.11520149456812" lon="16.777953734455135"><ele>538.5</ele><time>2026-04-11T14:54:43Z</time></trkpt><trkpt lat="39.11516782289033" lon="16.77803333673521"><ele>537.6666666666666</ele><time>2026-04-11T14:54:44Z</time></trkpt><trkpt lat="39.11512936717136" lon="16.778122807280738"><ele>536.8333333333333</ele><time>2026-04-11T14:54:45Z</time></trkpt><trkpt lat="39.1150917546036" lon="16.77821031465589"><ele>536.0</ele><time>2026-04-11T14:54:46Z</time></trkpt><trkpt lat="39.11504199085638" lon="16.778326092491824"><ele>536.0</ele><time>2026-04-11T14:54:47Z</time></trkpt><trkpt lat="39.115002208818915" lon="16.77842448668829"><ele>536.0</ele><time>2026-04-11T14:54:48Z</time></trkpt><trkpt lat="39.11499051693181" lon="16.778526165481733"><ele>536.0</ele><time>2026-04-11T14:54:49Z</time></trkpt><trkpt lat="39.114964136846105" lon="16.778614749690554"><ele>536.0</ele><time>2026-04-11T14:54:50Z</time></trkpt><trkpt lat="39.11493584575183" lon="16.778708932296176"><ele>536.0</ele><time>2026-04-11T14:54:51Z</time></trkpt><trkpt lat="39.11490986416032" lon="16.77880500039755"><ele>536.0</ele><time>2026-04-11T14:54:52Z</time></trkpt><trkpt lat="39.1148470477833" lon="16.77888857169763"><ele>532.8333333333333</ele><time>2026-04-11T14:54:53Z</time></trkpt><trkpt lat="39.11481018283612" lon="16.778997471900105"><ele>529.6666666666666</ele><time>2026-04-11T14:54:54Z</time></trkpt><trkpt lat="39.11477923069841" lon="16.77909427061389"><ele>526.5</ele><time>2026-04-11T14:54:55Z</time></trkpt><trkpt lat="39.11474329055511" lon="16.77919735206851"><ele>523.3333333333334</ele><time>2026-04-11T14:54:55.999Z</time></trkpt><trkpt lat="39.11470600249624" lon="16.779287065732294"><ele>520.1666666666667</ele><time>2026-04-11T14:54:56.999Z</time></trkpt><trkpt lat="39.114664084693864" lon="16.779381412430816"><ele>517.0</ele><time>2026-04-11T14:54:57.999Z</time></trkpt><trkpt lat="39.11461368291603" lon="16.779497089555036"><ele>516.6666666666667</ele><time>2026-04-11T14:54:58.999Z</time></trkpt><trkpt lat="39.11457421494208" lon="16.77961177210594"><ele>516.3333333333334</ele><time>2026-04-11T14:54:59.999Z</time></trkpt><trkpt lat="39.11454487552655" lon="16.779700915966075"><ele>516.0</ele><time>2026-04-11T14:55:00.999Z</time></trkpt><trkpt lat="39.11451844000472" lon="16.779778907753062"><ele>515.6666666666666</ele><time>2026-04-11T14:55:01.999Z</time></trkpt><trkpt lat="39.11447991238442" lon="16.779853373794975"><ele>515.3333333333333</ele><time>2026-04-11T14:55:02.999Z</time></trkpt><trkpt lat="39.114360343931736" lon="16.779914856865737"><ele>515.0</ele><time>2026-04-11T14:55:04.999Z</time></trkpt><trkpt lat="39.11430691818703" lon="16.779964305431342"><ele>515.0</ele><time>2026-04-11T14:55:05.999Z</time></trkpt><trkpt lat="39.11425334939664" lon="16.78001912102361"><ele>515.0</ele><time>2026-04-11T14:55:06.999Z</time></trkpt><trkpt lat="39.11419938712446" lon="16.78007641213044"><ele>515.0</ele><time>2026-04-11T14:55:07.999Z</time></trkpt><trkpt lat="39.11413891841226" lon="16.780126292258032"><ele>515.0</ele><time>2026-04-11T14:55:08.999Z</time></trkpt><trkpt lat="39.11408484299993" lon="16.780185659743513"><ele>515.0</ele><time>2026-04-11T14:55:09.999Z</time></trkpt><trkpt lat="39.11404321655859" lon="16.78026112114011"><ele>515.0</ele><time>2026-04-11T14:55:10.999Z</time></trkpt><trkpt lat="39.11399373361236" lon="16.78039198632094"><ele>512.6666666666666</ele><time>2026-04-11T14:55:12.999Z</time></trkpt><trkpt lat="39.11390276480986" lon="16.780476994392888"><ele>510.3333333333333</ele><time>2026-04-11T14:55:14.999Z</time></trkpt><trkpt lat="39.11382356412998" lon="16.780504227285256"><ele>508.0</ele><time>2026-04-11T14:55:16.999Z</time></trkpt><trkpt lat="39.113734778385975" lon="16.78053703095234"><ele>505.66666666666663</ele><time>2026-04-11T14:55:19.999Z</time></trkpt><trkpt lat="39.11366873906327" lon="16.780616702384506"><ele>503.3333333333333</ele><time>2026-04-11T14:55:22.999Z</time></trkpt><trkpt lat="39.11360779163703" lon="16.78059550397298"><ele>501.0</ele><time>2026-04-11T14:55:27.999Z</time></trkpt><trkpt lat="39.11348459832142" lon="16.780608005737182"><ele>501.0</ele><time>2026-04-11T14:55:29.999Z</time></trkpt><trkpt lat="39.113459574323024" lon="16.780475974922165"><ele>501.0</ele><time>2026-04-11T14:55:30.999Z</time></trkpt><trkpt lat="39.11340481670371" lon="16.780418412725556"><ele>501.0</ele><time>2026-04-11T14:55:31.999Z</time></trkpt><trkpt lat="39.1135051170874" lon="16.780171088685844"><ele>501.0</ele><time>2026-04-11T14:55:32.999Z</time></trkpt><trkpt lat="39.11342321673166" lon="16.780046979655673"><ele>500.5</ele><time>2026-04-11T14:55:33.999Z</time></trkpt><trkpt lat="39.11334907286785" lon="16.77993296152541"><ele>500.0</ele><time>2026-04-11T14:55:34.999Z</time></trkpt><trkpt lat="39.113285066262705" lon="16.779833409895332"><ele>499.5</ele><time>2026-04-11T14:55:35.999Z</time></trkpt><trkpt lat="39.11319082319348" lon="16.779680465352936"><ele>499.0</ele><time>2026-04-11T14:55:36.999Z</time></trkpt><trkpt lat="39.1131336391258" lon="16.77957966012525"><ele>497.1666666666667</ele><time>2026-04-11T14:55:37.999Z</time></trkpt><trkpt lat="39.11308279614815" lon="16.77949032042411"><ele>495.33333333333337</ele><time>2026-04-11T14:55:38.999Z</time></trkpt><trkpt lat="39.1130400355324" lon="16.77941519348902"><ele>493.5</ele><time>2026-04-11T14:55:39.999Z</time></trkpt><trkpt lat="39.11297838938077" lon="16.77931203411252"><ele>491.66666666666663</ele><time>2026-04-11T14:55:40.999Z</time></trkpt><trkpt lat="39.11291315826887" lon="16.779236420996625"><ele>489.8333333333333</ele><time>2026-04-11T14:55:41.999Z</time></trkpt><trkpt lat="39.11288152092581" lon="16.779154283866678"><ele>488.0</ele><time>2026-04-11T14:55:42.999Z</time></trkpt><trkpt lat="39.112818197202024" lon="16.77905295072554"><ele>488.0</ele><time>2026-04-11T14:55:44.999Z</time></trkpt><trkpt lat="39.11277268738889" lon="16.778995076107595"><ele>488.0</ele><time>2026-04-11T14:55:46.999Z</time></trkpt><trkpt lat="39.11264894139507" lon="16.778884011098075"><ele>488.0</ele><time>2026-04-11T14:55:48.999Z</time></trkpt><trkpt lat="39.11244439882504" lon="16.779084245264414"><ele>488.0</ele><time>2026-04-11T14:55:50Z</time></trkpt><trkpt lat="39.11244683759871" lon="16.7791865961097"><ele>488.0</ele><time>2026-04-11T14:55:52Z</time></trkpt><trkpt lat="39.112479618248905" lon="16.779261100594955"><ele>488.0</ele><time>2026-04-11T14:55:55Z</time></trkpt><trkpt lat="39.1128165539009" lon="16.779228952606093"><ele>488.0</ele><time>2026-04-11T14:55:58Z</time></trkpt><trkpt lat="39.11279622386291" lon="16.77914635217231"><ele>488.0</ele><time>2026-04-11T14:57:48.999Z</time></trkpt><trkpt lat="39.11276231313386" lon="16.77922469893897"><ele>488.0</ele><time>2026-04-11T14:58:04Z</time></trkpt><trkpt lat="39.11279989270669" lon="16.779154451525898"><ele>488.0</ele><time>2026-04-11T14:58:49.999Z</time></trkpt></trkseg></trk></gpx>